<?xml version="1.0" encoding="UTF-8"?>
<gpx creator="WikiLoc - http://www.wikiloc.com" version="1.1" xmlns="http://www.topografix.com/GPX/1/1">
    <trk>
        <name>09-07-04 Nocturna almaden con btt magina</name>
        <cmt/>
        <desc/>
        <trkseg>
            <trkpt lat="37.788627" lon="-3.611238">
                <ele>758.617432</ele>
                <time>2009-07-05T00:44:51.000+02:00</time>
            </trkpt>
            <trkpt lat="37.788627" lon="-3.611234">
                <ele>758.617432</ele>
                <time>2009-07-05T00:44:52.000+02:00</time>
            </trkpt>
            <trkpt lat="37.788625" lon="-3.611233">
                <ele>758.136963</ele>
                <time>2009-07-05T00:44:53.000+02:00</time>
            </trkpt>
            <trkpt lat="37.788670" lon="-3.611228">
                <ele>754.772217</ele>
                <time>2009-07-05T00:45:01.000+02:00</time>
            </trkpt>
            <trkpt lat="37.788662" lon="-3.611232">
                <ele>751.888428</ele>
                <time>2009-07-05T00:45:16.000+02:00</time>
            </trkpt>
            <trkpt lat="37.788671" lon="-3.611189">
                <ele>749.004394</ele>
                <time>2009-07-05T00:45:58.000+02:00</time>
            </trkpt>
            <trkpt lat="37.788669" lon="-3.611161">
                <ele>749.004394</ele>
                <time>2009-07-05T00:46:00.000+02:00</time>
            </trkpt>
            <trkpt lat="37.788678" lon="-3.611069">
                <ele>749.004394</ele>
                <time>2009-07-05T00:46:05.000+02:00</time>
            </trkpt>
            <trkpt lat="37.788687" lon="-3.611005">
                <ele>749.485107</ele>
                <time>2009-07-05T00:46:08.000+02:00</time>
            </trkpt>
            <trkpt lat="37.788683" lon="-3.610846">
                <ele>749.485107</ele>
                <time>2009-07-05T00:46:16.000+02:00</time>
            </trkpt>
            <trkpt lat="37.788715" lon="-3.610552">
                <ele>750.446533</ele>
                <time>2009-07-05T00:46:32.000+02:00</time>
            </trkpt>
            <trkpt lat="37.788717" lon="-3.610242">
                <ele>751.407715</ele>
                <time>2009-07-05T00:46:46.000+02:00</time>
            </trkpt>
            <trkpt lat="37.788747" lon="-3.609805">
                <ele>752.849609</ele>
                <time>2009-07-05T00:47:03.000+02:00</time>
            </trkpt>
            <trkpt lat="37.788727" lon="-3.609519">
                <ele>754.291748</ele>
                <time>2009-07-05T00:47:16.000+02:00</time>
            </trkpt>
            <trkpt lat="37.788731" lon="-3.609170">
                <ele>755.733643</ele>
                <time>2009-07-05T00:47:29.000+02:00</time>
            </trkpt>
            <trkpt lat="37.788767" lon="-3.608798">
                <ele>757.656250</ele>
                <time>2009-07-05T00:47:42.000+02:00</time>
            </trkpt>
            <trkpt lat="37.788794" lon="-3.608389">
                <ele>759.578857</ele>
                <time>2009-07-05T00:47:56.000+02:00</time>
            </trkpt>
            <trkpt lat="37.788812" lon="-3.607914">
                <ele>761.020752</ele>
                <time>2009-07-05T00:48:12.000+02:00</time>
            </trkpt>
            <trkpt lat="37.788837" lon="-3.607443">
                <ele>761.982178</ele>
                <time>2009-07-05T00:48:27.000+02:00</time>
            </trkpt>
            <trkpt lat="37.788865" lon="-3.606912">
                <ele>762.462647</ele>
                <time>2009-07-05T00:48:42.000+02:00</time>
            </trkpt>
            <trkpt lat="37.788871" lon="-3.606234">
                <ele>762.462647</ele>
                <time>2009-07-05T00:49:00.000+02:00</time>
            </trkpt>
            <trkpt lat="37.788874" lon="-3.605789">
                <ele>763.904541</ele>
                <time>2009-07-05T00:49:12.000+02:00</time>
            </trkpt>
            <trkpt lat="37.788875" lon="-3.605143">
                <ele>764.385498</ele>
                <time>2009-07-05T00:49:30.000+02:00</time>
            </trkpt>
            <trkpt lat="37.788844" lon="-3.604509">
                <ele>764.866211</ele>
                <time>2009-07-05T00:49:47.000+02:00</time>
            </trkpt>
            <trkpt lat="37.788780" lon="-3.604130">
                <ele>765.346924</ele>
                <time>2009-07-05T00:50:01.000+02:00</time>
            </trkpt>
            <trkpt lat="37.788562" lon="-3.604085">
                <ele>767.269531</ele>
                <time>2009-07-05T00:50:14.000+02:00</time>
            </trkpt>
            <trkpt lat="37.788344" lon="-3.604093">
                <ele>770.634033</ele>
                <time>2009-07-05T00:50:26.000+02:00</time>
            </trkpt>
            <trkpt lat="37.788137" lon="-3.604045">
                <ele>773.998535</ele>
                <time>2009-07-05T00:50:39.000+02:00</time>
            </trkpt>
            <trkpt lat="37.787921" lon="-3.603961">
                <ele>776.882568</ele>
                <time>2009-07-05T00:50:53.000+02:00</time>
            </trkpt>
            <trkpt lat="37.787679" lon="-3.603945">
                <ele>778.805176</ele>
                <time>2009-07-05T00:51:07.000+02:00</time>
            </trkpt>
            <trkpt lat="37.787401" lon="-3.603892">
                <ele>779.766357</ele>
                <time>2009-07-05T00:51:20.000+02:00</time>
            </trkpt>
            <trkpt lat="37.787062" lon="-3.603839">
                <ele>779.766357</ele>
                <time>2009-07-05T00:51:33.000+02:00</time>
            </trkpt>
            <trkpt lat="37.786752" lon="-3.603802">
                <ele>779.285644</ele>
                <time>2009-07-05T00:51:44.000+02:00</time>
            </trkpt>
            <trkpt lat="37.786372" lon="-3.603763">
                <ele>780.247315</ele>
                <time>2009-07-05T00:51:57.000+02:00</time>
            </trkpt>
            <trkpt lat="37.786099" lon="-3.603711">
                <ele>780.728027</ele>
                <time>2009-07-05T00:52:08.000+02:00</time>
            </trkpt>
            <trkpt lat="37.785809" lon="-3.603660">
                <ele>780.728027</ele>
                <time>2009-07-05T00:52:20.000+02:00</time>
            </trkpt>
            <trkpt lat="37.785484" lon="-3.603599">
                <ele>782.169922</ele>
                <time>2009-07-05T00:52:34.000+02:00</time>
            </trkpt>
            <trkpt lat="37.785344" lon="-3.603636">
                <ele>782.169922</ele>
                <time>2009-07-05T00:52:41.000+02:00</time>
            </trkpt>
            <trkpt lat="37.785351" lon="-3.603823">
                <ele>782.169922</ele>
                <time>2009-07-05T00:52:47.000+02:00</time>
            </trkpt>
            <trkpt lat="37.785516" lon="-3.604212">
                <ele>780.728027</ele>
                <time>2009-07-05T00:52:56.000+02:00</time>
            </trkpt>
            <trkpt lat="37.785596" lon="-3.604418">
                <ele>780.247315</ele>
                <time>2009-07-05T00:53:00.000+02:00</time>
            </trkpt>
            <trkpt lat="37.785927" lon="-3.605328">
                <ele>776.882568</ele>
                <time>2009-07-05T00:53:15.000+02:00</time>
            </trkpt>
            <trkpt lat="37.786263" lon="-3.606209">
                <ele>774.959961</ele>
                <time>2009-07-05T00:53:28.000+02:00</time>
            </trkpt>
            <trkpt lat="37.786538" lon="-3.606994">
                <ele>772.556641</ele>
                <time>2009-07-05T00:53:40.000+02:00</time>
            </trkpt>
            <trkpt lat="37.786570" lon="-3.607142">
                <ele>772.556641</ele>
                <time>2009-07-05T00:53:42.000+02:00</time>
            </trkpt>
            <trkpt lat="37.786574" lon="-3.607515">
                <ele>770.153320</ele>
                <time>2009-07-05T00:53:47.000+02:00</time>
            </trkpt>
            <trkpt lat="37.786531" lon="-3.608037">
                <ele>768.230713</ele>
                <time>2009-07-05T00:53:57.000+02:00</time>
            </trkpt>
            <trkpt lat="37.786551" lon="-3.608418">
                <ele>766.308106</ele>
                <time>2009-07-05T00:54:08.000+02:00</time>
            </trkpt>
            <trkpt lat="37.786428" lon="-3.608853">
                <ele>763.904541</ele>
                <time>2009-07-05T00:54:18.000+02:00</time>
            </trkpt>
            <trkpt lat="37.786414" lon="-3.608946">
                <ele>762.943359</ele>
                <time>2009-07-05T00:54:21.000+02:00</time>
            </trkpt>
            <trkpt lat="37.786468" lon="-3.609198">
                <ele>761.501465</ele>
                <time>2009-07-05T00:54:31.000+02:00</time>
            </trkpt>
            <trkpt lat="37.786415" lon="-3.609443">
                <ele>760.540039</ele>
                <time>2009-07-05T00:54:42.000+02:00</time>
            </trkpt>
            <trkpt lat="37.786352" lon="-3.609884">
                <ele>760.059326</ele>
                <time>2009-07-05T00:54:56.000+02:00</time>
            </trkpt>
            <trkpt lat="37.785896" lon="-3.609963">
                <ele>761.982178</ele>
                <time>2009-07-05T00:55:13.000+02:00</time>
            </trkpt>
            <trkpt lat="37.785623" lon="-3.609934">
                <ele>762.462647</ele>
                <time>2009-07-05T00:55:27.000+02:00</time>
            </trkpt>
            <trkpt lat="37.785211" lon="-3.609810">
                <ele>761.020752</ele>
                <time>2009-07-05T00:55:41.000+02:00</time>
            </trkpt>
            <trkpt lat="37.784742" lon="-3.609719">
                <ele>758.136963</ele>
                <time>2009-07-05T00:55:51.000+02:00</time>
            </trkpt>
            <trkpt lat="37.784451" lon="-3.609656">
                <ele>757.175537</ele>
                <time>2009-07-05T00:55:59.000+02:00</time>
            </trkpt>
            <trkpt lat="37.784446" lon="-3.609969">
                <ele>755.733643</ele>
                <time>2009-07-05T00:56:07.000+02:00</time>
            </trkpt>
            <trkpt lat="37.784545" lon="-3.610443">
                <ele>753.330322</ele>
                <time>2009-07-05T00:56:19.000+02:00</time>
            </trkpt>
            <trkpt lat="37.784581" lon="-3.610787">
                <ele>751.888428</ele>
                <time>2009-07-05T00:56:32.000+02:00</time>
            </trkpt>
            <trkpt lat="37.784707" lon="-3.611147">
                <ele>750.446533</ele>
                <time>2009-07-05T00:56:45.000+02:00</time>
            </trkpt>
            <trkpt lat="37.784803" lon="-3.611775">
                <ele>749.004394</ele>
                <time>2009-07-05T00:57:02.000+02:00</time>
            </trkpt>
            <trkpt lat="37.784809" lon="-3.611802">
                <ele>748.523682</ele>
                <time>2009-07-05T00:57:03.000+02:00</time>
            </trkpt>
            <trkpt lat="37.784821" lon="-3.612144">
                <ele>747.562256</ele>
                <time>2009-07-05T00:57:16.000+02:00</time>
            </trkpt>
            <trkpt lat="37.784849" lon="-3.612366">
                <ele>747.081543</ele>
                <time>2009-07-05T00:57:24.000+02:00</time>
            </trkpt>
            <trkpt lat="37.784671" lon="-3.612447">
                <ele>747.081543</ele>
                <time>2009-07-05T00:57:31.000+02:00</time>
            </trkpt>
            <trkpt lat="37.784279" lon="-3.612559">
                <ele>747.081543</ele>
                <time>2009-07-05T00:57:42.000+02:00</time>
            </trkpt>
            <trkpt lat="37.784251" lon="-3.612555">
                <ele>747.562256</ele>
                <time>2009-07-05T00:57:45.000+02:00</time>
            </trkpt>
            <trkpt lat="37.784140" lon="-3.612594">
                <ele>748.043213</ele>
                <time>2009-07-05T00:57:50.000+02:00</time>
            </trkpt>
            <trkpt lat="37.783888" lon="-3.612643">
                <ele>748.043213</ele>
                <time>2009-07-05T00:58:02.000+02:00</time>
            </trkpt>
            <trkpt lat="37.783578" lon="-3.612650">
                <ele>749.004394</ele>
                <time>2009-07-05T00:58:11.000+02:00</time>
            </trkpt>
            <trkpt lat="37.783536" lon="-3.612329">
                <ele>751.407715</ele>
                <time>2009-07-05T00:58:23.000+02:00</time>
            </trkpt>
            <trkpt lat="37.783470" lon="-3.611965">
                <ele>754.291748</ele>
                <time>2009-07-05T00:58:35.000+02:00</time>
            </trkpt>
            <trkpt lat="37.783388" lon="-3.611611">
                <ele>756.214111</ele>
                <time>2009-07-05T00:58:49.000+02:00</time>
            </trkpt>
            <trkpt lat="37.783380" lon="-3.611565">
                <ele>756.694824</ele>
                <time>2009-07-05T00:58:51.000+02:00</time>
            </trkpt>
            <trkpt lat="37.783344" lon="-3.611459">
                <ele>757.175537</ele>
                <time>2009-07-05T00:58:56.000+02:00</time>
            </trkpt>
            <trkpt lat="37.783300" lon="-3.611117">
                <ele>758.617432</ele>
                <time>2009-07-05T00:59:08.000+02:00</time>
            </trkpt>
            <trkpt lat="37.783279" lon="-3.611037">
                <ele>759.098144</ele>
                <time>2009-07-05T00:59:11.000+02:00</time>
            </trkpt>
            <trkpt lat="37.783262" lon="-3.610960">
                <ele>759.578857</ele>
                <time>2009-07-05T00:59:14.000+02:00</time>
            </trkpt>
            <trkpt lat="37.783188" lon="-3.610886">
                <ele>760.059326</ele>
                <time>2009-07-05T00:59:18.000+02:00</time>
            </trkpt>
            <trkpt lat="37.782938" lon="-3.610828">
                <ele>760.540039</ele>
                <time>2009-07-05T00:59:32.000+02:00</time>
            </trkpt>
            <trkpt lat="37.782584" lon="-3.610778">
                <ele>760.059326</ele>
                <time>2009-07-05T00:59:47.000+02:00</time>
            </trkpt>
            <trkpt lat="37.782340" lon="-3.610712">
                <ele>760.059326</ele>
                <time>2009-07-05T00:59:57.000+02:00</time>
            </trkpt>
            <trkpt lat="37.782190" lon="-3.610581">
                <ele>760.540039</ele>
                <time>2009-07-05T01:00:03.000+02:00</time>
            </trkpt>
            <trkpt lat="37.781929" lon="-3.610294">
                <ele>762.462647</ele>
                <time>2009-07-05T01:00:17.000+02:00</time>
            </trkpt>
            <trkpt lat="37.781587" lon="-3.609737">
                <ele>764.385498</ele>
                <time>2009-07-05T01:00:41.000+02:00</time>
            </trkpt>
            <trkpt lat="37.781342" lon="-3.609474">
                <ele>766.308106</ele>
                <time>2009-07-05T01:00:57.000+02:00</time>
            </trkpt>
            <trkpt lat="37.781091" lon="-3.609201">
                <ele>767.750000</ele>
                <time>2009-07-05T01:01:12.000+02:00</time>
            </trkpt>
            <trkpt lat="37.780893" lon="-3.608979">
                <ele>769.192139</ele>
                <time>2009-07-05T01:01:24.000+02:00</time>
            </trkpt>
            <trkpt lat="37.780779" lon="-3.608894">
                <ele>769.672852</ele>
                <time>2009-07-05T01:01:30.000+02:00</time>
            </trkpt>
            <trkpt lat="37.780425" lon="-3.608583">
                <ele>771.114746</ele>
                <time>2009-07-05T01:01:47.000+02:00</time>
            </trkpt>
            <trkpt lat="37.780191" lon="-3.608421">
                <ele>772.075928</ele>
                <time>2009-07-05T01:01:59.000+02:00</time>
            </trkpt>
            <trkpt lat="37.780117" lon="-3.608347">
                <ele>772.075928</ele>
                <time>2009-07-05T01:02:04.000+02:00</time>
            </trkpt>
            <trkpt lat="37.780009" lon="-3.608306">
                <ele>773.037353</ele>
                <time>2009-07-05T01:02:11.000+02:00</time>
            </trkpt>
            <trkpt lat="37.779735" lon="-3.608331">
                <ele>774.479248</ele>
                <time>2009-07-05T01:02:29.000+02:00</time>
            </trkpt>
            <trkpt lat="37.779504" lon="-3.608321">
                <ele>775.440430</ele>
                <time>2009-07-05T01:02:42.000+02:00</time>
            </trkpt>
            <trkpt lat="37.779467" lon="-3.608270">
                <ele>775.440430</ele>
                <time>2009-07-05T01:02:46.000+02:00</time>
            </trkpt>
            <trkpt lat="37.779427" lon="-3.608204">
                <ele>775.921143</ele>
                <time>2009-07-05T01:03:04.000+02:00</time>
            </trkpt>
            <trkpt lat="37.779450" lon="-3.608047">
                <ele>776.882568</ele>
                <time>2009-07-05T01:10:01.000+02:00</time>
            </trkpt>
            <trkpt lat="37.779302" lon="-3.607814">
                <ele>778.324463</ele>
                <time>2009-07-05T01:10:14.000+02:00</time>
            </trkpt>
            <trkpt lat="37.779132" lon="-3.607644">
                <ele>779.285644</ele>
                <time>2009-07-05T01:10:27.000+02:00</time>
            </trkpt>
            <trkpt lat="37.778810" lon="-3.607342">
                <ele>781.208740</ele>
                <time>2009-07-05T01:10:45.000+02:00</time>
            </trkpt>
            <trkpt lat="37.778632" lon="-3.607144">
                <ele>783.131103</ele>
                <time>2009-07-05T01:10:58.000+02:00</time>
            </trkpt>
            <trkpt lat="37.778455" lon="-3.606887">
                <ele>785.534424</ele>
                <time>2009-07-05T01:11:14.000+02:00</time>
            </trkpt>
            <trkpt lat="37.778324" lon="-3.606698">
                <ele>786.976318</ele>
                <time>2009-07-05T01:11:27.000+02:00</time>
            </trkpt>
            <trkpt lat="37.778184" lon="-3.606389">
                <ele>788.418457</ele>
                <time>2009-07-05T01:11:42.000+02:00</time>
            </trkpt>
            <trkpt lat="37.778047" lon="-3.606102">
                <ele>789.860352</ele>
                <time>2009-07-05T01:11:56.000+02:00</time>
            </trkpt>
            <trkpt lat="37.777910" lon="-3.605831">
                <ele>791.302246</ele>
                <time>2009-07-05T01:12:11.000+02:00</time>
            </trkpt>
            <trkpt lat="37.777819" lon="-3.605535">
                <ele>792.744385</ele>
                <time>2009-07-05T01:12:24.000+02:00</time>
            </trkpt>
            <trkpt lat="37.777715" lon="-3.605204">
                <ele>794.666748</ele>
                <time>2009-07-05T01:12:40.000+02:00</time>
            </trkpt>
            <trkpt lat="37.777573" lon="-3.604951">
                <ele>796.109131</ele>
                <time>2009-07-05T01:12:54.000+02:00</time>
            </trkpt>
            <trkpt lat="37.777359" lon="-3.604695">
                <ele>797.070312</ele>
                <time>2009-07-05T01:13:09.000+02:00</time>
            </trkpt>
            <trkpt lat="37.777170" lon="-3.604438">
                <ele>798.512207</ele>
                <time>2009-07-05T01:13:24.000+02:00</time>
            </trkpt>
            <trkpt lat="37.777002" lon="-3.604058">
                <ele>800.435059</ele>
                <time>2009-07-05T01:13:42.000+02:00</time>
            </trkpt>
            <trkpt lat="37.776896" lon="-3.603719">
                <ele>802.357422</ele>
                <time>2009-07-05T01:13:57.000+02:00</time>
            </trkpt>
            <trkpt lat="37.776830" lon="-3.603387">
                <ele>804.280273</ele>
                <time>2009-07-05T01:14:12.000+02:00</time>
            </trkpt>
            <trkpt lat="37.776759" lon="-3.602989">
                <ele>806.202637</ele>
                <time>2009-07-05T01:14:29.000+02:00</time>
            </trkpt>
            <trkpt lat="37.776692" lon="-3.602660">
                <ele>808.605957</ele>
                <time>2009-07-05T01:14:44.000+02:00</time>
            </trkpt>
            <trkpt lat="37.776621" lon="-3.602348">
                <ele>811.009277</ele>
                <time>2009-07-05T01:14:59.000+02:00</time>
            </trkpt>
            <trkpt lat="37.776525" lon="-3.601987">
                <ele>813.412842</ele>
                <time>2009-07-05T01:15:16.000+02:00</time>
            </trkpt>
            <trkpt lat="37.776426" lon="-3.601651">
                <ele>815.335449</ele>
                <time>2009-07-05T01:15:32.000+02:00</time>
            </trkpt>
            <trkpt lat="37.776335" lon="-3.601299">
                <ele>817.738525</ele>
                <time>2009-07-05T01:15:48.000+02:00</time>
            </trkpt>
            <trkpt lat="37.776255" lon="-3.600972">
                <ele>820.622559</ele>
                <time>2009-07-05T01:16:03.000+02:00</time>
            </trkpt>
            <trkpt lat="37.776167" lon="-3.600702">
                <ele>823.025879</ele>
                <time>2009-07-05T01:16:18.000+02:00</time>
            </trkpt>
            <trkpt lat="37.776100" lon="-3.600461">
                <ele>824.948486</ele>
                <time>2009-07-05T01:16:30.000+02:00</time>
            </trkpt>
            <trkpt lat="37.776010" lon="-3.600184">
                <ele>827.351807</ele>
                <time>2009-07-05T01:16:45.000+02:00</time>
            </trkpt>
            <trkpt lat="37.775910" lon="-3.599906">
                <ele>829.755127</ele>
                <time>2009-07-05T01:17:00.000+02:00</time>
            </trkpt>
            <trkpt lat="37.775828" lon="-3.599647">
                <ele>831.677734</ele>
                <time>2009-07-05T01:17:14.000+02:00</time>
            </trkpt>
            <trkpt lat="37.775772" lon="-3.599357">
                <ele>833.119629</ele>
                <time>2009-07-05T01:17:27.000+02:00</time>
            </trkpt>
            <trkpt lat="37.775751" lon="-3.599039">
                <ele>835.522949</ele>
                <time>2009-07-05T01:17:42.000+02:00</time>
            </trkpt>
            <trkpt lat="37.775726" lon="-3.598888">
                <ele>836.484375</ele>
                <time>2009-07-05T01:17:49.000+02:00</time>
            </trkpt>
            <trkpt lat="37.775693" lon="-3.598596">
                <ele>838.406982</ele>
                <time>2009-07-05T01:18:04.000+02:00</time>
            </trkpt>
            <trkpt lat="37.775663" lon="-3.598368">
                <ele>839.848877</ele>
                <time>2009-07-05T01:18:15.000+02:00</time>
            </trkpt>
            <trkpt lat="37.775655" lon="-3.598214">
                <ele>840.810059</ele>
                <time>2009-07-05T01:18:22.000+02:00</time>
            </trkpt>
            <trkpt lat="37.775600" lon="-3.597920">
                <ele>842.732910</ele>
                <time>2009-07-05T01:18:36.000+02:00</time>
            </trkpt>
            <trkpt lat="37.775537" lon="-3.597639">
                <ele>844.655518</ele>
                <time>2009-07-05T01:18:51.000+02:00</time>
            </trkpt>
            <trkpt lat="37.775477" lon="-3.597333">
                <ele>846.578369</ele>
                <time>2009-07-05T01:19:04.000+02:00</time>
            </trkpt>
            <trkpt lat="37.775433" lon="-3.597097">
                <ele>848.020264</ele>
                <time>2009-07-05T01:19:15.000+02:00</time>
            </trkpt>
            <trkpt lat="37.775357" lon="-3.596745">
                <ele>849.942871</ele>
                <time>2009-07-05T01:19:32.000+02:00</time>
            </trkpt>
            <trkpt lat="37.775289" lon="-3.596450">
                <ele>851.865478</ele>
                <time>2009-07-05T01:19:47.000+02:00</time>
            </trkpt>
            <trkpt lat="37.775233" lon="-3.596141">
                <ele>853.788086</ele>
                <time>2009-07-05T01:20:01.000+02:00</time>
            </trkpt>
            <trkpt lat="37.775195" lon="-3.596036">
                <ele>854.749268</ele>
                <time>2009-07-05T01:20:06.000+02:00</time>
            </trkpt>
            <trkpt lat="37.775049" lon="-3.595721">
                <ele>858.114014</ele>
                <time>2009-07-05T01:20:22.000+02:00</time>
            </trkpt>
            <trkpt lat="37.774974" lon="-3.595528">
                <ele>859.555908</ele>
                <time>2009-07-05T01:20:33.000+02:00</time>
            </trkpt>
            <trkpt lat="37.774894" lon="-3.595351">
                <ele>862.439941</ele>
                <time>2009-07-05T01:20:45.000+02:00</time>
            </trkpt>
            <trkpt lat="37.774784" lon="-3.595122">
                <ele>864.843262</ele>
                <time>2009-07-05T01:20:57.000+02:00</time>
            </trkpt>
            <trkpt lat="37.774762" lon="-3.595048">
                <ele>865.804688</ele>
                <time>2009-07-05T01:21:02.000+02:00</time>
            </trkpt>
            <trkpt lat="37.774653" lon="-3.594828">
                <ele>868.688477</ele>
                <time>2009-07-05T01:21:16.000+02:00</time>
            </trkpt>
            <trkpt lat="37.774563" lon="-3.594621">
                <ele>871.091797</ele>
                <time>2009-07-05T01:21:30.000+02:00</time>
            </trkpt>
            <trkpt lat="37.774491" lon="-3.594396">
                <ele>873.014404</ele>
                <time>2009-07-05T01:21:44.000+02:00</time>
            </trkpt>
            <trkpt lat="37.774487" lon="-3.594379">
                <ele>873.495117</ele>
                <time>2009-07-05T01:21:45.000+02:00</time>
            </trkpt>
            <trkpt lat="37.774329" lon="-3.594088">
                <ele>875.898193</ele>
                <time>2009-07-05T01:22:00.000+02:00</time>
            </trkpt>
            <trkpt lat="37.774204" lon="-3.593870">
                <ele>877.821045</ele>
                <time>2009-07-05T01:22:14.000+02:00</time>
            </trkpt>
            <trkpt lat="37.774090" lon="-3.593697">
                <ele>879.743652</ele>
                <time>2009-07-05T01:22:27.000+02:00</time>
            </trkpt>
            <trkpt lat="37.774031" lon="-3.593592">
                <ele>881.185791</ele>
                <time>2009-07-05T01:22:35.000+02:00</time>
            </trkpt>
            <trkpt lat="37.773883" lon="-3.593339">
                <ele>883.588867</ele>
                <time>2009-07-05T01:22:50.000+02:00</time>
            </trkpt>
            <trkpt lat="37.773876" lon="-3.593326">
                <ele>883.588867</ele>
                <time>2009-07-05T01:22:51.000+02:00</time>
            </trkpt>
            <trkpt lat="37.773827" lon="-3.593210">
                <ele>885.511475</ele>
                <time>2009-07-05T01:22:59.000+02:00</time>
            </trkpt>
            <trkpt lat="37.773579" lon="-3.592925">
                <ele>889.356690</ele>
                <time>2009-07-05T01:23:17.000+02:00</time>
            </trkpt>
            <trkpt lat="37.773421" lon="-3.592765">
                <ele>891.279297</ele>
                <time>2009-07-05T01:23:31.000+02:00</time>
            </trkpt>
            <trkpt lat="37.773191" lon="-3.592649">
                <ele>893.202148</ele>
                <time>2009-07-05T01:23:44.000+02:00</time>
            </trkpt>
            <trkpt lat="37.773167" lon="-3.592585">
                <ele>894.163574</ele>
                <time>2009-07-05T01:23:57.000+02:00</time>
            </trkpt>
            <trkpt lat="37.772997" lon="-3.592452">
                <ele>896.086182</ele>
                <time>2009-07-05T01:24:30.000+02:00</time>
            </trkpt>
            <trkpt lat="37.772779" lon="-3.592326">
                <ele>898.489258</ele>
                <time>2009-07-05T01:24:43.000+02:00</time>
            </trkpt>
            <trkpt lat="37.772571" lon="-3.592186">
                <ele>901.373291</ele>
                <time>2009-07-05T01:24:57.000+02:00</time>
            </trkpt>
            <trkpt lat="37.772473" lon="-3.592068">
                <ele>903.776611</ele>
                <time>2009-07-05T01:25:09.000+02:00</time>
            </trkpt>
            <trkpt lat="37.772287" lon="-3.591935">
                <ele>906.660400</ele>
                <time>2009-07-05T01:25:25.000+02:00</time>
            </trkpt>
            <trkpt lat="37.772171" lon="-3.591893">
                <ele>908.102783</ele>
                <time>2009-07-05T01:25:33.000+02:00</time>
            </trkpt>
            <trkpt lat="37.772096" lon="-3.591880">
                <ele>909.063965</ele>
                <time>2009-07-05T01:25:38.000+02:00</time>
            </trkpt>
            <trkpt lat="37.771956" lon="-3.591779">
                <ele>911.467285</ele>
                <time>2009-07-05T01:25:52.000+02:00</time>
            </trkpt>
            <trkpt lat="37.771814" lon="-3.591668">
                <ele>913.389893</ele>
                <time>2009-07-05T01:26:05.000+02:00</time>
            </trkpt>
            <trkpt lat="37.771793" lon="-3.591671">
                <ele>913.870361</ele>
                <time>2009-07-05T01:26:06.000+02:00</time>
            </trkpt>
            <trkpt lat="37.771720" lon="-3.591584">
                <ele>914.831787</ele>
                <time>2009-07-05T01:26:14.000+02:00</time>
            </trkpt>
            <trkpt lat="37.771542" lon="-3.591472">
                <ele>917.235107</ele>
                <time>2009-07-05T01:26:30.000+02:00</time>
            </trkpt>
            <trkpt lat="37.771497" lon="-3.591422">
                <ele>918.196289</ele>
                <time>2009-07-05T01:26:36.000+02:00</time>
            </trkpt>
            <trkpt lat="37.771302" lon="-3.591228">
                <ele>921.080322</ele>
                <time>2009-07-05T01:26:54.000+02:00</time>
            </trkpt>
            <trkpt lat="37.771272" lon="-3.591180">
                <ele>921.560791</ele>
                <time>2009-07-05T01:26:56.000+02:00</time>
            </trkpt>
            <trkpt lat="37.771143" lon="-3.590997">
                <ele>923.483643</ele>
                <time>2009-07-05T01:27:10.000+02:00</time>
            </trkpt>
            <trkpt lat="37.771107" lon="-3.590958">
                <ele>924.445068</ele>
                <time>2009-07-05T01:27:14.000+02:00</time>
            </trkpt>
            <trkpt lat="37.770983" lon="-3.590812">
                <ele>926.367676</ele>
                <time>2009-07-05T01:27:28.000+02:00</time>
            </trkpt>
            <trkpt lat="37.770902" lon="-3.590661">
                <ele>927.809570</ele>
                <time>2009-07-05T01:27:37.000+02:00</time>
            </trkpt>
            <trkpt lat="37.770882" lon="-3.590611">
                <ele>928.290283</ele>
                <time>2009-07-05T01:27:41.000+02:00</time>
            </trkpt>
            <trkpt lat="37.770840" lon="-3.590503">
                <ele>928.770996</ele>
                <time>2009-07-05T01:27:50.000+02:00</time>
            </trkpt>
            <trkpt lat="37.770747" lon="-3.590399">
                <ele>930.693603</ele>
                <time>2009-07-05T01:27:59.000+02:00</time>
            </trkpt>
            <trkpt lat="37.770687" lon="-3.590368">
                <ele>931.654785</ele>
                <time>2009-07-05T01:28:03.000+02:00</time>
            </trkpt>
            <trkpt lat="37.770506" lon="-3.590302">
                <ele>933.096680</ele>
                <time>2009-07-05T01:28:17.000+02:00</time>
            </trkpt>
            <trkpt lat="37.770334" lon="-3.590192">
                <ele>935.500000</ele>
                <time>2009-07-05T01:28:31.000+02:00</time>
            </trkpt>
            <trkpt lat="37.770214" lon="-3.590049">
                <ele>937.903320</ele>
                <time>2009-07-05T01:28:44.000+02:00</time>
            </trkpt>
            <trkpt lat="37.770108" lon="-3.589928">
                <ele>940.306885</ele>
                <time>2009-07-05T01:28:55.000+02:00</time>
            </trkpt>
            <trkpt lat="37.770069" lon="-3.589849">
                <ele>940.787353</ele>
                <time>2009-07-05T01:29:00.000+02:00</time>
            </trkpt>
            <trkpt lat="37.769981" lon="-3.589684">
                <ele>942.710205</ele>
                <time>2009-07-05T01:29:12.000+02:00</time>
            </trkpt>
            <trkpt lat="37.769877" lon="-3.589562">
                <ele>944.152100</ele>
                <time>2009-07-05T01:29:21.000+02:00</time>
            </trkpt>
            <trkpt lat="37.769779" lon="-3.589481">
                <ele>945.593994</ele>
                <time>2009-07-05T01:29:29.000+02:00</time>
            </trkpt>
            <trkpt lat="37.769722" lon="-3.589458">
                <ele>946.074707</ele>
                <time>2009-07-05T01:29:33.000+02:00</time>
            </trkpt>
            <trkpt lat="37.769658" lon="-3.589479">
                <ele>947.035889</ele>
                <time>2009-07-05T01:29:39.000+02:00</time>
            </trkpt>
            <trkpt lat="37.769635" lon="-3.589540">
                <ele>947.997315</ele>
                <time>2009-07-05T01:29:43.000+02:00</time>
            </trkpt>
            <trkpt lat="37.769661" lon="-3.589844">
                <ele>950.400635</ele>
                <time>2009-07-05T01:29:57.000+02:00</time>
            </trkpt>
            <trkpt lat="37.769662" lon="-3.589863">
                <ele>950.400635</ele>
                <time>2009-07-05T01:29:58.000+02:00</time>
            </trkpt>
            <trkpt lat="37.769678" lon="-3.589942">
                <ele>951.361816</ele>
                <time>2009-07-05T01:30:02.000+02:00</time>
            </trkpt>
            <trkpt lat="37.769673" lon="-3.590208">
                <ele>953.284424</ele>
                <time>2009-07-05T01:30:16.000+02:00</time>
            </trkpt>
            <trkpt lat="37.769683" lon="-3.590257">
                <ele>953.765137</ele>
                <time>2009-07-05T01:30:19.000+02:00</time>
            </trkpt>
            <trkpt lat="37.769627" lon="-3.590539">
                <ele>956.168457</ele>
                <time>2009-07-05T01:30:33.000+02:00</time>
            </trkpt>
            <trkpt lat="37.769517" lon="-3.590822">
                <ele>959.533203</ele>
                <time>2009-07-05T01:30:47.000+02:00</time>
            </trkpt>
            <trkpt lat="37.769447" lon="-3.591054">
                <ele>962.416992</ele>
                <time>2009-07-05T01:30:59.000+02:00</time>
            </trkpt>
            <trkpt lat="37.769422" lon="-3.591132">
                <ele>963.378418</ele>
                <time>2009-07-05T01:31:04.000+02:00</time>
            </trkpt>
            <trkpt lat="37.769429" lon="-3.591206">
                <ele>964.339600</ele>
                <time>2009-07-05T01:31:08.000+02:00</time>
            </trkpt>
            <trkpt lat="37.769258" lon="-3.591446">
                <ele>967.704102</ele>
                <time>2009-07-05T01:31:22.000+02:00</time>
            </trkpt>
            <trkpt lat="37.769194" lon="-3.591584">
                <ele>969.626953</ele>
                <time>2009-07-05T01:31:34.000+02:00</time>
            </trkpt>
            <trkpt lat="37.769080" lon="-3.591686">
                <ele>971.068848</ele>
                <time>2009-07-05T01:31:41.000+02:00</time>
            </trkpt>
            <trkpt lat="37.769039" lon="-3.591868">
                <ele>973.472412</ele>
                <time>2009-07-05T01:31:55.000+02:00</time>
            </trkpt>
            <trkpt lat="37.769030" lon="-3.591921">
                <ele>974.914307</ele>
                <time>2009-07-05T01:32:01.000+02:00</time>
            </trkpt>
            <trkpt lat="37.769051" lon="-3.591951">
                <ele>974.914307</ele>
                <time>2009-07-05T01:32:03.000+02:00</time>
            </trkpt>
            <trkpt lat="37.768999" lon="-3.592018">
                <ele>975.875488</ele>
                <time>2009-07-05T01:32:07.000+02:00</time>
            </trkpt>
            <trkpt lat="37.768792" lon="-3.592300">
                <ele>977.798096</ele>
                <time>2009-07-05T01:32:18.000+02:00</time>
            </trkpt>
            <trkpt lat="37.768778" lon="-3.592527">
                <ele>980.201416</ele>
                <time>2009-07-05T01:32:32.000+02:00</time>
            </trkpt>
            <trkpt lat="37.768744" lon="-3.592622">
                <ele>981.162842</ele>
                <time>2009-07-05T01:32:38.000+02:00</time>
            </trkpt>
            <trkpt lat="37.768756" lon="-3.592706">
                <ele>981.643310</ele>
                <time>2009-07-05T01:32:43.000+02:00</time>
            </trkpt>
            <trkpt lat="37.768771" lon="-3.592734">
                <ele>982.124023</ele>
                <time>2009-07-05T01:32:45.000+02:00</time>
            </trkpt>
            <trkpt lat="37.768824" lon="-3.592967">
                <ele>984.046631</ele>
                <time>2009-07-05T01:33:01.000+02:00</time>
            </trkpt>
            <trkpt lat="37.768937" lon="-3.593148">
                <ele>985.969238</ele>
                <time>2009-07-05T01:33:15.000+02:00</time>
            </trkpt>
            <trkpt lat="37.769066" lon="-3.593244">
                <ele>987.411133</ele>
                <time>2009-07-05T01:33:27.000+02:00</time>
            </trkpt>
            <trkpt lat="37.769284" lon="-3.593333">
                <ele>989.333984</ele>
                <time>2009-07-05T01:33:42.000+02:00</time>
            </trkpt>
            <trkpt lat="37.769305" lon="-3.593360">
                <ele>990.295410</ele>
                <time>2009-07-05T01:33:47.000+02:00</time>
            </trkpt>
            <trkpt lat="37.769403" lon="-3.593428">
                <ele>991.256592</ele>
                <time>2009-07-05T01:33:54.000+02:00</time>
            </trkpt>
            <trkpt lat="37.769593" lon="-3.593574">
                <ele>993.179199</ele>
                <time>2009-07-05T01:34:08.000+02:00</time>
            </trkpt>
            <trkpt lat="37.769673" lon="-3.593727">
                <ele>995.101807</ele>
                <time>2009-07-05T01:34:21.000+02:00</time>
            </trkpt>
            <trkpt lat="37.769785" lon="-3.593862">
                <ele>996.543945</ele>
                <time>2009-07-05T01:34:31.000+02:00</time>
            </trkpt>
            <trkpt lat="37.769819" lon="-3.593932">
                <ele>997.505127</ele>
                <time>2009-07-05T01:34:36.000+02:00</time>
            </trkpt>
            <trkpt lat="37.769869" lon="-3.594013">
                <ele>997.985840</ele>
                <time>2009-07-05T01:34:41.000+02:00</time>
            </trkpt>
            <trkpt lat="37.769911" lon="-3.594111">
                <ele>999.427734</ele>
                <time>2009-07-05T01:34:48.000+02:00</time>
            </trkpt>
            <trkpt lat="37.770000" lon="-3.594254">
                <ele>1000.869629</ele>
                <time>2009-07-05T01:34:58.000+02:00</time>
            </trkpt>
            <trkpt lat="37.770125" lon="-3.594467">
                <ele>1003.272949</ele>
                <time>2009-07-05T01:35:14.000+02:00</time>
            </trkpt>
            <trkpt lat="37.770266" lon="-3.594667">
                <ele>1005.676514</ele>
                <time>2009-07-05T01:35:30.000+02:00</time>
            </trkpt>
            <trkpt lat="37.770348" lon="-3.594804">
                <ele>1007.118408</ele>
                <time>2009-07-05T01:35:40.000+02:00</time>
            </trkpt>
            <trkpt lat="37.770391" lon="-3.594897">
                <ele>1008.079834</ele>
                <time>2009-07-05T01:35:46.000+02:00</time>
            </trkpt>
            <trkpt lat="37.770524" lon="-3.595094">
                <ele>1010.002197</ele>
                <time>2009-07-05T01:36:00.000+02:00</time>
            </trkpt>
            <trkpt lat="37.770590" lon="-3.595220">
                <ele>1011.444336</ele>
                <time>2009-07-05T01:36:09.000+02:00</time>
            </trkpt>
            <trkpt lat="37.770699" lon="-3.595448">
                <ele>1013.847412</ele>
                <time>2009-07-05T01:36:24.000+02:00</time>
            </trkpt>
            <trkpt lat="37.770745" lon="-3.595523">
                <ele>1014.328125</ele>
                <time>2009-07-05T01:36:29.000+02:00</time>
            </trkpt>
            <trkpt lat="37.770804" lon="-3.595642">
                <ele>1015.289551</ele>
                <time>2009-07-05T01:36:35.000+02:00</time>
            </trkpt>
            <trkpt lat="37.770972" lon="-3.595957">
                <ele>1018.173340</ele>
                <time>2009-07-05T01:36:51.000+02:00</time>
            </trkpt>
            <trkpt lat="37.771124" lon="-3.596229">
                <ele>1020.576904</ele>
                <time>2009-07-05T01:37:06.000+02:00</time>
            </trkpt>
            <trkpt lat="37.771244" lon="-3.596563">
                <ele>1022.980225</ele>
                <time>2009-07-05T01:37:18.000+02:00</time>
            </trkpt>
            <trkpt lat="37.771414" lon="-3.596912">
                <ele>1026.344727</ele>
                <time>2009-07-05T01:37:32.000+02:00</time>
            </trkpt>
            <trkpt lat="37.771473" lon="-3.597026">
                <ele>1026.825439</ele>
                <time>2009-07-05T01:37:37.000+02:00</time>
            </trkpt>
            <trkpt lat="37.771535" lon="-3.597325">
                <ele>1028.748047</ele>
                <time>2009-07-05T01:37:50.000+02:00</time>
            </trkpt>
            <trkpt lat="37.771596" lon="-3.597507">
                <ele>1029.709229</ele>
                <time>2009-07-05T01:38:02.000+02:00</time>
            </trkpt>
            <trkpt lat="37.771617" lon="-3.597621">
                <ele>1030.670654</ele>
                <time>2009-07-05T01:38:08.000+02:00</time>
            </trkpt>
            <trkpt lat="37.771658" lon="-3.597858">
                <ele>1032.112549</ele>
                <time>2009-07-05T01:38:21.000+02:00</time>
            </trkpt>
            <trkpt lat="37.771672" lon="-3.597923">
                <ele>1032.593262</ele>
                <time>2009-07-05T01:38:25.000+02:00</time>
            </trkpt>
            <trkpt lat="37.771676" lon="-3.598185">
                <ele>1034.996582</ele>
                <time>2009-07-05T01:38:39.000+02:00</time>
            </trkpt>
            <trkpt lat="37.771596" lon="-3.598439">
                <ele>1037.399902</ele>
                <time>2009-07-05T01:38:54.000+02:00</time>
            </trkpt>
            <trkpt lat="37.771467" lon="-3.598632">
                <ele>1039.803223</ele>
                <time>2009-07-05T01:39:08.000+02:00</time>
            </trkpt>
            <trkpt lat="37.771444" lon="-3.598670">
                <ele>1040.283936</ele>
                <time>2009-07-05T01:39:11.000+02:00</time>
            </trkpt>
            <trkpt lat="37.771280" lon="-3.598817">
                <ele>1042.687256</ele>
                <time>2009-07-05T01:39:25.000+02:00</time>
            </trkpt>
            <trkpt lat="37.771169" lon="-3.598942">
                <ele>1045.090332</ele>
                <time>2009-07-05T01:39:36.000+02:00</time>
            </trkpt>
            <trkpt lat="37.771021" lon="-3.599082">
                <ele>1047.493652</ele>
                <time>2009-07-05T01:39:50.000+02:00</time>
            </trkpt>
            <trkpt lat="37.770857" lon="-3.599250">
                <ele>1049.416260</ele>
                <time>2009-07-05T01:40:03.000+02:00</time>
            </trkpt>
            <trkpt lat="37.770772" lon="-3.599379">
                <ele>1051.338867</ele>
                <time>2009-07-05T01:40:13.000+02:00</time>
            </trkpt>
            <trkpt lat="37.770713" lon="-3.599479">
                <ele>1052.300293</ele>
                <time>2009-07-05T01:40:20.000+02:00</time>
            </trkpt>
            <trkpt lat="37.770669" lon="-3.599543">
                <ele>1053.742432</ele>
                <time>2009-07-05T01:40:24.000+02:00</time>
            </trkpt>
            <trkpt lat="37.770517" lon="-3.599746">
                <ele>1056.145508</ele>
                <time>2009-07-05T01:40:38.000+02:00</time>
            </trkpt>
            <trkpt lat="37.770361" lon="-3.599973">
                <ele>1059.029541</ele>
                <time>2009-07-05T01:40:55.000+02:00</time>
            </trkpt>
            <trkpt lat="37.770284" lon="-3.600087">
                <ele>1060.952148</ele>
                <time>2009-07-05T01:41:04.000+02:00</time>
            </trkpt>
            <trkpt lat="37.770206" lon="-3.600197">
                <ele>1062.394043</ele>
                <time>2009-07-05T01:41:12.000+02:00</time>
            </trkpt>
            <trkpt lat="37.770186" lon="-3.600226">
                <ele>1062.874756</ele>
                <time>2009-07-05T01:41:14.000+02:00</time>
            </trkpt>
            <trkpt lat="37.770005" lon="-3.600420">
                <ele>1065.758789</ele>
                <time>2009-07-05T01:41:30.000+02:00</time>
            </trkpt>
            <trkpt lat="37.769899" lon="-3.600633">
                <ele>1068.642822</ele>
                <time>2009-07-05T01:41:46.000+02:00</time>
            </trkpt>
            <trkpt lat="37.769848" lon="-3.600727">
                <ele>1070.084717</ele>
                <time>2009-07-05T01:41:51.000+02:00</time>
            </trkpt>
            <trkpt lat="37.769770" lon="-3.600852">
                <ele>1071.526611</ele>
                <time>2009-07-05T01:41:59.000+02:00</time>
            </trkpt>
            <trkpt lat="37.769654" lon="-3.601055">
                <ele>1073.929932</ele>
                <time>2009-07-05T01:42:13.000+02:00</time>
            </trkpt>
            <trkpt lat="37.769552" lon="-3.601284">
                <ele>1076.333252</ele>
                <time>2009-07-05T01:42:26.000+02:00</time>
            </trkpt>
            <trkpt lat="37.769390" lon="-3.601515">
                <ele>1079.217041</ele>
                <time>2009-07-05T01:42:43.000+02:00</time>
            </trkpt>
            <trkpt lat="37.769275" lon="-3.601682">
                <ele>1081.620361</ele>
                <time>2009-07-05T01:42:55.000+02:00</time>
            </trkpt>
            <trkpt lat="37.769175" lon="-3.601770">
                <ele>1083.062256</ele>
                <time>2009-07-05T01:43:04.000+02:00</time>
            </trkpt>
            <trkpt lat="37.769139" lon="-3.601838">
                <ele>1084.023926</ele>
                <time>2009-07-05T01:43:09.000+02:00</time>
            </trkpt>
            <trkpt lat="37.768994" lon="-3.602063">
                <ele>1087.388428</ele>
                <time>2009-07-05T01:43:26.000+02:00</time>
            </trkpt>
            <trkpt lat="37.768862" lon="-3.602263">
                <ele>1089.791748</ele>
                <time>2009-07-05T01:43:41.000+02:00</time>
            </trkpt>
            <trkpt lat="37.768854" lon="-3.602294">
                <ele>1090.272461</ele>
                <time>2009-07-05T01:43:43.000+02:00</time>
            </trkpt>
            <trkpt lat="37.768797" lon="-3.602377">
                <ele>1091.714356</ele>
                <time>2009-07-05T01:43:49.000+02:00</time>
            </trkpt>
            <trkpt lat="37.768592" lon="-3.602598">
                <ele>1094.598144</ele>
                <time>2009-07-05T01:44:06.000+02:00</time>
            </trkpt>
            <trkpt lat="37.768449" lon="-3.602791">
                <ele>1097.962891</ele>
                <time>2009-07-05T01:44:22.000+02:00</time>
            </trkpt>
            <trkpt lat="37.768298" lon="-3.602990">
                <ele>1100.366455</ele>
                <time>2009-07-05T01:44:37.000+02:00</time>
            </trkpt>
            <trkpt lat="37.768144" lon="-3.603168">
                <ele>1103.250244</ele>
                <time>2009-07-05T01:44:53.000+02:00</time>
            </trkpt>
            <trkpt lat="37.767946" lon="-3.603275">
                <ele>1105.653564</ele>
                <time>2009-07-05T01:45:08.000+02:00</time>
            </trkpt>
            <trkpt lat="37.767907" lon="-3.603349">
                <ele>1107.576172</ele>
                <time>2009-07-05T01:45:16.000+02:00</time>
            </trkpt>
            <trkpt lat="37.767889" lon="-3.603364">
                <ele>1107.576172</ele>
                <time>2009-07-05T01:45:18.000+02:00</time>
            </trkpt>
            <trkpt lat="37.767722" lon="-3.603494">
                <ele>1110.459961</ele>
                <time>2009-07-05T01:45:33.000+02:00</time>
            </trkpt>
            <trkpt lat="37.767636" lon="-3.603538">
                <ele>1111.421387</ele>
                <time>2009-07-05T01:45:38.000+02:00</time>
            </trkpt>
            <trkpt lat="37.767546" lon="-3.603602">
                <ele>1112.863281</ele>
                <time>2009-07-05T01:45:44.000+02:00</time>
            </trkpt>
            <trkpt lat="37.767386" lon="-3.603686">
                <ele>1115.747314</ele>
                <time>2009-07-05T01:46:00.000+02:00</time>
            </trkpt>
            <trkpt lat="37.767159" lon="-3.603763">
                <ele>1119.112061</ele>
                <time>2009-07-05T01:46:17.000+02:00</time>
            </trkpt>
            <trkpt lat="37.766923" lon="-3.603789">
                <ele>1121.515137</ele>
                <time>2009-07-05T01:46:33.000+02:00</time>
            </trkpt>
            <trkpt lat="37.766740" lon="-3.603817">
                <ele>1124.399170</ele>
                <time>2009-07-05T01:46:47.000+02:00</time>
            </trkpt>
            <trkpt lat="37.766568" lon="-3.603870">
                <ele>1127.283203</ele>
                <time>2009-07-05T01:46:59.000+02:00</time>
            </trkpt>
            <trkpt lat="37.766424" lon="-3.603941">
                <ele>1129.205566</ele>
                <time>2009-07-05T01:47:11.000+02:00</time>
            </trkpt>
            <trkpt lat="37.766374" lon="-3.603979">
                <ele>1129.686279</ele>
                <time>2009-07-05T01:47:15.000+02:00</time>
            </trkpt>
            <trkpt lat="37.766260" lon="-3.604183">
                <ele>1132.570557</ele>
                <time>2009-07-05T01:47:30.000+02:00</time>
            </trkpt>
            <trkpt lat="37.766255" lon="-3.604414">
                <ele>1135.454346</ele>
                <time>2009-07-05T01:47:44.000+02:00</time>
            </trkpt>
            <trkpt lat="37.766219" lon="-3.604660">
                <ele>1138.819092</ele>
                <time>2009-07-05T01:47:59.000+02:00</time>
            </trkpt>
            <trkpt lat="37.766192" lon="-3.604720">
                <ele>1139.299561</ele>
                <time>2009-07-05T01:48:03.000+02:00</time>
            </trkpt>
            <trkpt lat="37.766115" lon="-3.604895">
                <ele>1141.702881</ele>
                <time>2009-07-05T01:48:16.000+02:00</time>
            </trkpt>
            <trkpt lat="37.765939" lon="-3.605087">
                <ele>1145.067383</ele>
                <time>2009-07-05T01:48:33.000+02:00</time>
            </trkpt>
            <trkpt lat="37.765740" lon="-3.605261">
                <ele>1146.989990</ele>
                <time>2009-07-05T01:48:46.000+02:00</time>
            </trkpt>
            <trkpt lat="37.765526" lon="-3.605422">
                <ele>1150.354981</ele>
                <time>2009-07-05T01:49:02.000+02:00</time>
            </trkpt>
            <trkpt lat="37.765404" lon="-3.605541">
                <ele>1152.277344</ele>
                <time>2009-07-05T01:49:14.000+02:00</time>
            </trkpt>
            <trkpt lat="37.765222" lon="-3.605692">
                <ele>1155.161377</ele>
                <time>2009-07-05T01:49:30.000+02:00</time>
            </trkpt>
            <trkpt lat="37.765068" lon="-3.605854">
                <ele>1158.525879</ele>
                <time>2009-07-05T01:49:46.000+02:00</time>
            </trkpt>
            <trkpt lat="37.764888" lon="-3.606039">
                <ele>1161.409912</ele>
                <time>2009-07-05T01:50:02.000+02:00</time>
            </trkpt>
            <trkpt lat="37.764716" lon="-3.606257">
                <ele>1164.293945</ele>
                <time>2009-07-05T01:50:17.000+02:00</time>
            </trkpt>
            <trkpt lat="37.764552" lon="-3.606463">
                <ele>1167.177979</ele>
                <time>2009-07-05T01:50:32.000+02:00</time>
            </trkpt>
            <trkpt lat="37.764388" lon="-3.606646">
                <ele>1170.061768</ele>
                <time>2009-07-05T01:50:49.000+02:00</time>
            </trkpt>
            <trkpt lat="37.764218" lon="-3.606745">
                <ele>1173.426514</ele>
                <time>2009-07-05T01:51:03.000+02:00</time>
            </trkpt>
            <trkpt lat="37.764025" lon="-3.606857">
                <ele>1176.310303</ele>
                <time>2009-07-05T01:51:18.000+02:00</time>
            </trkpt>
            <trkpt lat="37.763878" lon="-3.606938">
                <ele>1178.713623</ele>
                <time>2009-07-05T01:51:32.000+02:00</time>
            </trkpt>
            <trkpt lat="37.763722" lon="-3.607012">
                <ele>1181.117188</ele>
                <time>2009-07-05T01:51:44.000+02:00</time>
            </trkpt>
            <trkpt lat="37.763614" lon="-3.607060">
                <ele>1182.559082</ele>
                <time>2009-07-05T01:51:52.000+02:00</time>
            </trkpt>
            <trkpt lat="37.763539" lon="-3.607077">
                <ele>1183.520264</ele>
                <time>2009-07-05T01:51:57.000+02:00</time>
            </trkpt>
            <trkpt lat="37.763343" lon="-3.607221">
                <ele>1186.884766</ele>
                <time>2009-07-05T01:52:13.000+02:00</time>
            </trkpt>
            <trkpt lat="37.763183" lon="-3.607318">
                <ele>1188.807617</ele>
                <time>2009-07-05T01:52:26.000+02:00</time>
            </trkpt>
            <trkpt lat="37.763079" lon="-3.607413">
                <ele>1191.210693</ele>
                <time>2009-07-05T01:52:39.000+02:00</time>
            </trkpt>
            <trkpt lat="37.762977" lon="-3.607486">
                <ele>1192.652832</ele>
                <time>2009-07-05T01:52:48.000+02:00</time>
            </trkpt>
            <trkpt lat="37.762916" lon="-3.607536">
                <ele>1193.614014</ele>
                <time>2009-07-05T01:52:54.000+02:00</time>
            </trkpt>
            <trkpt lat="37.762836" lon="-3.607581">
                <ele>1195.055908</ele>
                <time>2009-07-05T01:52:59.000+02:00</time>
            </trkpt>
            <trkpt lat="37.762812" lon="-3.607597">
                <ele>1195.055908</ele>
                <time>2009-07-05T01:53:01.000+02:00</time>
            </trkpt>
            <trkpt lat="37.762753" lon="-3.607631">
                <ele>1195.536621</ele>
                <time>2009-07-05T01:53:05.000+02:00</time>
            </trkpt>
            <trkpt lat="37.762679" lon="-3.607685">
                <ele>1196.978760</ele>
                <time>2009-07-05T01:53:12.000+02:00</time>
            </trkpt>
            <trkpt lat="37.762600" lon="-3.607748">
                <ele>1197.940186</ele>
                <time>2009-07-05T01:53:19.000+02:00</time>
            </trkpt>
            <trkpt lat="37.762553" lon="-3.607762">
                <ele>1198.420654</ele>
                <time>2009-07-05T01:53:23.000+02:00</time>
            </trkpt>
            <trkpt lat="37.762538" lon="-3.607775">
                <ele>1198.901367</ele>
                <time>2009-07-05T01:53:25.000+02:00</time>
            </trkpt>
            <trkpt lat="37.762422" lon="-3.607882">
                <ele>1201.304688</ele>
                <time>2009-07-05T01:53:38.000+02:00</time>
            </trkpt>
            <trkpt lat="37.762268" lon="-3.608026">
                <ele>1204.188721</ele>
                <time>2009-07-05T01:53:52.000+02:00</time>
            </trkpt>
            <trkpt lat="37.762087" lon="-3.608224">
                <ele>1206.111084</ele>
                <time>2009-07-05T01:54:04.000+02:00</time>
            </trkpt>
            <trkpt lat="37.762058" lon="-3.608265">
                <ele>1206.591797</ele>
                <time>2009-07-05T01:54:08.000+02:00</time>
            </trkpt>
            <trkpt lat="37.762010" lon="-3.608332">
                <ele>1208.033936</ele>
                <time>2009-07-05T01:54:13.000+02:00</time>
            </trkpt>
            <trkpt lat="37.761927" lon="-3.608474">
                <ele>1209.956299</ele>
                <time>2009-07-05T01:54:22.000+02:00</time>
            </trkpt>
            <trkpt lat="37.761787" lon="-3.608687">
                <ele>1211.879150</ele>
                <time>2009-07-05T01:54:38.000+02:00</time>
            </trkpt>
            <trkpt lat="37.761747" lon="-3.608710">
                <ele>1212.359863</ele>
                <time>2009-07-05T01:54:41.000+02:00</time>
            </trkpt>
            <trkpt lat="37.761522" lon="-3.608676">
                <ele>1214.763184</ele>
                <time>2009-07-05T01:54:57.000+02:00</time>
            </trkpt>
            <trkpt lat="37.761508" lon="-3.608668">
                <ele>1215.243896</ele>
                <time>2009-07-05T01:54:58.000+02:00</time>
            </trkpt>
            <trkpt lat="37.761331" lon="-3.608534">
                <ele>1217.646973</ele>
                <time>2009-07-05T01:55:12.000+02:00</time>
            </trkpt>
            <trkpt lat="37.761288" lon="-3.608451">
                <ele>1218.127686</ele>
                <time>2009-07-05T01:55:16.000+02:00</time>
            </trkpt>
            <trkpt lat="37.761438" lon="-3.608161">
                <ele>1220.050293</ele>
                <time>2009-07-05T01:55:31.000+02:00</time>
            </trkpt>
            <trkpt lat="37.761682" lon="-3.607957">
                <ele>1221.972900</ele>
                <time>2009-07-05T01:55:47.000+02:00</time>
            </trkpt>
            <trkpt lat="37.761869" lon="-3.607712">
                <ele>1222.934326</ele>
                <time>2009-07-05T01:56:01.000+02:00</time>
            </trkpt>
            <trkpt lat="37.762031" lon="-3.607439">
                <ele>1224.376221</ele>
                <time>2009-07-05T01:56:17.000+02:00</time>
            </trkpt>
            <trkpt lat="37.762253" lon="-3.607077">
                <ele>1227.260254</ele>
                <time>2009-07-05T01:56:35.000+02:00</time>
            </trkpt>
            <trkpt lat="37.762466" lon="-3.606807">
                <ele>1229.663574</ele>
                <time>2009-07-05T01:56:49.000+02:00</time>
            </trkpt>
            <trkpt lat="37.762659" lon="-3.606534">
                <ele>1231.586182</ele>
                <time>2009-07-05T01:57:03.000+02:00</time>
            </trkpt>
            <trkpt lat="37.762918" lon="-3.606161">
                <ele>1233.989502</ele>
                <time>2009-07-05T01:57:21.000+02:00</time>
            </trkpt>
            <trkpt lat="37.763085" lon="-3.605885">
                <ele>1235.912109</ele>
                <time>2009-07-05T01:57:35.000+02:00</time>
            </trkpt>
            <trkpt lat="37.763241" lon="-3.605488">
                <ele>1238.315430</ele>
                <time>2009-07-05T01:57:53.000+02:00</time>
            </trkpt>
            <trkpt lat="37.763243" lon="-3.605392">
                <ele>1238.796143</ele>
                <time>2009-07-05T01:58:07.000+02:00</time>
            </trkpt>
            <trkpt lat="37.763279" lon="-3.605351">
                <ele>1239.276611</ele>
                <time>2009-07-05T01:58:31.000+02:00</time>
            </trkpt>
            <trkpt lat="37.763274" lon="-3.605351">
                <ele>1242.160644</ele>
                <time>2009-07-05T02:05:27.000+02:00</time>
            </trkpt>
            <trkpt lat="37.763267" lon="-3.605472">
                <ele>1242.641357</ele>
                <time>2009-07-05T02:08:01.000+02:00</time>
            </trkpt>
            <trkpt lat="37.763204" lon="-3.605677">
                <ele>1241.679932</ele>
                <time>2009-07-05T02:08:21.000+02:00</time>
            </trkpt>
            <trkpt lat="37.763177" lon="-3.605710">
                <ele>1241.679932</ele>
                <time>2009-07-05T02:08:42.000+02:00</time>
            </trkpt>
            <trkpt lat="37.763176" lon="-3.605755">
                <ele>1241.199219</ele>
                <time>2009-07-05T02:09:00.000+02:00</time>
            </trkpt>
            <trkpt lat="37.762947" lon="-3.606173">
                <ele>1237.354004</ele>
                <time>2009-07-05T02:09:10.000+02:00</time>
            </trkpt>
            <trkpt lat="37.762644" lon="-3.606626">
                <ele>1235.912109</ele>
                <time>2009-07-05T02:09:23.000+02:00</time>
            </trkpt>
            <trkpt lat="37.762482" lon="-3.606821">
                <ele>1234.950928</ele>
                <time>2009-07-05T02:09:34.000+02:00</time>
            </trkpt>
            <trkpt lat="37.762268" lon="-3.607146">
                <ele>1232.066894</ele>
                <time>2009-07-05T02:09:45.000+02:00</time>
            </trkpt>
            <trkpt lat="37.762070" lon="-3.607441">
                <ele>1230.625000</ele>
                <time>2009-07-05T02:09:56.000+02:00</time>
            </trkpt>
            <trkpt lat="37.762055" lon="-3.607447">
                <ele>1230.625000</ele>
                <time>2009-07-05T02:10:06.000+02:00</time>
            </trkpt>
            <trkpt lat="37.762184" lon="-3.607181">
                <ele>1232.066894</ele>
                <time>2009-07-05T02:10:21.000+02:00</time>
            </trkpt>
            <trkpt lat="37.762225" lon="-3.607109">
                <ele>1233.028076</ele>
                <time>2009-07-05T02:10:27.000+02:00</time>
            </trkpt>
            <trkpt lat="37.762285" lon="-3.607049">
                <ele>1233.028076</ele>
                <time>2009-07-05T02:10:32.000+02:00</time>
            </trkpt>
            <trkpt lat="37.762332" lon="-3.606942">
                <ele>1233.989502</ele>
                <time>2009-07-05T02:10:39.000+02:00</time>
            </trkpt>
            <trkpt lat="37.762371" lon="-3.606847">
                <ele>1234.950928</ele>
                <time>2009-07-05T02:10:45.000+02:00</time>
            </trkpt>
            <trkpt lat="37.762412" lon="-3.606788">
                <ele>1235.431396</ele>
                <time>2009-07-05T02:10:49.000+02:00</time>
            </trkpt>
            <trkpt lat="37.762586" lon="-3.606585">
                <ele>1236.873291</ele>
                <time>2009-07-05T02:11:05.000+02:00</time>
            </trkpt>
            <trkpt lat="37.762756" lon="-3.606351">
                <ele>1238.315430</ele>
                <time>2009-07-05T02:11:21.000+02:00</time>
            </trkpt>
            <trkpt lat="37.762904" lon="-3.606162">
                <ele>1239.757324</ele>
                <time>2009-07-05T02:11:36.000+02:00</time>
            </trkpt>
            <trkpt lat="37.763035" lon="-3.605933">
                <ele>1240.718506</ele>
                <time>2009-07-05T02:11:50.000+02:00</time>
            </trkpt>
            <trkpt lat="37.763146" lon="-3.605700">
                <ele>1242.160644</ele>
                <time>2009-07-05T02:12:04.000+02:00</time>
            </trkpt>
            <trkpt lat="37.763225" lon="-3.605519">
                <ele>1243.602539</ele>
                <time>2009-07-05T02:12:18.000+02:00</time>
            </trkpt>
            <trkpt lat="37.763249" lon="-3.605470">
                <ele>1243.602539</ele>
                <time>2009-07-05T02:12:33.000+02:00</time>
            </trkpt>
            <trkpt lat="37.763248" lon="-3.605459">
                <ele>1244.083496</ele>
                <time>2009-07-05T02:12:52.000+02:00</time>
            </trkpt>
            <trkpt lat="37.763254" lon="-3.605458">
                <ele>1246.486816</ele>
                <time>2009-07-05T02:20:03.000+02:00</time>
            </trkpt>
            <trkpt lat="37.763258" lon="-3.605249">
                <ele>1246.967285</ele>
                <time>2009-07-05T02:20:16.000+02:00</time>
            </trkpt>
            <trkpt lat="37.763127" lon="-3.605115">
                <ele>1247.447998</ele>
                <time>2009-07-05T02:20:28.000+02:00</time>
            </trkpt>
            <trkpt lat="37.762980" lon="-3.604994">
                <ele>1247.928711</ele>
                <time>2009-07-05T02:20:40.000+02:00</time>
            </trkpt>
            <trkpt lat="37.762722" lon="-3.604809">
                <ele>1248.409180</ele>
                <time>2009-07-05T02:20:55.000+02:00</time>
            </trkpt>
            <trkpt lat="37.762478" lon="-3.604629">
                <ele>1249.370606</ele>
                <time>2009-07-05T02:21:09.000+02:00</time>
            </trkpt>
            <trkpt lat="37.762386" lon="-3.604433">
                <ele>1249.851318</ele>
                <time>2009-07-05T02:21:21.000+02:00</time>
            </trkpt>
            <trkpt lat="37.762240" lon="-3.604114">
                <ele>1250.812500</ele>
                <time>2009-07-05T02:21:34.000+02:00</time>
            </trkpt>
            <trkpt lat="37.762136" lon="-3.603871">
                <ele>1251.773926</ele>
                <time>2009-07-05T02:21:46.000+02:00</time>
            </trkpt>
            <trkpt lat="37.761920" lon="-3.603633">
                <ele>1252.254394</ele>
                <time>2009-07-05T02:22:00.000+02:00</time>
            </trkpt>
            <trkpt lat="37.761695" lon="-3.603392">
                <ele>1253.215820</ele>
                <time>2009-07-05T02:22:13.000+02:00</time>
            </trkpt>
            <trkpt lat="37.761494" lon="-3.603170">
                <ele>1254.177246</ele>
                <time>2009-07-05T02:22:26.000+02:00</time>
            </trkpt>
            <trkpt lat="37.761251" lon="-3.603003">
                <ele>1255.138428</ele>
                <time>2009-07-05T02:22:39.000+02:00</time>
            </trkpt>
            <trkpt lat="37.760983" lon="-3.602943">
                <ele>1256.099609</ele>
                <time>2009-07-05T02:22:51.000+02:00</time>
            </trkpt>
            <trkpt lat="37.760889" lon="-3.602903">
                <ele>1256.580322</ele>
                <time>2009-07-05T02:22:56.000+02:00</time>
            </trkpt>
            <trkpt lat="37.760648" lon="-3.602819">
                <ele>1258.502930</ele>
                <time>2009-07-05T02:23:11.000+02:00</time>
            </trkpt>
            <trkpt lat="37.760350" lon="-3.602716">
                <ele>1259.464356</ele>
                <time>2009-07-05T02:23:25.000+02:00</time>
            </trkpt>
            <trkpt lat="37.760136" lon="-3.602545">
                <ele>1260.906494</ele>
                <time>2009-07-05T02:23:38.000+02:00</time>
            </trkpt>
            <trkpt lat="37.759894" lon="-3.602349">
                <ele>1261.867920</ele>
                <time>2009-07-05T02:23:50.000+02:00</time>
            </trkpt>
            <trkpt lat="37.759678" lon="-3.602121">
                <ele>1263.309814</ele>
                <time>2009-07-05T02:24:03.000+02:00</time>
            </trkpt>
            <trkpt lat="37.759526" lon="-3.601871">
                <ele>1264.751709</ele>
                <time>2009-07-05T02:24:16.000+02:00</time>
            </trkpt>
            <trkpt lat="37.759374" lon="-3.601635">
                <ele>1266.193604</ele>
                <time>2009-07-05T02:24:27.000+02:00</time>
            </trkpt>
            <trkpt lat="37.759164" lon="-3.601292">
                <ele>1267.155029</ele>
                <time>2009-07-05T02:24:43.000+02:00</time>
            </trkpt>
            <trkpt lat="37.758999" lon="-3.600979">
                <ele>1268.596924</ele>
                <time>2009-07-05T02:24:57.000+02:00</time>
            </trkpt>
            <trkpt lat="37.758828" lon="-3.600696">
                <ele>1269.558350</ele>
                <time>2009-07-05T02:25:11.000+02:00</time>
            </trkpt>
            <trkpt lat="37.758675" lon="-3.600403">
                <ele>1270.038818</ele>
                <time>2009-07-05T02:25:25.000+02:00</time>
            </trkpt>
            <trkpt lat="37.758506" lon="-3.600044">
                <ele>1271.000244</ele>
                <time>2009-07-05T02:25:39.000+02:00</time>
            </trkpt>
            <trkpt lat="37.758347" lon="-3.599703">
                <ele>1271.000244</ele>
                <time>2009-07-05T02:25:53.000+02:00</time>
            </trkpt>
            <trkpt lat="37.758224" lon="-3.599328">
                <ele>1271.480713</ele>
                <time>2009-07-05T02:26:07.000+02:00</time>
            </trkpt>
            <trkpt lat="37.758147" lon="-3.599115">
                <ele>1271.961426</ele>
                <time>2009-07-05T02:26:17.000+02:00</time>
            </trkpt>
            <trkpt lat="37.758097" lon="-3.599033">
                <ele>1271.961426</ele>
                <time>2009-07-05T02:26:20.000+02:00</time>
            </trkpt>
            <trkpt lat="37.758022" lon="-3.598838">
                <ele>1272.442139</ele>
                <time>2009-07-05T02:26:29.000+02:00</time>
            </trkpt>
            <trkpt lat="37.757958" lon="-3.598653">
                <ele>1272.922852</ele>
                <time>2009-07-05T02:26:37.000+02:00</time>
            </trkpt>
            <trkpt lat="37.757893" lon="-3.598486">
                <ele>1273.403564</ele>
                <time>2009-07-05T02:26:44.000+02:00</time>
            </trkpt>
            <trkpt lat="37.757773" lon="-3.598170">
                <ele>1273.884033</ele>
                <time>2009-07-05T02:26:57.000+02:00</time>
            </trkpt>
            <trkpt lat="37.757636" lon="-3.597745">
                <ele>1273.403564</ele>
                <time>2009-07-05T02:27:09.000+02:00</time>
            </trkpt>
            <trkpt lat="37.757493" lon="-3.597335">
                <ele>1272.442139</ele>
                <time>2009-07-05T02:27:20.000+02:00</time>
            </trkpt>
            <trkpt lat="37.757368" lon="-3.596885">
                <ele>1270.519531</ele>
                <time>2009-07-05T02:27:28.000+02:00</time>
            </trkpt>
            <trkpt lat="37.757079" lon="-3.596037">
                <ele>1267.635498</ele>
                <time>2009-07-05T02:27:41.000+02:00</time>
            </trkpt>
            <trkpt lat="37.757012" lon="-3.595823">
                <ele>1266.674316</ele>
                <time>2009-07-05T02:27:44.000+02:00</time>
            </trkpt>
            <trkpt lat="37.756972" lon="-3.595582">
                <ele>1265.713135</ele>
                <time>2009-07-05T02:27:47.000+02:00</time>
            </trkpt>
            <trkpt lat="37.756729" lon="-3.594776">
                <ele>1262.829102</ele>
                <time>2009-07-05T02:27:58.000+02:00</time>
            </trkpt>
            <trkpt lat="37.756439" lon="-3.593885">
                <ele>1259.944824</ele>
                <time>2009-07-05T02:28:09.000+02:00</time>
            </trkpt>
            <trkpt lat="37.756189" lon="-3.593088">
                <ele>1258.022461</ele>
                <time>2009-07-05T02:28:19.000+02:00</time>
            </trkpt>
            <trkpt lat="37.756039" lon="-3.592588">
                <ele>1258.983643</ele>
                <time>2009-07-05T02:28:26.000+02:00</time>
            </trkpt>
            <trkpt lat="37.755882" lon="-3.592093">
                <ele>1260.425781</ele>
                <time>2009-07-05T02:28:37.000+02:00</time>
            </trkpt>
            <trkpt lat="37.755806" lon="-3.591780">
                <ele>1261.867920</ele>
                <time>2009-07-05T02:28:48.000+02:00</time>
            </trkpt>
            <trkpt lat="37.755702" lon="-3.591494">
                <ele>1262.829102</ele>
                <time>2009-07-05T02:29:00.000+02:00</time>
            </trkpt>
            <trkpt lat="37.755586" lon="-3.591144">
                <ele>1264.751709</ele>
                <time>2009-07-05T02:29:13.000+02:00</time>
            </trkpt>
            <trkpt lat="37.755466" lon="-3.590777">
                <ele>1266.674316</ele>
                <time>2009-07-05T02:29:26.000+02:00</time>
            </trkpt>
            <trkpt lat="37.755358" lon="-3.590431">
                <ele>1268.596924</ele>
                <time>2009-07-05T02:29:38.000+02:00</time>
            </trkpt>
            <trkpt lat="37.755245" lon="-3.590017">
                <ele>1270.038818</ele>
                <time>2009-07-05T02:29:52.000+02:00</time>
            </trkpt>
            <trkpt lat="37.755118" lon="-3.589621">
                <ele>1271.961426</ele>
                <time>2009-07-05T02:30:06.000+02:00</time>
            </trkpt>
            <trkpt lat="37.754964" lon="-3.589168">
                <ele>1274.364746</ele>
                <time>2009-07-05T02:30:23.000+02:00</time>
            </trkpt>
            <trkpt lat="37.754866" lon="-3.588879">
                <ele>1275.325928</ele>
                <time>2009-07-05T02:30:35.000+02:00</time>
            </trkpt>
            <trkpt lat="37.754830" lon="-3.588745">
                <ele>1276.287598</ele>
                <time>2009-07-05T02:30:40.000+02:00</time>
            </trkpt>
            <trkpt lat="37.754786" lon="-3.588595">
                <ele>1276.768311</ele>
                <time>2009-07-05T02:30:46.000+02:00</time>
            </trkpt>
            <trkpt lat="37.754682" lon="-3.588261">
                <ele>1278.210205</ele>
                <time>2009-07-05T02:30:59.000+02:00</time>
            </trkpt>
            <trkpt lat="37.754579" lon="-3.587891">
                <ele>1279.652100</ele>
                <time>2009-07-05T02:31:13.000+02:00</time>
            </trkpt>
            <trkpt lat="37.754489" lon="-3.587633">
                <ele>1281.574707</ele>
                <time>2009-07-05T02:31:24.000+02:00</time>
            </trkpt>
            <trkpt lat="37.754420" lon="-3.587454">
                <ele>1283.016602</ele>
                <time>2009-07-05T02:31:32.000+02:00</time>
            </trkpt>
            <trkpt lat="37.754402" lon="-3.587283">
                <ele>1284.458740</ele>
                <time>2009-07-05T02:31:41.000+02:00</time>
            </trkpt>
            <trkpt lat="37.754358" lon="-3.586910">
                <ele>1286.381348</ele>
                <time>2009-07-05T02:31:54.000+02:00</time>
            </trkpt>
            <trkpt lat="37.754425" lon="-3.586575">
                <ele>1288.784668</ele>
                <time>2009-07-05T02:32:09.000+02:00</time>
            </trkpt>
            <trkpt lat="37.754542" lon="-3.586331">
                <ele>1290.226562</ele>
                <time>2009-07-05T02:32:19.000+02:00</time>
            </trkpt>
            <trkpt lat="37.754613" lon="-3.586218">
                <ele>1291.187744</ele>
                <time>2009-07-05T02:32:24.000+02:00</time>
            </trkpt>
            <trkpt lat="37.754646" lon="-3.586116">
                <ele>1291.668457</ele>
                <time>2009-07-05T02:32:30.000+02:00</time>
            </trkpt>
            <trkpt lat="37.754662" lon="-3.586062">
                <ele>1292.149414</ele>
                <time>2009-07-05T02:32:43.000+02:00</time>
            </trkpt>
            <trkpt lat="37.754651" lon="-3.586041">
                <ele>1292.630127</ele>
                <time>2009-07-05T02:33:33.000+02:00</time>
            </trkpt>
            <trkpt lat="37.754652" lon="-3.586021">
                <ele>1294.072021</ele>
                <time>2009-07-05T02:35:05.000+02:00</time>
            </trkpt>
            <trkpt lat="37.754667" lon="-3.585943">
                <ele>1294.552490</ele>
                <time>2009-07-05T02:35:09.000+02:00</time>
            </trkpt>
            <trkpt lat="37.754704" lon="-3.585808">
                <ele>1295.033203</ele>
                <time>2009-07-05T02:35:17.000+02:00</time>
            </trkpt>
            <trkpt lat="37.754718" lon="-3.585602">
                <ele>1296.475342</ele>
                <time>2009-07-05T02:35:30.000+02:00</time>
            </trkpt>
            <trkpt lat="37.754721" lon="-3.585569">
                <ele>1296.475342</ele>
                <time>2009-07-05T02:35:32.000+02:00</time>
            </trkpt>
            <trkpt lat="37.754740" lon="-3.585494">
                <ele>1296.955811</ele>
                <time>2009-07-05T02:35:37.000+02:00</time>
            </trkpt>
            <trkpt lat="37.754809" lon="-3.585359">
                <ele>1297.917236</ele>
                <time>2009-07-05T02:35:44.000+02:00</time>
            </trkpt>
            <trkpt lat="37.754862" lon="-3.585205">
                <ele>1298.878418</ele>
                <time>2009-07-05T02:35:52.000+02:00</time>
            </trkpt>
            <trkpt lat="37.754872" lon="-3.585163">
                <ele>1299.359131</ele>
                <time>2009-07-05T02:35:55.000+02:00</time>
            </trkpt>
            <trkpt lat="37.754922" lon="-3.585023">
                <ele>1300.320557</ele>
                <time>2009-07-05T02:36:05.000+02:00</time>
            </trkpt>
            <trkpt lat="37.754931" lon="-3.584971">
                <ele>1300.320557</ele>
                <time>2009-07-05T02:36:08.000+02:00</time>
            </trkpt>
            <trkpt lat="37.755000" lon="-3.584832">
                <ele>1301.762451</ele>
                <time>2009-07-05T02:36:17.000+02:00</time>
            </trkpt>
            <trkpt lat="37.755042" lon="-3.584786">
                <ele>1301.762451</ele>
                <time>2009-07-05T02:36:20.000+02:00</time>
            </trkpt>
            <trkpt lat="37.755080" lon="-3.584685">
                <ele>1302.723633</ele>
                <time>2009-07-05T02:36:27.000+02:00</time>
            </trkpt>
            <trkpt lat="37.755123" lon="-3.584621">
                <ele>1303.204346</ele>
                <time>2009-07-05T02:36:31.000+02:00</time>
            </trkpt>
            <trkpt lat="37.755228" lon="-3.584379">
                <ele>1305.126953</ele>
                <time>2009-07-05T02:36:46.000+02:00</time>
            </trkpt>
            <trkpt lat="37.755231" lon="-3.584370">
                <ele>1305.126953</ele>
                <time>2009-07-05T02:36:47.000+02:00</time>
            </trkpt>
            <trkpt lat="37.755275" lon="-3.584256">
                <ele>1306.088135</ele>
                <time>2009-07-05T02:36:54.000+02:00</time>
            </trkpt>
            <trkpt lat="37.755332" lon="-3.584131">
                <ele>1307.049561</ele>
                <time>2009-07-05T02:37:02.000+02:00</time>
            </trkpt>
            <trkpt lat="37.755408" lon="-3.583954">
                <ele>1308.011231</ele>
                <time>2009-07-05T02:37:12.000+02:00</time>
            </trkpt>
            <trkpt lat="37.755452" lon="-3.583853">
                <ele>1308.491699</ele>
                <time>2009-07-05T02:37:18.000+02:00</time>
            </trkpt>
            <trkpt lat="37.755465" lon="-3.583825">
                <ele>1308.972412</ele>
                <time>2009-07-05T02:37:20.000+02:00</time>
            </trkpt>
            <trkpt lat="37.755498" lon="-3.583720">
                <ele>1309.933594</ele>
                <time>2009-07-05T02:37:27.000+02:00</time>
            </trkpt>
            <trkpt lat="37.755542" lon="-3.583655">
                <ele>1310.414307</ele>
                <time>2009-07-05T02:37:32.000+02:00</time>
            </trkpt>
            <trkpt lat="37.755698" lon="-3.583425">
                <ele>1312.336914</ele>
                <time>2009-07-05T02:37:48.000+02:00</time>
            </trkpt>
            <trkpt lat="37.755786" lon="-3.583282">
                <ele>1313.298340</ele>
                <time>2009-07-05T02:37:58.000+02:00</time>
            </trkpt>
            <trkpt lat="37.755957" lon="-3.583049">
                <ele>1315.220947</ele>
                <time>2009-07-05T02:38:13.000+02:00</time>
            </trkpt>
            <trkpt lat="37.756151" lon="-3.582831">
                <ele>1317.143555</ele>
                <time>2009-07-05T02:38:27.000+02:00</time>
            </trkpt>
            <trkpt lat="37.756341" lon="-3.582659">
                <ele>1319.066162</ele>
                <time>2009-07-05T02:38:42.000+02:00</time>
            </trkpt>
            <trkpt lat="37.756588" lon="-3.582515">
                <ele>1321.469238</ele>
                <time>2009-07-05T02:38:57.000+02:00</time>
            </trkpt>
            <trkpt lat="37.756817" lon="-3.582434">
                <ele>1323.392090</ele>
                <time>2009-07-05T02:39:11.000+02:00</time>
            </trkpt>
            <trkpt lat="37.757063" lon="-3.582320">
                <ele>1325.314697</ele>
                <time>2009-07-05T02:39:27.000+02:00</time>
            </trkpt>
            <trkpt lat="37.757283" lon="-3.582156">
                <ele>1327.237549</ele>
                <time>2009-07-05T02:39:42.000+02:00</time>
            </trkpt>
            <trkpt lat="37.757492" lon="-3.581901">
                <ele>1329.159912</ele>
                <time>2009-07-05T02:39:59.000+02:00</time>
            </trkpt>
            <trkpt lat="37.757531" lon="-3.581840">
                <ele>1329.640625</ele>
                <time>2009-07-05T02:40:03.000+02:00</time>
            </trkpt>
            <trkpt lat="37.757622" lon="-3.581549">
                <ele>1332.043945</ele>
                <time>2009-07-05T02:40:19.000+02:00</time>
            </trkpt>
            <trkpt lat="37.757655" lon="-3.581467">
                <ele>1332.524658</ele>
                <time>2009-07-05T02:40:23.000+02:00</time>
            </trkpt>
            <trkpt lat="37.757696" lon="-3.581181">
                <ele>1334.447266</ele>
                <time>2009-07-05T02:40:37.000+02:00</time>
            </trkpt>
            <trkpt lat="37.757724" lon="-3.581062">
                <ele>1335.408447</ele>
                <time>2009-07-05T02:40:45.000+02:00</time>
            </trkpt>
            <trkpt lat="37.757776" lon="-3.581006">
                <ele>1334.927979</ele>
                <time>2009-07-05T02:40:57.000+02:00</time>
            </trkpt>
            <trkpt lat="37.757753" lon="-3.581001">
                <ele>1334.927979</ele>
                <time>2009-07-05T02:41:14.000+02:00</time>
            </trkpt>
            <trkpt lat="37.757690" lon="-3.580883">
                <ele>1336.369873</ele>
                <time>2009-07-05T02:41:21.000+02:00</time>
            </trkpt>
            <trkpt lat="37.757694" lon="-3.580829">
                <ele>1336.369873</ele>
                <time>2009-07-05T02:41:24.000+02:00</time>
            </trkpt>
            <trkpt lat="37.757700" lon="-3.580751">
                <ele>1336.850342</ele>
                <time>2009-07-05T02:41:40.000+02:00</time>
            </trkpt>
            <trkpt lat="37.757683" lon="-3.580756">
                <ele>1336.369873</ele>
                <time>2009-07-05T02:42:55.000+02:00</time>
            </trkpt>
            <trkpt lat="37.757671" lon="-3.580729">
                <ele>1337.811768</ele>
                <time>2009-07-05T02:43:42.000+02:00</time>
            </trkpt>
            <trkpt lat="37.757635" lon="-3.580465">
                <ele>1339.734375</ele>
                <time>2009-07-05T02:45:08.000+02:00</time>
            </trkpt>
            <trkpt lat="37.757643" lon="-3.580266">
                <ele>1341.176514</ele>
                <time>2009-07-05T02:45:19.000+02:00</time>
            </trkpt>
            <trkpt lat="37.757676" lon="-3.579976">
                <ele>1343.099121</ele>
                <time>2009-07-05T02:45:34.000+02:00</time>
            </trkpt>
            <trkpt lat="37.757678" lon="-3.579798">
                <ele>1344.060547</ele>
                <time>2009-07-05T02:45:43.000+02:00</time>
            </trkpt>
            <trkpt lat="37.757707" lon="-3.579722">
                <ele>1344.541016</ele>
                <time>2009-07-05T02:45:47.000+02:00</time>
            </trkpt>
            <trkpt lat="37.757751" lon="-3.579588">
                <ele>1345.502441</ele>
                <time>2009-07-05T02:45:53.000+02:00</time>
            </trkpt>
            <trkpt lat="37.757777" lon="-3.579473">
                <ele>1345.983154</ele>
                <time>2009-07-05T02:45:59.000+02:00</time>
            </trkpt>
            <trkpt lat="37.757831" lon="-3.579196">
                <ele>1347.425049</ele>
                <time>2009-07-05T02:46:13.000+02:00</time>
            </trkpt>
            <trkpt lat="37.757834" lon="-3.578899">
                <ele>1349.347656</ele>
                <time>2009-07-05T02:46:28.000+02:00</time>
            </trkpt>
            <trkpt lat="37.757837" lon="-3.578632">
                <ele>1351.270264</ele>
                <time>2009-07-05T02:46:43.000+02:00</time>
            </trkpt>
            <trkpt lat="37.757855" lon="-3.578526">
                <ele>1352.231445</ele>
                <time>2009-07-05T02:46:48.000+02:00</time>
            </trkpt>
            <trkpt lat="37.757865" lon="-3.578435">
                <ele>1352.712158</ele>
                <time>2009-07-05T02:46:54.000+02:00</time>
            </trkpt>
            <trkpt lat="37.757847" lon="-3.578302">
                <ele>1353.673584</ele>
                <time>2009-07-05T02:47:01.000+02:00</time>
            </trkpt>
            <trkpt lat="37.757819" lon="-3.578182">
                <ele>1354.634766</ele>
                <time>2009-07-05T02:47:08.000+02:00</time>
            </trkpt>
            <trkpt lat="37.757731" lon="-3.577971">
                <ele>1356.076904</ele>
                <time>2009-07-05T02:47:21.000+02:00</time>
            </trkpt>
            <trkpt lat="37.757638" lon="-3.577760">
                <ele>1357.519043</ele>
                <time>2009-07-05T02:47:35.000+02:00</time>
            </trkpt>
            <trkpt lat="37.757495" lon="-3.577511">
                <ele>1359.922119</ele>
                <time>2009-07-05T02:47:52.000+02:00</time>
            </trkpt>
            <trkpt lat="37.757306" lon="-3.577272">
                <ele>1361.844971</ele>
                <time>2009-07-05T02:48:09.000+02:00</time>
            </trkpt>
            <trkpt lat="37.757248" lon="-3.577184">
                <ele>1362.806152</ele>
                <time>2009-07-05T02:48:15.000+02:00</time>
            </trkpt>
            <trkpt lat="37.757067" lon="-3.577023">
                <ele>1364.728760</ele>
                <time>2009-07-05T02:48:30.000+02:00</time>
            </trkpt>
            <trkpt lat="37.757062" lon="-3.577008">
                <ele>1364.728760</ele>
                <time>2009-07-05T02:48:31.000+02:00</time>
            </trkpt>
            <trkpt lat="37.757021" lon="-3.576893">
                <ele>1365.209473</ele>
                <time>2009-07-05T02:48:37.000+02:00</time>
            </trkpt>
            <trkpt lat="37.756954" lon="-3.576628">
                <ele>1366.651367</ele>
                <time>2009-07-05T02:48:50.000+02:00</time>
            </trkpt>
            <trkpt lat="37.756891" lon="-3.576325">
                <ele>1368.093262</ele>
                <time>2009-07-05T02:49:05.000+02:00</time>
            </trkpt>
            <trkpt lat="37.756853" lon="-3.576078">
                <ele>1369.054688</ele>
                <time>2009-07-05T02:49:18.000+02:00</time>
            </trkpt>
            <trkpt lat="37.756803" lon="-3.575779">
                <ele>1370.496582</ele>
                <time>2009-07-05T02:49:32.000+02:00</time>
            </trkpt>
            <trkpt lat="37.756788" lon="-3.575503">
                <ele>1371.457764</ele>
                <time>2009-07-05T02:49:45.000+02:00</time>
            </trkpt>
            <trkpt lat="37.756751" lon="-3.575160">
                <ele>1372.900146</ele>
                <time>2009-07-05T02:50:00.000+02:00</time>
            </trkpt>
            <trkpt lat="37.756737" lon="-3.574823">
                <ele>1374.342041</ele>
                <time>2009-07-05T02:50:15.000+02:00</time>
            </trkpt>
            <trkpt lat="37.756717" lon="-3.574566">
                <ele>1375.303223</ele>
                <time>2009-07-05T02:50:26.000+02:00</time>
            </trkpt>
            <trkpt lat="37.756708" lon="-3.574256">
                <ele>1376.745361</ele>
                <time>2009-07-05T02:50:40.000+02:00</time>
            </trkpt>
            <trkpt lat="37.756695" lon="-3.573958">
                <ele>1377.706543</ele>
                <time>2009-07-05T02:50:53.000+02:00</time>
            </trkpt>
            <trkpt lat="37.756691" lon="-3.573590">
                <ele>1379.629150</ele>
                <time>2009-07-05T02:51:09.000+02:00</time>
            </trkpt>
            <trkpt lat="37.756663" lon="-3.573251">
                <ele>1381.071289</ele>
                <time>2009-07-05T02:51:24.000+02:00</time>
            </trkpt>
            <trkpt lat="37.756644" lon="-3.572941">
                <ele>1382.513184</ele>
                <time>2009-07-05T02:51:40.000+02:00</time>
            </trkpt>
            <trkpt lat="37.756615" lon="-3.572710">
                <ele>1383.955078</ele>
                <time>2009-07-05T02:51:52.000+02:00</time>
            </trkpt>
            <trkpt lat="37.756631" lon="-3.572366">
                <ele>1385.877686</ele>
                <time>2009-07-05T02:52:08.000+02:00</time>
            </trkpt>
            <trkpt lat="37.756678" lon="-3.572055">
                <ele>1387.319580</ele>
                <time>2009-07-05T02:52:22.000+02:00</time>
            </trkpt>
            <trkpt lat="37.756715" lon="-3.571750">
                <ele>1388.761963</ele>
                <time>2009-07-05T02:52:35.000+02:00</time>
            </trkpt>
            <trkpt lat="37.756735" lon="-3.571385">
                <ele>1390.684326</ele>
                <time>2009-07-05T02:52:50.000+02:00</time>
            </trkpt>
            <trkpt lat="37.756860" lon="-3.571087">
                <ele>1391.645752</ele>
                <time>2009-07-05T02:53:04.000+02:00</time>
            </trkpt>
            <trkpt lat="37.757049" lon="-3.570915">
                <ele>1393.087646</ele>
                <time>2009-07-05T02:53:16.000+02:00</time>
            </trkpt>
            <trkpt lat="37.757297" lon="-3.570808">
                <ele>1394.529541</ele>
                <time>2009-07-05T02:53:30.000+02:00</time>
            </trkpt>
            <trkpt lat="37.757570" lon="-3.570639">
                <ele>1396.452393</ele>
                <time>2009-07-05T02:53:46.000+02:00</time>
            </trkpt>
            <trkpt lat="37.757674" lon="-3.570428">
                <ele>1397.894287</ele>
                <time>2009-07-05T02:54:01.000+02:00</time>
            </trkpt>
            <trkpt lat="37.757701" lon="-3.570378">
                <ele>1397.894287</ele>
                <time>2009-07-05T02:54:27.000+02:00</time>
            </trkpt>
            <trkpt lat="37.757683" lon="-3.570381">
                <ele>1397.894287</ele>
                <time>2009-07-05T02:54:46.000+02:00</time>
            </trkpt>
            <trkpt lat="37.757672" lon="-3.570376">
                <ele>1400.778076</ele>
                <time>2009-07-05T03:27:27.000+02:00</time>
            </trkpt>
            <trkpt lat="37.757682" lon="-3.570357">
                <ele>1401.258789</ele>
                <time>2009-07-05T04:00:27.000+02:00</time>
            </trkpt>
            <trkpt lat="37.757885" lon="-3.570070">
                <ele>1400.297607</ele>
                <time>2009-07-05T04:00:41.000+02:00</time>
            </trkpt>
            <trkpt lat="37.758127" lon="-3.569628">
                <ele>1398.374756</ele>
                <time>2009-07-05T04:00:55.000+02:00</time>
            </trkpt>
            <trkpt lat="37.758454" lon="-3.568925">
                <ele>1395.490967</ele>
                <time>2009-07-05T04:01:12.000+02:00</time>
            </trkpt>
            <trkpt lat="37.758734" lon="-3.568234">
                <ele>1392.607178</ele>
                <time>2009-07-05T04:01:25.000+02:00</time>
            </trkpt>
            <trkpt lat="37.758815" lon="-3.567912">
                <ele>1391.645752</ele>
                <time>2009-07-05T04:01:36.000+02:00</time>
            </trkpt>
            <trkpt lat="37.758832" lon="-3.567816">
                <ele>1391.165039</ele>
                <time>2009-07-05T04:01:47.000+02:00</time>
            </trkpt>
            <trkpt lat="37.758833" lon="-3.567812">
                <ele>1391.165039</ele>
                <time>2009-07-05T04:01:51.000+02:00</time>
            </trkpt>
            <trkpt lat="37.758902" lon="-3.567575">
                <ele>1389.723144</ele>
                <time>2009-07-05T04:01:58.000+02:00</time>
            </trkpt>
            <trkpt lat="37.758979" lon="-3.566772">
                <ele>1385.396973</ele>
                <time>2009-07-05T04:02:10.000+02:00</time>
            </trkpt>
            <trkpt lat="37.758976" lon="-3.566629">
                <ele>1384.916504</ele>
                <time>2009-07-05T04:02:12.000+02:00</time>
            </trkpt>
            <trkpt lat="37.758952" lon="-3.566424">
                <ele>1384.435791</ele>
                <time>2009-07-05T04:02:16.000+02:00</time>
            </trkpt>
            <trkpt lat="37.758933" lon="-3.565825">
                <ele>1381.551758</ele>
                <time>2009-07-05T04:02:28.000+02:00</time>
            </trkpt>
            <trkpt lat="37.758931" lon="-3.565586">
                <ele>1381.071289</ele>
                <time>2009-07-05T04:02:32.000+02:00</time>
            </trkpt>
            <trkpt lat="37.759119" lon="-3.564859">
                <ele>1378.667969</ele>
                <time>2009-07-05T04:02:42.000+02:00</time>
            </trkpt>
            <trkpt lat="37.759153" lon="-3.564554">
                <ele>1376.745361</ele>
                <time>2009-07-05T04:02:46.000+02:00</time>
            </trkpt>
            <trkpt lat="37.759380" lon="-3.563805">
                <ele>1374.822754</ele>
                <time>2009-07-05T04:02:57.000+02:00</time>
            </trkpt>
            <trkpt lat="37.759422" lon="-3.563676">
                <ele>1374.342041</ele>
                <time>2009-07-05T04:02:59.000+02:00</time>
            </trkpt>
            <trkpt lat="37.759459" lon="-3.563530">
                <ele>1373.380859</ele>
                <time>2009-07-05T04:03:01.000+02:00</time>
            </trkpt>
            <trkpt lat="37.759482" lon="-3.563381">
                <ele>1372.900146</ele>
                <time>2009-07-05T04:03:03.000+02:00</time>
            </trkpt>
            <trkpt lat="37.759475" lon="-3.562341">
                <ele>1371.938477</ele>
                <time>2009-07-05T04:03:18.000+02:00</time>
            </trkpt>
            <trkpt lat="37.759498" lon="-3.561740">
                <ele>1370.977295</ele>
                <time>2009-07-05T04:03:27.000+02:00</time>
            </trkpt>
            <trkpt lat="37.759454" lon="-3.561505">
                <ele>1370.496582</ele>
                <time>2009-07-05T04:03:31.000+02:00</time>
            </trkpt>
            <trkpt lat="37.759444" lon="-3.561381">
                <ele>1370.015869</ele>
                <time>2009-07-05T04:03:33.000+02:00</time>
            </trkpt>
            <trkpt lat="37.759370" lon="-3.561090">
                <ele>1369.054688</ele>
                <time>2009-07-05T04:03:38.000+02:00</time>
            </trkpt>
            <trkpt lat="37.759273" lon="-3.560607">
                <ele>1367.132080</ele>
                <time>2009-07-05T04:03:45.000+02:00</time>
            </trkpt>
            <trkpt lat="37.759226" lon="-3.560401">
                <ele>1366.651367</ele>
                <time>2009-07-05T04:03:48.000+02:00</time>
            </trkpt>
            <trkpt lat="37.759118" lon="-3.559771">
                <ele>1364.728760</ele>
                <time>2009-07-05T04:03:57.000+02:00</time>
            </trkpt>
            <trkpt lat="37.759067" lon="-3.559438">
                <ele>1363.767334</ele>
                <time>2009-07-05T04:04:02.000+02:00</time>
            </trkpt>
            <trkpt lat="37.758988" lon="-3.559137">
                <ele>1363.286865</ele>
                <time>2009-07-05T04:04:07.000+02:00</time>
            </trkpt>
            <trkpt lat="37.758967" lon="-3.559022">
                <ele>1362.325439</ele>
                <time>2009-07-05T04:04:09.000+02:00</time>
            </trkpt>
            <trkpt lat="37.758723" lon="-3.558567">
                <ele>1361.364258</ele>
                <time>2009-07-05T04:04:19.000+02:00</time>
            </trkpt>
            <trkpt lat="37.758545" lon="-3.558489">
                <ele>1360.402832</ele>
                <time>2009-07-05T04:04:23.000+02:00</time>
            </trkpt>
            <trkpt lat="37.757924" lon="-3.558246">
                <ele>1357.038330</ele>
                <time>2009-07-05T04:04:35.000+02:00</time>
            </trkpt>
            <trkpt lat="37.757426" lon="-3.558058">
                <ele>1354.154297</ele>
                <time>2009-07-05T04:04:45.000+02:00</time>
            </trkpt>
            <trkpt lat="37.757060" lon="-3.558021">
                <ele>1351.270264</ele>
                <time>2009-07-05T04:04:51.000+02:00</time>
            </trkpt>
            <trkpt lat="37.756471" lon="-3.557940">
                <ele>1349.347656</ele>
                <time>2009-07-05T04:05:01.000+02:00</time>
            </trkpt>
            <trkpt lat="37.755522" lon="-3.557795">
                <ele>1345.983154</ele>
                <time>2009-07-05T04:05:19.000+02:00</time>
            </trkpt>
            <trkpt lat="37.755478" lon="-3.557780">
                <ele>1345.983154</ele>
                <time>2009-07-05T04:05:20.000+02:00</time>
            </trkpt>
            <trkpt lat="37.755165" lon="-3.557792">
                <ele>1345.983154</ele>
                <time>2009-07-05T04:05:27.000+02:00</time>
            </trkpt>
            <trkpt lat="37.754989" lon="-3.557844">
                <ele>1345.021729</ele>
                <time>2009-07-05T04:05:31.000+02:00</time>
            </trkpt>
            <trkpt lat="37.754284" lon="-3.558240">
                <ele>1342.137939</ele>
                <time>2009-07-05T04:05:45.000+02:00</time>
            </trkpt>
            <trkpt lat="37.753604" lon="-3.558635">
                <ele>1339.253662</ele>
                <time>2009-07-05T04:06:00.000+02:00</time>
            </trkpt>
            <trkpt lat="37.753423" lon="-3.558745">
                <ele>1338.292481</ele>
                <time>2009-07-05T04:06:05.000+02:00</time>
            </trkpt>
            <trkpt lat="37.753287" lon="-3.558771">
                <ele>1337.811768</ele>
                <time>2009-07-05T04:06:08.000+02:00</time>
            </trkpt>
            <trkpt lat="37.752767" lon="-3.558630">
                <ele>1334.927979</ele>
                <time>2009-07-05T04:06:21.000+02:00</time>
            </trkpt>
            <trkpt lat="37.752556" lon="-3.558610">
                <ele>1333.966553</ele>
                <time>2009-07-05T04:06:25.000+02:00</time>
            </trkpt>
            <trkpt lat="37.752233" lon="-3.558702">
                <ele>1332.524658</ele>
                <time>2009-07-05T04:06:31.000+02:00</time>
            </trkpt>
            <trkpt lat="37.751874" lon="-3.558980">
                <ele>1330.602051</ele>
                <time>2009-07-05T04:06:38.000+02:00</time>
            </trkpt>
            <trkpt lat="37.751774" lon="-3.559132">
                <ele>1329.640625</ele>
                <time>2009-07-05T04:06:41.000+02:00</time>
            </trkpt>
            <trkpt lat="37.751344" lon="-3.559604">
                <ele>1327.718018</ele>
                <time>2009-07-05T04:06:51.000+02:00</time>
            </trkpt>
            <trkpt lat="37.751179" lon="-3.559714">
                <ele>1327.237549</ele>
                <time>2009-07-05T04:06:55.000+02:00</time>
            </trkpt>
            <trkpt lat="37.750772" lon="-3.559562">
                <ele>1324.834229</ele>
                <time>2009-07-05T04:07:05.000+02:00</time>
            </trkpt>
            <trkpt lat="37.750389" lon="-3.559034">
                <ele>1321.469238</ele>
                <time>2009-07-05T04:07:16.000+02:00</time>
            </trkpt>
            <trkpt lat="37.750306" lon="-3.558919">
                <ele>1320.988769</ele>
                <time>2009-07-05T04:07:18.000+02:00</time>
            </trkpt>
            <trkpt lat="37.750068" lon="-3.558620">
                <ele>1319.546875</ele>
                <time>2009-07-05T04:07:24.000+02:00</time>
            </trkpt>
            <trkpt lat="37.749943" lon="-3.558519">
                <ele>1318.104736</ele>
                <time>2009-07-05T04:07:27.000+02:00</time>
            </trkpt>
            <trkpt lat="37.749805" lon="-3.558447">
                <ele>1318.104736</ele>
                <time>2009-07-05T04:07:30.000+02:00</time>
            </trkpt>
            <trkpt lat="37.749112" lon="-3.558362">
                <ele>1314.259521</ele>
                <time>2009-07-05T04:07:45.000+02:00</time>
            </trkpt>
            <trkpt lat="37.748802" lon="-3.558117">
                <ele>1311.856445</ele>
                <time>2009-07-05T04:07:53.000+02:00</time>
            </trkpt>
            <trkpt lat="37.748468" lon="-3.557399">
                <ele>1308.972412</ele>
                <time>2009-07-05T04:08:04.000+02:00</time>
            </trkpt>
            <trkpt lat="37.748442" lon="-3.557331">
                <ele>1308.491699</ele>
                <time>2009-07-05T04:08:05.000+02:00</time>
            </trkpt>
            <trkpt lat="37.748369" lon="-3.557027">
                <ele>1307.530273</ele>
                <time>2009-07-05T04:08:09.000+02:00</time>
            </trkpt>
            <trkpt lat="37.748424" lon="-3.555961">
                <ele>1305.607666</ele>
                <time>2009-07-05T04:08:23.000+02:00</time>
            </trkpt>
            <trkpt lat="37.748463" lon="-3.555795">
                <ele>1304.646240</ele>
                <time>2009-07-05T04:08:25.000+02:00</time>
            </trkpt>
            <trkpt lat="37.748685" lon="-3.555316">
                <ele>1302.242920</ele>
                <time>2009-07-05T04:08:32.000+02:00</time>
            </trkpt>
            <trkpt lat="37.748791" lon="-3.555199">
                <ele>1301.762451</ele>
                <time>2009-07-05T04:08:34.000+02:00</time>
            </trkpt>
            <trkpt lat="37.748837" lon="-3.555147">
                <ele>1301.762451</ele>
                <time>2009-07-05T04:08:35.000+02:00</time>
            </trkpt>
            <trkpt lat="37.749050" lon="-3.554643">
                <ele>1299.359131</ele>
                <time>2009-07-05T04:08:42.000+02:00</time>
            </trkpt>
            <trkpt lat="37.748907" lon="-3.554024">
                <ele>1295.033203</ele>
                <time>2009-07-05T04:08:50.000+02:00</time>
            </trkpt>
            <trkpt lat="37.748526" lon="-3.553576">
                <ele>1291.668457</ele>
                <time>2009-07-05T04:08:57.000+02:00</time>
            </trkpt>
            <trkpt lat="37.748414" lon="-3.553469">
                <ele>1291.668457</ele>
                <time>2009-07-05T04:08:59.000+02:00</time>
            </trkpt>
            <trkpt lat="37.747906" lon="-3.553328">
                <ele>1289.745850</ele>
                <time>2009-07-05T04:09:07.000+02:00</time>
            </trkpt>
            <trkpt lat="37.747520" lon="-3.553394">
                <ele>1289.745850</ele>
                <time>2009-07-05T04:09:13.000+02:00</time>
            </trkpt>
            <trkpt lat="37.746735" lon="-3.553877">
                <ele>1287.823242</ele>
                <time>2009-07-05T04:09:29.000+02:00</time>
            </trkpt>
            <trkpt lat="37.746436" lon="-3.554058">
                <ele>1286.381348</ele>
                <time>2009-07-05T04:09:37.000+02:00</time>
            </trkpt>
            <trkpt lat="37.746059" lon="-3.553948">
                <ele>1284.939453</ele>
                <time>2009-07-05T04:09:45.000+02:00</time>
            </trkpt>
            <trkpt lat="37.745397" lon="-3.553490">
                <ele>1281.574707</ele>
                <time>2009-07-05T04:09:58.000+02:00</time>
            </trkpt>
            <trkpt lat="37.744573" lon="-3.553293">
                <ele>1279.652100</ele>
                <time>2009-07-05T04:10:11.000+02:00</time>
            </trkpt>
            <trkpt lat="37.744012" lon="-3.553364">
                <ele>1280.613525</ele>
                <time>2009-07-05T04:10:23.000+02:00</time>
            </trkpt>
            <trkpt lat="37.743672" lon="-3.553459">
                <ele>1283.016602</ele>
                <time>2009-07-05T04:10:37.000+02:00</time>
            </trkpt>
            <trkpt lat="37.743634" lon="-3.553466">
                <ele>1283.497314</ele>
                <time>2009-07-05T04:10:53.000+02:00</time>
            </trkpt>
            <trkpt lat="37.743642" lon="-3.553427">
                <ele>1283.016602</ele>
                <time>2009-07-05T04:11:08.000+02:00</time>
            </trkpt>
            <trkpt lat="37.743386" lon="-3.553504">
                <ele>1283.497314</ele>
                <time>2009-07-05T04:14:49.000+02:00</time>
            </trkpt>
            <trkpt lat="37.743288" lon="-3.553515">
                <ele>1283.978027</ele>
                <time>2009-07-05T04:14:51.000+02:00</time>
            </trkpt>
            <trkpt lat="37.743012" lon="-3.553367">
                <ele>1284.939453</ele>
                <time>2009-07-05T04:14:57.000+02:00</time>
            </trkpt>
            <trkpt lat="37.742869" lon="-3.553109">
                <ele>1285.900635</ele>
                <time>2009-07-05T04:15:02.000+02:00</time>
            </trkpt>
            <trkpt lat="37.742803" lon="-3.552882">
                <ele>1287.342529</ele>
                <time>2009-07-05T04:15:06.000+02:00</time>
            </trkpt>
            <trkpt lat="37.742794" lon="-3.552554">
                <ele>1288.303955</ele>
                <time>2009-07-05T04:15:12.000+02:00</time>
            </trkpt>
            <trkpt lat="37.743000" lon="-3.552027">
                <ele>1291.668457</ele>
                <time>2009-07-05T04:15:27.000+02:00</time>
            </trkpt>
            <trkpt lat="37.743173" lon="-3.551675">
                <ele>1294.072021</ele>
                <time>2009-07-05T04:15:40.000+02:00</time>
            </trkpt>
            <trkpt lat="37.743310" lon="-3.551373">
                <ele>1296.475342</ele>
                <time>2009-07-05T04:15:55.000+02:00</time>
            </trkpt>
            <trkpt lat="37.743478" lon="-3.551104">
                <ele>1298.878418</ele>
                <time>2009-07-05T04:16:08.000+02:00</time>
            </trkpt>
            <trkpt lat="37.743673" lon="-3.550807">
                <ele>1300.801025</ele>
                <time>2009-07-05T04:16:23.000+02:00</time>
            </trkpt>
            <trkpt lat="37.743771" lon="-3.550504">
                <ele>1302.723633</ele>
                <time>2009-07-05T04:16:37.000+02:00</time>
            </trkpt>
            <trkpt lat="37.743868" lon="-3.550195">
                <ele>1305.126953</ele>
                <time>2009-07-05T04:16:52.000+02:00</time>
            </trkpt>
            <trkpt lat="37.743951" lon="-3.549822">
                <ele>1307.530273</ele>
                <time>2009-07-05T04:17:08.000+02:00</time>
            </trkpt>
            <trkpt lat="37.744029" lon="-3.549460">
                <ele>1309.933594</ele>
                <time>2009-07-05T04:17:23.000+02:00</time>
            </trkpt>
            <trkpt lat="37.744167" lon="-3.549114">
                <ele>1312.336914</ele>
                <time>2009-07-05T04:17:39.000+02:00</time>
            </trkpt>
            <trkpt lat="37.744305" lon="-3.548763">
                <ele>1314.740234</ele>
                <time>2009-07-05T04:17:55.000+02:00</time>
            </trkpt>
            <trkpt lat="37.744341" lon="-3.548431">
                <ele>1316.662842</ele>
                <time>2009-07-05T04:18:10.000+02:00</time>
            </trkpt>
            <trkpt lat="37.744267" lon="-3.548102">
                <ele>1318.585449</ele>
                <time>2009-07-05T04:18:22.000+02:00</time>
            </trkpt>
            <trkpt lat="37.744134" lon="-3.547850">
                <ele>1320.508057</ele>
                <time>2009-07-05T04:18:36.000+02:00</time>
            </trkpt>
            <trkpt lat="37.743980" lon="-3.547589">
                <ele>1322.430664</ele>
                <time>2009-07-05T04:18:49.000+02:00</time>
            </trkpt>
            <trkpt lat="37.743955" lon="-3.547475">
                <ele>1323.392090</ele>
                <time>2009-07-05T04:18:56.000+02:00</time>
            </trkpt>
            <trkpt lat="37.743863" lon="-3.547197">
                <ele>1325.314697</ele>
                <time>2009-07-05T04:19:12.000+02:00</time>
            </trkpt>
            <trkpt lat="37.743799" lon="-3.546904">
                <ele>1327.237549</ele>
                <time>2009-07-05T04:19:27.000+02:00</time>
            </trkpt>
            <trkpt lat="37.743812" lon="-3.546709">
                <ele>1328.198731</ele>
                <time>2009-07-05T04:19:35.000+02:00</time>
            </trkpt>
            <trkpt lat="37.743832" lon="-3.546626">
                <ele>1328.679443</ele>
                <time>2009-07-05T04:19:39.000+02:00</time>
            </trkpt>
            <trkpt lat="37.743839" lon="-3.546581">
                <ele>1329.159912</ele>
                <time>2009-07-05T04:19:42.000+02:00</time>
            </trkpt>
            <trkpt lat="37.743876" lon="-3.546511">
                <ele>1329.640625</ele>
                <time>2009-07-05T04:19:47.000+02:00</time>
            </trkpt>
            <trkpt lat="37.744033" lon="-3.546214">
                <ele>1332.043945</ele>
                <time>2009-07-05T04:20:05.000+02:00</time>
            </trkpt>
            <trkpt lat="37.744190" lon="-3.545996">
                <ele>1333.485840</ele>
                <time>2009-07-05T04:20:19.000+02:00</time>
            </trkpt>
            <trkpt lat="37.744361" lon="-3.545790">
                <ele>1335.889160</ele>
                <time>2009-07-05T04:20:35.000+02:00</time>
            </trkpt>
            <trkpt lat="37.744525" lon="-3.545547">
                <ele>1337.811768</ele>
                <time>2009-07-05T04:20:51.000+02:00</time>
            </trkpt>
            <trkpt lat="37.744632" lon="-3.545301">
                <ele>1339.253662</ele>
                <time>2009-07-05T04:21:05.000+02:00</time>
            </trkpt>
            <trkpt lat="37.744724" lon="-3.545048">
                <ele>1341.176514</ele>
                <time>2009-07-05T04:21:20.000+02:00</time>
            </trkpt>
            <trkpt lat="37.744795" lon="-3.544804">
                <ele>1342.618652</ele>
                <time>2009-07-05T04:21:33.000+02:00</time>
            </trkpt>
            <trkpt lat="37.744849" lon="-3.544529">
                <ele>1344.060547</ele>
                <time>2009-07-05T04:21:48.000+02:00</time>
            </trkpt>
            <trkpt lat="37.744916" lon="-3.544265">
                <ele>1345.983154</ele>
                <time>2009-07-05T04:22:03.000+02:00</time>
            </trkpt>
            <trkpt lat="37.745030" lon="-3.543995">
                <ele>1347.905762</ele>
                <time>2009-07-05T04:22:18.000+02:00</time>
            </trkpt>
            <trkpt lat="37.745190" lon="-3.543712">
                <ele>1350.309082</ele>
                <time>2009-07-05T04:22:36.000+02:00</time>
            </trkpt>
            <trkpt lat="37.745361" lon="-3.543443">
                <ele>1352.712158</ele>
                <time>2009-07-05T04:22:53.000+02:00</time>
            </trkpt>
            <trkpt lat="37.745518" lon="-3.543202">
                <ele>1354.634766</ele>
                <time>2009-07-05T04:23:10.000+02:00</time>
            </trkpt>
            <trkpt lat="37.745696" lon="-3.542951">
                <ele>1357.038330</ele>
                <time>2009-07-05T04:23:26.000+02:00</time>
            </trkpt>
            <trkpt lat="37.745805" lon="-3.542751">
                <ele>1358.480225</ele>
                <time>2009-07-05T04:23:39.000+02:00</time>
            </trkpt>
            <trkpt lat="37.745860" lon="-3.542492">
                <ele>1360.402832</ele>
                <time>2009-07-05T04:23:54.000+02:00</time>
            </trkpt>
            <trkpt lat="37.745898" lon="-3.542165">
                <ele>1362.325439</ele>
                <time>2009-07-05T04:24:10.000+02:00</time>
            </trkpt>
            <trkpt lat="37.745961" lon="-3.541843">
                <ele>1364.248047</ele>
                <time>2009-07-05T04:24:27.000+02:00</time>
            </trkpt>
            <trkpt lat="37.746060" lon="-3.541518">
                <ele>1366.651367</ele>
                <time>2009-07-05T04:24:45.000+02:00</time>
            </trkpt>
            <trkpt lat="37.746158" lon="-3.541223">
                <ele>1368.573975</ele>
                <time>2009-07-05T04:25:02.000+02:00</time>
            </trkpt>
            <trkpt lat="37.746335" lon="-3.540974">
                <ele>1370.496582</ele>
                <time>2009-07-05T04:25:20.000+02:00</time>
            </trkpt>
            <trkpt lat="37.746549" lon="-3.540898">
                <ele>1372.419434</ele>
                <time>2009-07-05T04:25:35.000+02:00</time>
            </trkpt>
            <trkpt lat="37.746790" lon="-3.540770">
                <ele>1374.342041</ele>
                <time>2009-07-05T04:25:50.000+02:00</time>
            </trkpt>
            <trkpt lat="37.746983" lon="-3.540476">
                <ele>1376.745361</ele>
                <time>2009-07-05T04:26:07.000+02:00</time>
            </trkpt>
            <trkpt lat="37.747101" lon="-3.540243">
                <ele>1378.187256</ele>
                <time>2009-07-05T04:26:22.000+02:00</time>
            </trkpt>
            <trkpt lat="37.747234" lon="-3.539983">
                <ele>1380.109863</ele>
                <time>2009-07-05T04:26:36.000+02:00</time>
            </trkpt>
            <trkpt lat="37.747408" lon="-3.539744">
                <ele>1382.032471</ele>
                <time>2009-07-05T04:26:52.000+02:00</time>
            </trkpt>
            <trkpt lat="37.747480" lon="-3.539565">
                <ele>1382.513184</ele>
                <time>2009-07-05T04:27:03.000+02:00</time>
            </trkpt>
            <trkpt lat="37.747636" lon="-3.539185">
                <ele>1384.916504</ele>
                <time>2009-07-05T04:27:22.000+02:00</time>
            </trkpt>
            <trkpt lat="37.747737" lon="-3.538874">
                <ele>1387.319580</ele>
                <time>2009-07-05T04:27:38.000+02:00</time>
            </trkpt>
            <trkpt lat="37.747786" lon="-3.538590">
                <ele>1388.281250</ele>
                <time>2009-07-05T04:27:51.000+02:00</time>
            </trkpt>
            <trkpt lat="37.747702" lon="-3.538291">
                <ele>1390.203857</ele>
                <time>2009-07-05T04:28:07.000+02:00</time>
            </trkpt>
            <trkpt lat="37.747583" lon="-3.538032">
                <ele>1391.645752</ele>
                <time>2009-07-05T04:28:23.000+02:00</time>
            </trkpt>
            <trkpt lat="37.747577" lon="-3.538021">
                <ele>1391.645752</ele>
                <time>2009-07-05T04:28:47.000+02:00</time>
            </trkpt>
            <trkpt lat="37.747566" lon="-3.537959">
                <ele>1392.126465</ele>
                <time>2009-07-05T04:33:39.000+02:00</time>
            </trkpt>
            <trkpt lat="37.747463" lon="-3.537771">
                <ele>1393.568359</ele>
                <time>2009-07-05T04:33:55.000+02:00</time>
            </trkpt>
            <trkpt lat="37.747386" lon="-3.537589">
                <ele>1394.049072</ele>
                <time>2009-07-05T04:34:10.000+02:00</time>
            </trkpt>
            <trkpt lat="37.747350" lon="-3.537406">
                <ele>1395.010254</ele>
                <time>2009-07-05T04:34:21.000+02:00</time>
            </trkpt>
            <trkpt lat="37.747350" lon="-3.537177">
                <ele>1396.452393</ele>
                <time>2009-07-05T04:34:34.000+02:00</time>
            </trkpt>
            <trkpt lat="37.747402" lon="-3.536955">
                <ele>1397.894287</ele>
                <time>2009-07-05T04:34:46.000+02:00</time>
            </trkpt>
            <trkpt lat="37.747475" lon="-3.536831">
                <ele>1398.855469</ele>
                <time>2009-07-05T04:34:55.000+02:00</time>
            </trkpt>
            <trkpt lat="37.747556" lon="-3.536589">
                <ele>1400.297607</ele>
                <time>2009-07-05T04:35:10.000+02:00</time>
            </trkpt>
            <trkpt lat="37.747610" lon="-3.536355">
                <ele>1401.739502</ele>
                <time>2009-07-05T04:35:23.000+02:00</time>
            </trkpt>
            <trkpt lat="37.747637" lon="-3.536236">
                <ele>1402.700684</ele>
                <time>2009-07-05T04:35:31.000+02:00</time>
            </trkpt>
            <trkpt lat="37.747655" lon="-3.535964">
                <ele>1404.623535</ele>
                <time>2009-07-05T04:35:48.000+02:00</time>
            </trkpt>
            <trkpt lat="37.747615" lon="-3.535739">
                <ele>1406.546143</ele>
                <time>2009-07-05T04:36:03.000+02:00</time>
            </trkpt>
            <trkpt lat="37.747515" lon="-3.535487">
                <ele>1408.468750</ele>
                <time>2009-07-05T04:36:19.000+02:00</time>
            </trkpt>
            <trkpt lat="37.747419" lon="-3.535305">
                <ele>1409.910644</ele>
                <time>2009-07-05T04:36:33.000+02:00</time>
            </trkpt>
            <trkpt lat="37.747339" lon="-3.535059">
                <ele>1411.352783</ele>
                <time>2009-07-05T04:36:50.000+02:00</time>
            </trkpt>
            <trkpt lat="37.747399" lon="-3.534833">
                <ele>1412.794678</ele>
                <time>2009-07-05T04:37:04.000+02:00</time>
            </trkpt>
            <trkpt lat="37.747458" lon="-3.534695">
                <ele>1414.236572</ele>
                <time>2009-07-05T04:37:12.000+02:00</time>
            </trkpt>
            <trkpt lat="37.747476" lon="-3.534626">
                <ele>1414.717285</ele>
                <time>2009-07-05T04:37:16.000+02:00</time>
            </trkpt>
            <trkpt lat="37.747589" lon="-3.534381">
                <ele>1416.159180</ele>
                <time>2009-07-05T04:37:33.000+02:00</time>
            </trkpt>
            <trkpt lat="37.747749" lon="-3.534138">
                <ele>1418.081787</ele>
                <time>2009-07-05T04:37:50.000+02:00</time>
            </trkpt>
            <trkpt lat="37.747945" lon="-3.533926">
                <ele>1420.485352</ele>
                <time>2009-07-05T04:38:08.000+02:00</time>
            </trkpt>
            <trkpt lat="37.748083" lon="-3.533733">
                <ele>1422.407959</ele>
                <time>2009-07-05T04:38:23.000+02:00</time>
            </trkpt>
            <trkpt lat="37.748198" lon="-3.533519">
                <ele>1423.849854</ele>
                <time>2009-07-05T04:38:38.000+02:00</time>
            </trkpt>
            <trkpt lat="37.748251" lon="-3.533219">
                <ele>1425.772461</ele>
                <time>2009-07-05T04:38:56.000+02:00</time>
            </trkpt>
            <trkpt lat="37.748204" lon="-3.532960">
                <ele>1427.214600</ele>
                <time>2009-07-05T04:39:11.000+02:00</time>
            </trkpt>
            <trkpt lat="37.748185" lon="-3.532859">
                <ele>1428.175781</ele>
                <time>2009-07-05T04:39:17.000+02:00</time>
            </trkpt>
            <trkpt lat="37.748183" lon="-3.532760">
                <ele>1428.656494</ele>
                <time>2009-07-05T04:39:21.000+02:00</time>
            </trkpt>
            <trkpt lat="37.748191" lon="-3.532492">
                <ele>1430.579102</ele>
                <time>2009-07-05T04:39:38.000+02:00</time>
            </trkpt>
            <trkpt lat="37.748261" lon="-3.532185">
                <ele>1432.501709</ele>
                <time>2009-07-05T04:39:54.000+02:00</time>
            </trkpt>
            <trkpt lat="37.748274" lon="-3.531926">
                <ele>1434.424316</ele>
                <time>2009-07-05T04:40:10.000+02:00</time>
            </trkpt>
            <trkpt lat="37.748225" lon="-3.531672">
                <ele>1436.347168</ele>
                <time>2009-07-05T04:40:26.000+02:00</time>
            </trkpt>
            <trkpt lat="37.748191" lon="-3.531402">
                <ele>1438.269775</ele>
                <time>2009-07-05T04:40:41.000+02:00</time>
            </trkpt>
            <trkpt lat="37.748181" lon="-3.531257">
                <ele>1439.711670</ele>
                <time>2009-07-05T04:40:50.000+02:00</time>
            </trkpt>
            <trkpt lat="37.748171" lon="-3.531187">
                <ele>1440.192383</ele>
                <time>2009-07-05T04:40:54.000+02:00</time>
            </trkpt>
            <trkpt lat="37.748123" lon="-3.530912">
                <ele>1442.114990</ele>
                <time>2009-07-05T04:41:11.000+02:00</time>
            </trkpt>
            <trkpt lat="37.748111" lon="-3.530840">
                <ele>1442.595703</ele>
                <time>2009-07-05T04:41:16.000+02:00</time>
            </trkpt>
            <trkpt lat="37.748043" lon="-3.530631">
                <ele>1443.556885</ele>
                <time>2009-07-05T04:41:31.000+02:00</time>
            </trkpt>
            <trkpt lat="37.748034" lon="-3.530614">
                <ele>1444.037598</ele>
                <time>2009-07-05T04:41:32.000+02:00</time>
            </trkpt>
            <trkpt lat="37.747968" lon="-3.530342">
                <ele>1445.479492</ele>
                <time>2009-07-05T04:41:49.000+02:00</time>
            </trkpt>
            <trkpt lat="37.747943" lon="-3.530127">
                <ele>1446.921387</ele>
                <time>2009-07-05T04:42:02.000+02:00</time>
            </trkpt>
            <trkpt lat="37.747930" lon="-3.530036">
                <ele>1447.402100</ele>
                <time>2009-07-05T04:42:07.000+02:00</time>
            </trkpt>
            <trkpt lat="37.747902" lon="-3.529694">
                <ele>1448.843994</ele>
                <time>2009-07-05T04:42:25.000+02:00</time>
            </trkpt>
            <trkpt lat="37.747911" lon="-3.529429">
                <ele>1450.766602</ele>
                <time>2009-07-05T04:42:39.000+02:00</time>
            </trkpt>
            <trkpt lat="37.747922" lon="-3.529140">
                <ele>1452.208740</ele>
                <time>2009-07-05T04:42:55.000+02:00</time>
            </trkpt>
            <trkpt lat="37.748102" lon="-3.528930">
                <ele>1453.170166</ele>
                <time>2009-07-05T04:43:11.000+02:00</time>
            </trkpt>
            <trkpt lat="37.748228" lon="-3.528998">
                <ele>1454.131592</ele>
                <time>2009-07-05T04:43:19.000+02:00</time>
            </trkpt>
            <trkpt lat="37.748342" lon="-3.529240">
                <ele>1455.573486</ele>
                <time>2009-07-05T04:43:33.000+02:00</time>
            </trkpt>
            <trkpt lat="37.748489" lon="-3.529447">
                <ele>1457.976807</ele>
                <time>2009-07-05T04:43:48.000+02:00</time>
            </trkpt>
            <trkpt lat="37.748633" lon="-3.529643">
                <ele>1459.418701</ele>
                <time>2009-07-05T04:44:02.000+02:00</time>
            </trkpt>
            <trkpt lat="37.748670" lon="-3.529706">
                <ele>1459.899170</ele>
                <time>2009-07-05T04:44:06.000+02:00</time>
            </trkpt>
            <trkpt lat="37.748887" lon="-3.529859">
                <ele>1461.341309</ele>
                <time>2009-07-05T04:44:21.000+02:00</time>
            </trkpt>
            <trkpt lat="37.749058" lon="-3.530007">
                <ele>1462.783203</ele>
                <time>2009-07-05T04:44:36.000+02:00</time>
            </trkpt>
            <trkpt lat="37.749096" lon="-3.530052">
                <ele>1463.263916</ele>
                <time>2009-07-05T04:44:39.000+02:00</time>
            </trkpt>
            <trkpt lat="37.749126" lon="-3.530064">
                <ele>1463.263916</ele>
                <time>2009-07-05T04:44:41.000+02:00</time>
            </trkpt>
            <trkpt lat="37.749352" lon="-3.530086">
                <ele>1465.186523</ele>
                <time>2009-07-05T04:44:54.000+02:00</time>
            </trkpt>
            <trkpt lat="37.749569" lon="-3.530089">
                <ele>1467.589600</ele>
                <time>2009-07-05T04:45:08.000+02:00</time>
            </trkpt>
            <trkpt lat="37.749777" lon="-3.530121">
                <ele>1469.031982</ele>
                <time>2009-07-05T04:45:21.000+02:00</time>
            </trkpt>
            <trkpt lat="37.749974" lon="-3.530150">
                <ele>1470.473877</ele>
                <time>2009-07-05T04:45:35.000+02:00</time>
            </trkpt>
            <trkpt lat="37.750229" lon="-3.530095">
                <ele>1473.357910</ele>
                <time>2009-07-05T04:45:51.000+02:00</time>
            </trkpt>
            <trkpt lat="37.750285" lon="-3.530069">
                <ele>1473.838379</ele>
                <time>2009-07-05T04:45:55.000+02:00</time>
            </trkpt>
            <trkpt lat="37.750365" lon="-3.529953">
                <ele>1475.280273</ele>
                <time>2009-07-05T04:46:04.000+02:00</time>
            </trkpt>
            <trkpt lat="37.750352" lon="-3.529645">
                <ele>1477.683594</ele>
                <time>2009-07-05T04:46:22.000+02:00</time>
            </trkpt>
            <trkpt lat="37.750260" lon="-3.529388">
                <ele>1479.606201</ele>
                <time>2009-07-05T04:46:36.000+02:00</time>
            </trkpt>
            <trkpt lat="37.750162" lon="-3.529117">
                <ele>1481.528809</ele>
                <time>2009-07-05T04:46:52.000+02:00</time>
            </trkpt>
            <trkpt lat="37.750020" lon="-3.528875">
                <ele>1482.970703</ele>
                <time>2009-07-05T04:47:08.000+02:00</time>
            </trkpt>
            <trkpt lat="37.749896" lon="-3.528653">
                <ele>1484.893799</ele>
                <time>2009-07-05T04:47:23.000+02:00</time>
            </trkpt>
            <trkpt lat="37.749759" lon="-3.528363">
                <ele>1486.335693</ele>
                <time>2009-07-05T04:47:41.000+02:00</time>
            </trkpt>
            <trkpt lat="37.749620" lon="-3.528104">
                <ele>1488.258301</ele>
                <time>2009-07-05T04:47:58.000+02:00</time>
            </trkpt>
            <trkpt lat="37.749482" lon="-3.527895">
                <ele>1490.180908</ele>
                <time>2009-07-05T04:48:13.000+02:00</time>
            </trkpt>
            <trkpt lat="37.749394" lon="-3.527767">
                <ele>1491.142090</ele>
                <time>2009-07-05T04:48:23.000+02:00</time>
            </trkpt>
            <trkpt lat="37.749338" lon="-3.527690">
                <ele>1491.622803</ele>
                <time>2009-07-05T04:48:38.000+02:00</time>
            </trkpt>
            <trkpt lat="37.749323" lon="-3.527676">
                <ele>1492.103516</ele>
                <time>2009-07-05T04:49:06.000+02:00</time>
            </trkpt>
            <trkpt lat="37.749234" lon="-3.527512">
                <ele>1493.545410</ele>
                <time>2009-07-05T04:50:46.000+02:00</time>
            </trkpt>
            <trkpt lat="37.749145" lon="-3.527311">
                <ele>1494.987305</ele>
                <time>2009-07-05T04:51:00.000+02:00</time>
            </trkpt>
            <trkpt lat="37.749138" lon="-3.527199">
                <ele>1495.468018</ele>
                <time>2009-07-05T04:51:07.000+02:00</time>
            </trkpt>
            <trkpt lat="37.749224" lon="-3.526971">
                <ele>1497.390625</ele>
                <time>2009-07-05T04:51:23.000+02:00</time>
            </trkpt>
            <trkpt lat="37.749413" lon="-3.526848">
                <ele>1498.832519</ele>
                <time>2009-07-05T04:51:38.000+02:00</time>
            </trkpt>
            <trkpt lat="37.749544" lon="-3.526736">
                <ele>1500.274902</ele>
                <time>2009-07-05T04:51:50.000+02:00</time>
            </trkpt>
            <trkpt lat="37.749594" lon="-3.526682">
                <ele>1500.755371</ele>
                <time>2009-07-05T04:51:55.000+02:00</time>
            </trkpt>
            <trkpt lat="37.749761" lon="-3.526446">
                <ele>1503.158691</ele>
                <time>2009-07-05T04:52:13.000+02:00</time>
            </trkpt>
            <trkpt lat="37.749843" lon="-3.526186">
                <ele>1505.081299</ele>
                <time>2009-07-05T04:52:29.000+02:00</time>
            </trkpt>
            <trkpt lat="37.749846" lon="-3.526172">
                <ele>1505.081299</ele>
                <time>2009-07-05T04:52:30.000+02:00</time>
            </trkpt>
            <trkpt lat="37.749839" lon="-3.526057">
                <ele>1506.042481</ele>
                <time>2009-07-05T04:52:37.000+02:00</time>
            </trkpt>
            <trkpt lat="37.749791" lon="-3.525950">
                <ele>1507.003906</ele>
                <time>2009-07-05T04:52:44.000+02:00</time>
            </trkpt>
            <trkpt lat="37.749587" lon="-3.525784">
                <ele>1508.926514</ele>
                <time>2009-07-05T04:53:02.000+02:00</time>
            </trkpt>
            <trkpt lat="37.749442" lon="-3.525660">
                <ele>1510.368408</ele>
                <time>2009-07-05T04:53:15.000+02:00</time>
            </trkpt>
            <trkpt lat="37.749264" lon="-3.525541">
                <ele>1512.291016</ele>
                <time>2009-07-05T04:53:29.000+02:00</time>
            </trkpt>
            <trkpt lat="37.749094" lon="-3.525466">
                <ele>1513.732910</ele>
                <time>2009-07-05T04:53:43.000+02:00</time>
            </trkpt>
            <trkpt lat="37.749044" lon="-3.525459">
                <ele>1513.732910</ele>
                <time>2009-07-05T04:53:47.000+02:00</time>
            </trkpt>
            <trkpt lat="37.748988" lon="-3.525467">
                <ele>1514.694336</ele>
                <time>2009-07-05T04:53:51.000+02:00</time>
            </trkpt>
            <trkpt lat="37.748782" lon="-3.525445">
                <ele>1516.136475</ele>
                <time>2009-07-05T04:54:06.000+02:00</time>
            </trkpt>
            <trkpt lat="37.748602" lon="-3.525419">
                <ele>1517.097900</ele>
                <time>2009-07-05T04:54:19.000+02:00</time>
            </trkpt>
            <trkpt lat="37.748401" lon="-3.525378">
                <ele>1519.020508</ele>
                <time>2009-07-05T04:54:34.000+02:00</time>
            </trkpt>
            <trkpt lat="37.748118" lon="-3.525300">
                <ele>1521.423584</ele>
                <time>2009-07-05T04:54:52.000+02:00</time>
            </trkpt>
            <trkpt lat="37.747905" lon="-3.525290">
                <ele>1522.865723</ele>
                <time>2009-07-05T04:55:07.000+02:00</time>
            </trkpt>
            <trkpt lat="37.747831" lon="-3.525316">
                <ele>1523.826904</ele>
                <time>2009-07-05T04:55:12.000+02:00</time>
            </trkpt>
            <trkpt lat="37.747762" lon="-3.525293">
                <ele>1524.307617</ele>
                <time>2009-07-05T04:55:18.000+02:00</time>
            </trkpt>
            <trkpt lat="37.747568" lon="-3.525270">
                <ele>1526.230225</ele>
                <time>2009-07-05T04:55:32.000+02:00</time>
            </trkpt>
            <trkpt lat="37.747359" lon="-3.525120">
                <ele>1528.152832</ele>
                <time>2009-07-05T04:55:51.000+02:00</time>
            </trkpt>
            <trkpt lat="37.747217" lon="-3.524995">
                <ele>1529.594727</ele>
                <time>2009-07-05T04:56:03.000+02:00</time>
            </trkpt>
            <trkpt lat="37.747068" lon="-3.524846">
                <ele>1530.556152</ele>
                <time>2009-07-05T04:56:18.000+02:00</time>
            </trkpt>
            <trkpt lat="37.747017" lon="-3.524817">
                <ele>1531.036865</ele>
                <time>2009-07-05T04:56:24.000+02:00</time>
            </trkpt>
            <trkpt lat="37.746985" lon="-3.524766">
                <ele>1531.517334</ele>
                <time>2009-07-05T04:56:29.000+02:00</time>
            </trkpt>
            <trkpt lat="37.746786" lon="-3.524617">
                <ele>1532.959473</ele>
                <time>2009-07-05T04:56:46.000+02:00</time>
            </trkpt>
            <trkpt lat="37.746571" lon="-3.524554">
                <ele>1534.882324</ele>
                <time>2009-07-05T04:57:02.000+02:00</time>
            </trkpt>
            <trkpt lat="37.746353" lon="-3.524573">
                <ele>1536.804688</ele>
                <time>2009-07-05T04:57:18.000+02:00</time>
            </trkpt>
            <trkpt lat="37.746174" lon="-3.524630">
                <ele>1538.727539</ele>
                <time>2009-07-05T04:57:33.000+02:00</time>
            </trkpt>
            <trkpt lat="37.746047" lon="-3.524677">
                <ele>1539.688721</ele>
                <time>2009-07-05T04:57:44.000+02:00</time>
            </trkpt>
            <trkpt lat="37.745988" lon="-3.524734">
                <ele>1540.649902</ele>
                <time>2009-07-05T04:57:56.000+02:00</time>
            </trkpt>
            <trkpt lat="37.745892" lon="-3.524910">
                <ele>1543.053223</ele>
                <time>2009-07-05T05:01:53.000+02:00</time>
            </trkpt>
            <trkpt lat="37.745880" lon="-3.525009">
                <ele>1543.533936</ele>
                <time>2009-07-05T05:01:58.000+02:00</time>
            </trkpt>
            <trkpt lat="37.745903" lon="-3.525433">
                <ele>1546.417969</ele>
                <time>2009-07-05T05:02:18.000+02:00</time>
            </trkpt>
            <trkpt lat="37.745927" lon="-3.525716">
                <ele>1547.859863</ele>
                <time>2009-07-05T05:02:32.000+02:00</time>
            </trkpt>
            <trkpt lat="37.745940" lon="-3.526040">
                <ele>1550.263428</ele>
                <time>2009-07-05T05:02:50.000+02:00</time>
            </trkpt>
            <trkpt lat="37.745951" lon="-3.526274">
                <ele>1551.705322</ele>
                <time>2009-07-05T05:03:05.000+02:00</time>
            </trkpt>
            <trkpt lat="37.745954" lon="-3.526494">
                <ele>1553.147217</ele>
                <time>2009-07-05T05:03:20.000+02:00</time>
            </trkpt>
            <trkpt lat="37.745960" lon="-3.526636">
                <ele>1554.108643</ele>
                <time>2009-07-05T05:03:29.000+02:00</time>
            </trkpt>
            <trkpt lat="37.745955" lon="-3.526747">
                <ele>1555.069824</ele>
                <time>2009-07-05T05:03:36.000+02:00</time>
            </trkpt>
            <trkpt lat="37.745931" lon="-3.527004">
                <ele>1556.992432</ele>
                <time>2009-07-05T05:03:52.000+02:00</time>
            </trkpt>
            <trkpt lat="37.745891" lon="-3.527206">
                <ele>1557.953857</ele>
                <time>2009-07-05T05:04:04.000+02:00</time>
            </trkpt>
            <trkpt lat="37.745793" lon="-3.527481">
                <ele>1559.876221</ele>
                <time>2009-07-05T05:04:21.000+02:00</time>
            </trkpt>
            <trkpt lat="37.745679" lon="-3.527712">
                <ele>1561.799072</ele>
                <time>2009-07-05T05:04:38.000+02:00</time>
            </trkpt>
            <trkpt lat="37.745622" lon="-3.527795">
                <ele>1562.760254</ele>
                <time>2009-07-05T05:04:45.000+02:00</time>
            </trkpt>
            <trkpt lat="37.745531" lon="-3.527935">
                <ele>1564.202393</ele>
                <time>2009-07-05T05:04:56.000+02:00</time>
            </trkpt>
            <trkpt lat="37.745406" lon="-3.528139">
                <ele>1565.644531</ele>
                <time>2009-07-05T05:05:12.000+02:00</time>
            </trkpt>
            <trkpt lat="37.745281" lon="-3.528278">
                <ele>1567.566894</ele>
                <time>2009-07-05T05:05:26.000+02:00</time>
            </trkpt>
            <trkpt lat="37.745239" lon="-3.528314">
                <ele>1568.047607</ele>
                <time>2009-07-05T05:05:30.000+02:00</time>
            </trkpt>
            <trkpt lat="37.745193" lon="-3.528370">
                <ele>1568.528320</ele>
                <time>2009-07-05T05:05:35.000+02:00</time>
            </trkpt>
            <trkpt lat="37.745141" lon="-3.528437">
                <ele>1569.489746</ele>
                <time>2009-07-05T05:05:40.000+02:00</time>
            </trkpt>
            <trkpt lat="37.745095" lon="-3.528475">
                <ele>1569.970215</ele>
                <time>2009-07-05T05:05:44.000+02:00</time>
            </trkpt>
            <trkpt lat="37.744959" lon="-3.528691">
                <ele>1571.892822</ele>
                <time>2009-07-05T05:06:00.000+02:00</time>
            </trkpt>
            <trkpt lat="37.744956" lon="-3.528751">
                <ele>1572.373535</ele>
                <time>2009-07-05T05:06:04.000+02:00</time>
            </trkpt>
            <trkpt lat="37.744958" lon="-3.529020">
                <ele>1574.296143</ele>
                <time>2009-07-05T05:06:20.000+02:00</time>
            </trkpt>
            <trkpt lat="37.744994" lon="-3.529285">
                <ele>1575.738037</ele>
                <time>2009-07-05T05:06:37.000+02:00</time>
            </trkpt>
            <trkpt lat="37.745047" lon="-3.529537">
                <ele>1577.180176</ele>
                <time>2009-07-05T05:06:53.000+02:00</time>
            </trkpt>
            <trkpt lat="37.745061" lon="-3.529794">
                <ele>1579.102539</ele>
                <time>2009-07-05T05:07:08.000+02:00</time>
            </trkpt>
            <trkpt lat="37.745071" lon="-3.529826">
                <ele>1579.583252</ele>
                <time>2009-07-05T05:07:11.000+02:00</time>
            </trkpt>
            <trkpt lat="37.745053" lon="-3.530100">
                <ele>1581.506104</ele>
                <time>2009-07-05T05:07:27.000+02:00</time>
            </trkpt>
            <trkpt lat="37.744982" lon="-3.530336">
                <ele>1582.467529</ele>
                <time>2009-07-05T05:07:41.000+02:00</time>
            </trkpt>
            <trkpt lat="37.744962" lon="-3.530391">
                <ele>1583.428711</ele>
                <time>2009-07-05T05:07:45.000+02:00</time>
            </trkpt>
            <trkpt lat="37.744901" lon="-3.530621">
                <ele>1584.870850</ele>
                <time>2009-07-05T05:08:01.000+02:00</time>
            </trkpt>
            <trkpt lat="37.744853" lon="-3.530774">
                <ele>1586.312744</ele>
                <time>2009-07-05T05:08:13.000+02:00</time>
            </trkpt>
            <trkpt lat="37.744798" lon="-3.530969">
                <ele>1587.754639</ele>
                <time>2009-07-05T05:08:28.000+02:00</time>
            </trkpt>
            <trkpt lat="37.744788" lon="-3.531036">
                <ele>1588.235352</ele>
                <time>2009-07-05T05:08:32.000+02:00</time>
            </trkpt>
            <trkpt lat="37.744704" lon="-3.531333">
                <ele>1590.157959</ele>
                <time>2009-07-05T05:08:51.000+02:00</time>
            </trkpt>
            <trkpt lat="37.744655" lon="-3.531456">
                <ele>1591.119141</ele>
                <time>2009-07-05T05:09:00.000+02:00</time>
            </trkpt>
            <trkpt lat="37.744580" lon="-3.531619">
                <ele>1592.080566</ele>
                <time>2009-07-05T05:09:12.000+02:00</time>
            </trkpt>
            <trkpt lat="37.744457" lon="-3.531764">
                <ele>1593.522461</ele>
                <time>2009-07-05T05:09:25.000+02:00</time>
            </trkpt>
            <trkpt lat="37.744355" lon="-3.531862">
                <ele>1594.483643</ele>
                <time>2009-07-05T05:09:36.000+02:00</time>
            </trkpt>
            <trkpt lat="37.744199" lon="-3.531988">
                <ele>1595.925781</ele>
                <time>2009-07-05T05:09:50.000+02:00</time>
            </trkpt>
            <trkpt lat="37.744038" lon="-3.532089">
                <ele>1597.367920</ele>
                <time>2009-07-05T05:10:04.000+02:00</time>
            </trkpt>
            <trkpt lat="37.743874" lon="-3.532166">
                <ele>1599.290527</ele>
                <time>2009-07-05T05:10:19.000+02:00</time>
            </trkpt>
            <trkpt lat="37.743849" lon="-3.532168">
                <ele>1599.290527</ele>
                <time>2009-07-05T05:10:21.000+02:00</time>
            </trkpt>
            <trkpt lat="37.743755" lon="-3.532188">
                <ele>1600.251953</ele>
                <time>2009-07-05T05:10:30.000+02:00</time>
            </trkpt>
            <trkpt lat="37.743629" lon="-3.532222">
                <ele>1601.693848</ele>
                <time>2009-07-05T05:10:42.000+02:00</time>
            </trkpt>
            <trkpt lat="37.743587" lon="-3.532237">
                <ele>1601.693848</ele>
                <time>2009-07-05T05:10:46.000+02:00</time>
            </trkpt>
            <trkpt lat="37.743416" lon="-3.532299">
                <ele>1603.616455</ele>
                <time>2009-07-05T05:11:00.000+02:00</time>
            </trkpt>
            <trkpt lat="37.743250" lon="-3.532359">
                <ele>1605.058350</ele>
                <time>2009-07-05T05:11:15.000+02:00</time>
            </trkpt>
            <trkpt lat="37.743203" lon="-3.532391">
                <ele>1605.539062</ele>
                <time>2009-07-05T05:11:19.000+02:00</time>
            </trkpt>
            <trkpt lat="37.743136" lon="-3.532450">
                <ele>1606.019531</ele>
                <time>2009-07-05T05:11:27.000+02:00</time>
            </trkpt>
            <trkpt lat="37.742976" lon="-3.532574">
                <ele>1607.461670</ele>
                <time>2009-07-05T05:11:40.000+02:00</time>
            </trkpt>
            <trkpt lat="37.742940" lon="-3.532615">
                <ele>1607.942383</ele>
                <time>2009-07-05T05:11:44.000+02:00</time>
            </trkpt>
            <trkpt lat="37.742811" lon="-3.532789">
                <ele>1609.384277</ele>
                <time>2009-07-05T05:12:01.000+02:00</time>
            </trkpt>
            <trkpt lat="37.742790" lon="-3.532837">
                <ele>1609.384277</ele>
                <time>2009-07-05T05:12:04.000+02:00</time>
            </trkpt>
            <trkpt lat="37.742759" lon="-3.532886">
                <ele>1609.864746</ele>
                <time>2009-07-05T05:12:08.000+02:00</time>
            </trkpt>
            <trkpt lat="37.742738" lon="-3.532937">
                <ele>1610.345459</ele>
                <time>2009-07-05T05:12:11.000+02:00</time>
            </trkpt>
            <trkpt lat="37.742712" lon="-3.532984">
                <ele>1610.826172</ele>
                <time>2009-07-05T05:12:15.000+02:00</time>
            </trkpt>
            <trkpt lat="37.742704" lon="-3.533018">
                <ele>1611.306885</ele>
                <time>2009-07-05T05:12:18.000+02:00</time>
            </trkpt>
            <trkpt lat="37.742660" lon="-3.533210">
                <ele>1612.749023</ele>
                <time>2009-07-05T05:12:33.000+02:00</time>
            </trkpt>
            <trkpt lat="37.742568" lon="-3.533389">
                <ele>1614.190918</ele>
                <time>2009-07-05T05:12:47.000+02:00</time>
            </trkpt>
            <trkpt lat="37.742546" lon="-3.533419">
                <ele>1614.190918</ele>
                <time>2009-07-05T05:12:49.000+02:00</time>
            </trkpt>
            <trkpt lat="37.742484" lon="-3.533481">
                <ele>1614.671631</ele>
                <time>2009-07-05T05:12:54.000+02:00</time>
            </trkpt>
            <trkpt lat="37.742429" lon="-3.533526">
                <ele>1615.633057</ele>
                <time>2009-07-05T05:13:08.000+02:00</time>
            </trkpt>
            <trkpt lat="37.742289" lon="-3.533619">
                <ele>1618.036133</ele>
                <time>2009-07-05T05:16:43.000+02:00</time>
            </trkpt>
            <trkpt lat="37.742052" lon="-3.533786">
                <ele>1620.439453</ele>
                <time>2009-07-05T05:16:59.000+02:00</time>
            </trkpt>
            <trkpt lat="37.741909" lon="-3.533900">
                <ele>1621.881348</ele>
                <time>2009-07-05T05:17:10.000+02:00</time>
            </trkpt>
            <trkpt lat="37.741857" lon="-3.533932">
                <ele>1622.362061</ele>
                <time>2009-07-05T05:17:14.000+02:00</time>
            </trkpt>
            <trkpt lat="37.741700" lon="-3.534028">
                <ele>1623.803955</ele>
                <time>2009-07-05T05:17:29.000+02:00</time>
            </trkpt>
            <trkpt lat="37.741543" lon="-3.534124">
                <ele>1625.726562</ele>
                <time>2009-07-05T05:17:44.000+02:00</time>
            </trkpt>
            <trkpt lat="37.741389" lon="-3.534191">
                <ele>1627.168701</ele>
                <time>2009-07-05T05:17:56.000+02:00</time>
            </trkpt>
            <trkpt lat="37.741272" lon="-3.534230">
                <ele>1628.610840</ele>
                <time>2009-07-05T05:18:06.000+02:00</time>
            </trkpt>
            <trkpt lat="37.741142" lon="-3.534279">
                <ele>1630.052734</ele>
                <time>2009-07-05T05:18:17.000+02:00</time>
            </trkpt>
            <trkpt lat="37.740936" lon="-3.534394">
                <ele>1631.975342</ele>
                <time>2009-07-05T05:18:36.000+02:00</time>
            </trkpt>
            <trkpt lat="37.740797" lon="-3.534495">
                <ele>1633.897949</ele>
                <time>2009-07-05T05:18:50.000+02:00</time>
            </trkpt>
            <trkpt lat="37.740743" lon="-3.534545">
                <ele>1634.378662</ele>
                <time>2009-07-05T05:18:55.000+02:00</time>
            </trkpt>
            <trkpt lat="37.740719" lon="-3.534564">
                <ele>1634.859375</ele>
                <time>2009-07-05T05:18:57.000+02:00</time>
            </trkpt>
            <trkpt lat="37.740560" lon="-3.534692">
                <ele>1636.781738</ele>
                <time>2009-07-05T05:19:14.000+02:00</time>
            </trkpt>
            <trkpt lat="37.740475" lon="-3.534747">
                <ele>1637.262451</ele>
                <time>2009-07-05T05:19:22.000+02:00</time>
            </trkpt>
            <trkpt lat="37.740376" lon="-3.534799">
                <ele>1638.704590</ele>
                <time>2009-07-05T05:19:31.000+02:00</time>
            </trkpt>
            <trkpt lat="37.740205" lon="-3.534876">
                <ele>1640.146484</ele>
                <time>2009-07-05T05:19:46.000+02:00</time>
            </trkpt>
            <trkpt lat="37.740159" lon="-3.534892">
                <ele>1640.626953</ele>
                <time>2009-07-05T05:19:50.000+02:00</time>
            </trkpt>
            <trkpt lat="37.740117" lon="-3.534916">
                <ele>1641.107666</ele>
                <time>2009-07-05T05:19:54.000+02:00</time>
            </trkpt>
            <trkpt lat="37.739981" lon="-3.534953">
                <ele>1642.549805</ele>
                <time>2009-07-05T05:20:06.000+02:00</time>
            </trkpt>
            <trkpt lat="37.739932" lon="-3.534984">
                <ele>1643.030273</ele>
                <time>2009-07-05T05:20:10.000+02:00</time>
            </trkpt>
            <trkpt lat="37.739775" lon="-3.535069">
                <ele>1644.953125</ele>
                <time>2009-07-05T05:20:24.000+02:00</time>
            </trkpt>
            <trkpt lat="37.739686" lon="-3.535136">
                <ele>1646.395264</ele>
                <time>2009-07-05T05:20:33.000+02:00</time>
            </trkpt>
            <trkpt lat="37.739647" lon="-3.535180">
                <ele>1646.875732</ele>
                <time>2009-07-05T05:20:48.000+02:00</time>
            </trkpt>
            <trkpt lat="37.739620" lon="-3.535225">
                <ele>1647.356445</ele>
                <time>2009-07-05T05:21:11.000+02:00</time>
            </trkpt>
            <trkpt lat="37.739538" lon="-3.535321">
                <ele>1648.798340</ele>
                <time>2009-07-05T05:23:23.000+02:00</time>
            </trkpt>
            <trkpt lat="37.739349" lon="-3.535610">
                <ele>1651.682373</ele>
                <time>2009-07-05T05:23:41.000+02:00</time>
            </trkpt>
            <trkpt lat="37.739171" lon="-3.535836">
                <ele>1653.124268</ele>
                <time>2009-07-05T05:23:57.000+02:00</time>
            </trkpt>
            <trkpt lat="37.738979" lon="-3.536031">
                <ele>1655.046875</ele>
                <time>2009-07-05T05:24:12.000+02:00</time>
            </trkpt>
            <trkpt lat="37.738795" lon="-3.536236">
                <ele>1656.969482</ele>
                <time>2009-07-05T05:24:27.000+02:00</time>
            </trkpt>
            <trkpt lat="37.738692" lon="-3.536476">
                <ele>1658.892090</ele>
                <time>2009-07-05T05:24:41.000+02:00</time>
            </trkpt>
            <trkpt lat="37.738619" lon="-3.536746">
                <ele>1660.814941</ele>
                <time>2009-07-05T05:24:56.000+02:00</time>
            </trkpt>
            <trkpt lat="37.738538" lon="-3.536892">
                <ele>1661.776367</ele>
                <time>2009-07-05T05:25:06.000+02:00</time>
            </trkpt>
            <trkpt lat="37.738326" lon="-3.536983">
                <ele>1663.218262</ele>
                <time>2009-07-05T05:25:22.000+02:00</time>
            </trkpt>
            <trkpt lat="37.738220" lon="-3.536834">
                <ele>1664.660156</ele>
                <time>2009-07-05T05:25:34.000+02:00</time>
            </trkpt>
            <trkpt lat="37.738207" lon="-3.536760">
                <ele>1665.140869</ele>
                <time>2009-07-05T05:25:40.000+02:00</time>
            </trkpt>
            <trkpt lat="37.738283" lon="-3.536567">
                <ele>1667.063477</ele>
                <time>2009-07-05T05:25:53.000+02:00</time>
            </trkpt>
            <trkpt lat="37.738342" lon="-3.536477">
                <ele>1667.543945</ele>
                <time>2009-07-05T05:26:01.000+02:00</time>
            </trkpt>
            <trkpt lat="37.738440" lon="-3.536320">
                <ele>1668.986084</ele>
                <time>2009-07-05T05:26:13.000+02:00</time>
            </trkpt>
            <trkpt lat="37.738487" lon="-3.536279">
                <ele>1669.466797</ele>
                <time>2009-07-05T05:26:17.000+02:00</time>
            </trkpt>
            <trkpt lat="37.738605" lon="-3.536070">
                <ele>1670.908691</ele>
                <time>2009-07-05T05:26:32.000+02:00</time>
            </trkpt>
            <trkpt lat="37.738615" lon="-3.536056">
                <ele>1670.908691</ele>
                <time>2009-07-05T05:26:33.000+02:00</time>
            </trkpt>
            <trkpt lat="37.738741" lon="-3.535845">
                <ele>1672.831299</ele>
                <time>2009-07-05T05:26:49.000+02:00</time>
            </trkpt>
            <trkpt lat="37.738839" lon="-3.535656">
                <ele>1674.273193</ele>
                <time>2009-07-05T05:27:03.000+02:00</time>
            </trkpt>
            <trkpt lat="37.738870" lon="-3.535608">
                <ele>1674.753906</ele>
                <time>2009-07-05T05:27:07.000+02:00</time>
            </trkpt>
            <trkpt lat="37.738876" lon="-3.535575">
                <ele>1674.753906</ele>
                <time>2009-07-05T05:27:09.000+02:00</time>
            </trkpt>
            <trkpt lat="37.738954" lon="-3.535424">
                <ele>1676.196045</ele>
                <time>2009-07-05T05:27:20.000+02:00</time>
            </trkpt>
            <trkpt lat="37.739000" lon="-3.535304">
                <ele>1676.676758</ele>
                <time>2009-07-05T05:27:29.000+02:00</time>
            </trkpt>
            <trkpt lat="37.739024" lon="-3.535227">
                <ele>1677.157471</ele>
                <time>2009-07-05T05:27:34.000+02:00</time>
            </trkpt>
            <trkpt lat="37.739052" lon="-3.535172">
                <ele>1677.637939</ele>
                <time>2009-07-05T05:27:38.000+02:00</time>
            </trkpt>
            <trkpt lat="37.739069" lon="-3.535127">
                <ele>1678.118652</ele>
                <time>2009-07-05T05:27:41.000+02:00</time>
            </trkpt>
            <trkpt lat="37.739134" lon="-3.534921">
                <ele>1679.560547</ele>
                <time>2009-07-05T05:27:55.000+02:00</time>
            </trkpt>
            <trkpt lat="37.739199" lon="-3.534765">
                <ele>1680.521973</ele>
                <time>2009-07-05T05:28:06.000+02:00</time>
            </trkpt>
            <trkpt lat="37.739213" lon="-3.534692">
                <ele>1680.521973</ele>
                <time>2009-07-05T05:28:10.000+02:00</time>
            </trkpt>
            <trkpt lat="37.739304" lon="-3.534503">
                <ele>1681.963867</ele>
                <time>2009-07-05T05:28:25.000+02:00</time>
            </trkpt>
            <trkpt lat="37.739384" lon="-3.534336">
                <ele>1683.405762</ele>
                <time>2009-07-05T05:28:38.000+02:00</time>
            </trkpt>
            <trkpt lat="37.739524" lon="-3.534082">
                <ele>1685.809082</ele>
                <time>2009-07-05T05:28:56.000+02:00</time>
            </trkpt>
            <trkpt lat="37.739625" lon="-3.533955">
                <ele>1687.250977</ele>
                <time>2009-07-05T05:29:10.000+02:00</time>
            </trkpt>
            <trkpt lat="37.739755" lon="-3.533779">
                <ele>1688.693115</ele>
                <time>2009-07-05T05:29:26.000+02:00</time>
            </trkpt>
            <trkpt lat="37.739880" lon="-3.533602">
                <ele>1690.135010</ele>
                <time>2009-07-05T05:29:40.000+02:00</time>
            </trkpt>
            <trkpt lat="37.739918" lon="-3.533553">
                <ele>1691.096191</ele>
                <time>2009-07-05T05:29:45.000+02:00</time>
            </trkpt>
            <trkpt lat="37.739988" lon="-3.533443">
                <ele>1692.057861</ele>
                <time>2009-07-05T05:29:55.000+02:00</time>
            </trkpt>
            <trkpt lat="37.740041" lon="-3.533327">
                <ele>1693.019043</ele>
                <time>2009-07-05T05:30:03.000+02:00</time>
            </trkpt>
            <trkpt lat="37.740163" lon="-3.533080">
                <ele>1694.460938</ele>
                <time>2009-07-05T05:30:21.000+02:00</time>
            </trkpt>
            <trkpt lat="37.740258" lon="-3.532892">
                <ele>1696.383789</ele>
                <time>2009-07-05T05:30:37.000+02:00</time>
            </trkpt>
            <trkpt lat="37.740290" lon="-3.532808">
                <ele>1697.344971</ele>
                <time>2009-07-05T05:30:44.000+02:00</time>
            </trkpt>
            <trkpt lat="37.740393" lon="-3.532578">
                <ele>1698.786865</ele>
                <time>2009-07-05T05:31:02.000+02:00</time>
            </trkpt>
            <trkpt lat="37.740413" lon="-3.532516">
                <ele>1699.267578</ele>
                <time>2009-07-05T05:31:06.000+02:00</time>
            </trkpt>
            <trkpt lat="37.740443" lon="-3.532445">
                <ele>1700.229004</ele>
                <time>2009-07-05T05:31:12.000+02:00</time>
            </trkpt>
            <trkpt lat="37.740466" lon="-3.532382">
                <ele>1700.229004</ele>
                <time>2009-07-05T05:31:16.000+02:00</time>
            </trkpt>
            <trkpt lat="37.740525" lon="-3.532249">
                <ele>1701.670898</ele>
                <time>2009-07-05T05:31:26.000+02:00</time>
            </trkpt>
            <trkpt lat="37.740607" lon="-3.532005">
                <ele>1703.112793</ele>
                <time>2009-07-05T05:31:43.000+02:00</time>
            </trkpt>
            <trkpt lat="37.740704" lon="-3.531785">
                <ele>1705.035400</ele>
                <time>2009-07-05T05:31:59.000+02:00</time>
            </trkpt>
            <trkpt lat="37.740749" lon="-3.531687">
                <ele>1705.996582</ele>
                <time>2009-07-05T05:32:09.000+02:00</time>
            </trkpt>
            <trkpt lat="37.740779" lon="-3.531638">
                <ele>1705.996582</ele>
                <time>2009-07-05T05:32:13.000+02:00</time>
            </trkpt>
            <trkpt lat="37.740827" lon="-3.531457">
                <ele>1707.438721</ele>
                <time>2009-07-05T05:32:25.000+02:00</time>
            </trkpt>
            <trkpt lat="37.740891" lon="-3.531305">
                <ele>1708.880859</ele>
                <time>2009-07-05T05:32:37.000+02:00</time>
            </trkpt>
            <trkpt lat="37.740913" lon="-3.531247">
                <ele>1708.880859</ele>
                <time>2009-07-05T05:32:41.000+02:00</time>
            </trkpt>
            <trkpt lat="37.740984" lon="-3.531065">
                <ele>1710.803467</ele>
                <time>2009-07-05T05:32:56.000+02:00</time>
            </trkpt>
            <trkpt lat="37.740990" lon="-3.531054">
                <ele>1710.803467</ele>
                <time>2009-07-05T05:32:57.000+02:00</time>
            </trkpt>
            <trkpt lat="37.741059" lon="-3.530876">
                <ele>1712.245361</ele>
                <time>2009-07-05T05:33:11.000+02:00</time>
            </trkpt>
            <trkpt lat="37.741098" lon="-3.530766">
                <ele>1713.206787</ele>
                <time>2009-07-05T05:33:18.000+02:00</time>
            </trkpt>
            <trkpt lat="37.741122" lon="-3.530680">
                <ele>1713.687256</ele>
                <time>2009-07-05T05:33:23.000+02:00</time>
            </trkpt>
            <trkpt lat="37.741147" lon="-3.530616">
                <ele>1714.167969</ele>
                <time>2009-07-05T05:33:27.000+02:00</time>
            </trkpt>
            <trkpt lat="37.741184" lon="-3.530487">
                <ele>1715.129394</ele>
                <time>2009-07-05T05:33:37.000+02:00</time>
            </trkpt>
            <trkpt lat="37.741265" lon="-3.530305">
                <ele>1716.571289</ele>
                <time>2009-07-05T05:33:50.000+02:00</time>
            </trkpt>
            <trkpt lat="37.741334" lon="-3.530116">
                <ele>1718.013184</ele>
                <time>2009-07-05T05:34:03.000+02:00</time>
            </trkpt>
            <trkpt lat="37.741337" lon="-3.530104">
                <ele>1718.013184</ele>
                <time>2009-07-05T05:34:04.000+02:00</time>
            </trkpt>
            <trkpt lat="37.741357" lon="-3.530039">
                <ele>1718.493896</ele>
                <time>2009-07-05T05:34:09.000+02:00</time>
            </trkpt>
            <trkpt lat="37.741418" lon="-3.529877">
                <ele>1719.935791</ele>
                <time>2009-07-05T05:34:19.000+02:00</time>
            </trkpt>
            <trkpt lat="37.741479" lon="-3.529679">
                <ele>1720.897217</ele>
                <time>2009-07-05T05:34:33.000+02:00</time>
            </trkpt>
            <trkpt lat="37.741503" lon="-3.529618">
                <ele>1721.377686</ele>
                <time>2009-07-05T05:34:37.000+02:00</time>
            </trkpt>
            <trkpt lat="37.741549" lon="-3.529417">
                <ele>1722.819824</ele>
                <time>2009-07-05T05:34:50.000+02:00</time>
            </trkpt>
            <trkpt lat="37.741627" lon="-3.529152">
                <ele>1724.261963</ele>
                <time>2009-07-05T05:35:06.000+02:00</time>
            </trkpt>
            <trkpt lat="37.741641" lon="-3.529092">
                <ele>1724.742676</ele>
                <time>2009-07-05T05:35:10.000+02:00</time>
            </trkpt>
            <trkpt lat="37.741720" lon="-3.528827">
                <ele>1726.665283</ele>
                <time>2009-07-05T05:35:28.000+02:00</time>
            </trkpt>
            <trkpt lat="37.741747" lon="-3.528693">
                <ele>1727.626465</ele>
                <time>2009-07-05T05:35:36.000+02:00</time>
            </trkpt>
            <trkpt lat="37.741763" lon="-3.528640">
                <ele>1728.107178</ele>
                <time>2009-07-05T05:35:40.000+02:00</time>
            </trkpt>
            <trkpt lat="37.741765" lon="-3.528610">
                <ele>1729.068359</ele>
                <time>2009-07-05T05:35:57.000+02:00</time>
            </trkpt>
            <trkpt lat="37.741776" lon="-3.528582">
                <ele>1729.068359</ele>
                <time>2009-07-05T05:36:13.000+02:00</time>
            </trkpt>
            <trkpt lat="37.741813" lon="-3.528387">
                <ele>1730.510498</ele>
                <time>2009-07-05T05:37:24.000+02:00</time>
            </trkpt>
            <trkpt lat="37.741833" lon="-3.528193">
                <ele>1731.952393</ele>
                <time>2009-07-05T05:37:38.000+02:00</time>
            </trkpt>
            <trkpt lat="37.741858" lon="-3.527981">
                <ele>1732.913574</ele>
                <time>2009-07-05T05:37:54.000+02:00</time>
            </trkpt>
            <trkpt lat="37.741883" lon="-3.527757">
                <ele>1734.355713</ele>
                <time>2009-07-05T05:38:10.000+02:00</time>
            </trkpt>
            <trkpt lat="37.741878" lon="-3.527557">
                <ele>1735.797607</ele>
                <time>2009-07-05T05:38:27.000+02:00</time>
            </trkpt>
            <trkpt lat="37.741861" lon="-3.527450">
                <ele>1736.758789</ele>
                <time>2009-07-05T05:38:35.000+02:00</time>
            </trkpt>
            <trkpt lat="37.741839" lon="-3.527311">
                <ele>1738.200928</ele>
                <time>2009-07-05T05:38:47.000+02:00</time>
            </trkpt>
            <trkpt lat="37.741833" lon="-3.527291">
                <ele>1738.200928</ele>
                <time>2009-07-05T05:38:49.000+02:00</time>
            </trkpt>
            <trkpt lat="37.741749" lon="-3.527074">
                <ele>1739.642822</ele>
                <time>2009-07-05T05:39:10.000+02:00</time>
            </trkpt>
            <trkpt lat="37.741664" lon="-3.526938">
                <ele>1740.604248</ele>
                <time>2009-07-05T05:39:24.000+02:00</time>
            </trkpt>
            <trkpt lat="37.741566" lon="-3.526835">
                <ele>1742.046387</ele>
                <time>2009-07-05T05:39:38.000+02:00</time>
            </trkpt>
            <trkpt lat="37.741466" lon="-3.526729">
                <ele>1743.488281</ele>
                <time>2009-07-05T05:39:53.000+02:00</time>
            </trkpt>
            <trkpt lat="37.741417" lon="-3.526674">
                <ele>1743.968994</ele>
                <time>2009-07-05T05:40:00.000+02:00</time>
            </trkpt>
            <trkpt lat="37.741354" lon="-3.526617">
                <ele>1743.488281</ele>
                <time>2009-07-05T05:40:17.000+02:00</time>
            </trkpt>
            <trkpt lat="37.741201" lon="-3.526531">
                <ele>1745.891602</ele>
                <time>2009-07-05T05:41:05.000+02:00</time>
            </trkpt>
            <trkpt lat="37.741187" lon="-3.526529">
                <ele>1746.372314</ele>
                <time>2009-07-05T05:41:06.000+02:00</time>
            </trkpt>
            <trkpt lat="37.741126" lon="-3.526507">
                <ele>1746.852783</ele>
                <time>2009-07-05T05:41:10.000+02:00</time>
            </trkpt>
            <trkpt lat="37.741011" lon="-3.526483">
                <ele>1747.814209</ele>
                <time>2009-07-05T05:41:17.000+02:00</time>
            </trkpt>
            <trkpt lat="37.740805" lon="-3.526366">
                <ele>1749.736816</ele>
                <time>2009-07-05T05:41:33.000+02:00</time>
            </trkpt>
            <trkpt lat="37.740759" lon="-3.526299">
                <ele>1750.217529</ele>
                <time>2009-07-05T05:41:38.000+02:00</time>
            </trkpt>
            <trkpt lat="37.740683" lon="-3.526200">
                <ele>1751.178711</ele>
                <time>2009-07-05T05:41:45.000+02:00</time>
            </trkpt>
            <trkpt lat="37.740607" lon="-3.525900">
                <ele>1754.062744</ele>
                <time>2009-07-05T05:42:02.000+02:00</time>
            </trkpt>
            <trkpt lat="37.740581" lon="-3.525780">
                <ele>1755.023926</ele>
                <time>2009-07-05T05:42:08.000+02:00</time>
            </trkpt>
            <trkpt lat="37.740528" lon="-3.525506">
                <ele>1756.466064</ele>
                <time>2009-07-05T05:42:23.000+02:00</time>
            </trkpt>
            <trkpt lat="37.740496" lon="-3.525267">
                <ele>1758.388672</ele>
                <time>2009-07-05T05:42:37.000+02:00</time>
            </trkpt>
            <trkpt lat="37.740496" lon="-3.525245">
                <ele>1758.388672</ele>
                <time>2009-07-05T05:42:38.000+02:00</time>
            </trkpt>
            <trkpt lat="37.740487" lon="-3.525210">
                <ele>1758.869385</ele>
                <time>2009-07-05T05:42:40.000+02:00</time>
            </trkpt>
            <trkpt lat="37.740446" lon="-3.524877">
                <ele>1761.272705</ele>
                <time>2009-07-05T05:42:59.000+02:00</time>
            </trkpt>
            <trkpt lat="37.740477" lon="-3.524571">
                <ele>1762.714600</ele>
                <time>2009-07-05T05:43:14.000+02:00</time>
            </trkpt>
            <trkpt lat="37.740507" lon="-3.524229">
                <ele>1765.117920</ele>
                <time>2009-07-05T05:43:33.000+02:00</time>
            </trkpt>
            <trkpt lat="37.740502" lon="-3.524130">
                <ele>1765.598633</ele>
                <time>2009-07-05T05:43:38.000+02:00</time>
            </trkpt>
            <trkpt lat="37.740385" lon="-3.523943">
                <ele>1767.040527</ele>
                <time>2009-07-05T05:43:52.000+02:00</time>
            </trkpt>
            <trkpt lat="37.740334" lon="-3.523982">
                <ele>1767.520996</ele>
                <time>2009-07-05T05:43:56.000+02:00</time>
            </trkpt>
            <trkpt lat="37.740276" lon="-3.524269">
                <ele>1768.482422</ele>
                <time>2009-07-05T05:44:12.000+02:00</time>
            </trkpt>
            <trkpt lat="37.740263" lon="-3.524513">
                <ele>1769.443848</ele>
                <time>2009-07-05T05:44:26.000+02:00</time>
            </trkpt>
            <trkpt lat="37.740263" lon="-3.524772">
                <ele>1770.885742</ele>
                <time>2009-07-05T05:44:41.000+02:00</time>
            </trkpt>
            <trkpt lat="37.740255" lon="-3.525018">
                <ele>1772.327881</ele>
                <time>2009-07-05T05:44:56.000+02:00</time>
            </trkpt>
            <trkpt lat="37.740246" lon="-3.525113">
                <ele>1772.327881</ele>
                <time>2009-07-05T05:45:01.000+02:00</time>
            </trkpt>
            <trkpt lat="37.740244" lon="-3.525202">
                <ele>1772.808594</ele>
                <time>2009-07-05T05:45:06.000+02:00</time>
            </trkpt>
            <trkpt lat="37.740234" lon="-3.525504">
                <ele>1774.250488</ele>
                <time>2009-07-05T05:45:23.000+02:00</time>
            </trkpt>
            <trkpt lat="37.740227" lon="-3.525802">
                <ele>1775.692383</ele>
                <time>2009-07-05T05:45:38.000+02:00</time>
            </trkpt>
            <trkpt lat="37.740214" lon="-3.526058">
                <ele>1777.134521</ele>
                <time>2009-07-05T05:45:51.000+02:00</time>
            </trkpt>
            <trkpt lat="37.740212" lon="-3.526145">
                <ele>1777.134521</ele>
                <time>2009-07-05T05:45:55.000+02:00</time>
            </trkpt>
            <trkpt lat="37.740215" lon="-3.526299">
                <ele>1778.095703</ele>
                <time>2009-07-05T05:46:03.000+02:00</time>
            </trkpt>
            <trkpt lat="37.740214" lon="-3.526394">
                <ele>1778.576416</ele>
                <time>2009-07-05T05:46:08.000+02:00</time>
            </trkpt>
            <trkpt lat="37.740238" lon="-3.526553">
                <ele>1779.537598</ele>
                <time>2009-07-05T05:46:16.000+02:00</time>
            </trkpt>
            <trkpt lat="37.740288" lon="-3.526678">
                <ele>1780.018311</ele>
                <time>2009-07-05T05:46:24.000+02:00</time>
            </trkpt>
            <trkpt lat="37.740420" lon="-3.526892">
                <ele>1781.460205</ele>
                <time>2009-07-05T05:46:39.000+02:00</time>
            </trkpt>
            <trkpt lat="37.740468" lon="-3.526954">
                <ele>1782.421631</ele>
                <time>2009-07-05T05:46:44.000+02:00</time>
            </trkpt>
            <trkpt lat="37.740591" lon="-3.527182">
                <ele>1783.863525</ele>
                <time>2009-07-05T05:47:00.000+02:00</time>
            </trkpt>
            <trkpt lat="37.740638" lon="-3.527404">
                <ele>1785.305420</ele>
                <time>2009-07-05T05:47:13.000+02:00</time>
            </trkpt>
            <trkpt lat="37.740632" lon="-3.527543">
                <ele>1786.266846</ele>
                <time>2009-07-05T05:47:22.000+02:00</time>
            </trkpt>
            <trkpt lat="37.740638" lon="-3.527703">
                <ele>1787.708740</ele>
                <time>2009-07-05T05:47:32.000+02:00</time>
            </trkpt>
            <trkpt lat="37.740615" lon="-3.527789">
                <ele>1788.189697</ele>
                <time>2009-07-05T05:47:38.000+02:00</time>
            </trkpt>
            <trkpt lat="37.740540" lon="-3.528033">
                <ele>1790.112305</ele>
                <time>2009-07-05T05:47:53.000+02:00</time>
            </trkpt>
            <trkpt lat="37.740448" lon="-3.528258">
                <ele>1792.034912</ele>
                <time>2009-07-05T05:48:09.000+02:00</time>
            </trkpt>
            <trkpt lat="37.740385" lon="-3.528387">
                <ele>1792.996094</ele>
                <time>2009-07-05T05:48:18.000+02:00</time>
            </trkpt>
            <trkpt lat="37.740277" lon="-3.528575">
                <ele>1793.957519</ele>
                <time>2009-07-05T05:48:31.000+02:00</time>
            </trkpt>
            <trkpt lat="37.740217" lon="-3.528630">
                <ele>1794.918701</ele>
                <time>2009-07-05T05:48:36.000+02:00</time>
            </trkpt>
            <trkpt lat="37.740113" lon="-3.528817">
                <ele>1796.360840</ele>
                <time>2009-07-05T05:48:50.000+02:00</time>
            </trkpt>
            <trkpt lat="37.740004" lon="-3.529015">
                <ele>1798.283203</ele>
                <time>2009-07-05T05:49:04.000+02:00</time>
            </trkpt>
            <trkpt lat="37.739948" lon="-3.529105">
                <ele>1798.763916</ele>
                <time>2009-07-05T05:49:11.000+02:00</time>
            </trkpt>
            <trkpt lat="37.739893" lon="-3.529176">
                <ele>1799.725342</ele>
                <time>2009-07-05T05:49:17.000+02:00</time>
            </trkpt>
            <trkpt lat="37.739751" lon="-3.529400">
                <ele>1801.647949</ele>
                <time>2009-07-05T05:49:33.000+02:00</time>
            </trkpt>
            <trkpt lat="37.739635" lon="-3.529581">
                <ele>1803.089844</ele>
                <time>2009-07-05T05:49:47.000+02:00</time>
            </trkpt>
            <trkpt lat="37.739486" lon="-3.529761">
                <ele>1805.012695</ele>
                <time>2009-07-05T05:50:02.000+02:00</time>
            </trkpt>
            <trkpt lat="37.739355" lon="-3.529918">
                <ele>1806.935303</ele>
                <time>2009-07-05T05:50:16.000+02:00</time>
            </trkpt>
            <trkpt lat="37.739218" lon="-3.530095">
                <ele>1808.377197</ele>
                <time>2009-07-05T05:50:31.000+02:00</time>
            </trkpt>
            <trkpt lat="37.739199" lon="-3.530111">
                <ele>1808.857910</ele>
                <time>2009-07-05T05:50:33.000+02:00</time>
            </trkpt>
            <trkpt lat="37.739159" lon="-3.530152">
                <ele>1808.857910</ele>
                <time>2009-07-05T05:50:37.000+02:00</time>
            </trkpt>
            <trkpt lat="37.739109" lon="-3.530207">
                <ele>1809.819092</ele>
                <time>2009-07-05T05:50:42.000+02:00</time>
            </trkpt>
            <trkpt lat="37.738913" lon="-3.530384">
                <ele>1812.222412</ele>
                <time>2009-07-05T05:50:58.000+02:00</time>
            </trkpt>
            <trkpt lat="37.738727" lon="-3.530553">
                <ele>1813.664307</ele>
                <time>2009-07-05T05:51:14.000+02:00</time>
            </trkpt>
            <trkpt lat="37.738558" lon="-3.530685">
                <ele>1815.587158</ele>
                <time>2009-07-05T05:51:29.000+02:00</time>
            </trkpt>
            <trkpt lat="37.738512" lon="-3.530735">
                <ele>1816.548340</ele>
                <time>2009-07-05T05:51:34.000+02:00</time>
            </trkpt>
            <trkpt lat="37.738489" lon="-3.530751">
                <ele>1816.548340</ele>
                <time>2009-07-05T05:51:36.000+02:00</time>
            </trkpt>
            <trkpt lat="37.738354" lon="-3.530881">
                <ele>1817.509521</ele>
                <time>2009-07-05T05:51:50.000+02:00</time>
            </trkpt>
            <trkpt lat="37.738244" lon="-3.530980">
                <ele>1818.470947</ele>
                <time>2009-07-05T05:51:58.000+02:00</time>
            </trkpt>
            <trkpt lat="37.738038" lon="-3.531147">
                <ele>1820.874512</ele>
                <time>2009-07-05T05:52:16.000+02:00</time>
            </trkpt>
            <trkpt lat="37.737879" lon="-3.531283">
                <ele>1822.316406</ele>
                <time>2009-07-05T05:52:30.000+02:00</time>
            </trkpt>
            <trkpt lat="37.737707" lon="-3.531441">
                <ele>1824.239014</ele>
                <time>2009-07-05T05:52:46.000+02:00</time>
            </trkpt>
            <trkpt lat="37.737545" lon="-3.531564">
                <ele>1826.161621</ele>
                <time>2009-07-05T05:53:01.000+02:00</time>
            </trkpt>
            <trkpt lat="37.737488" lon="-3.531608">
                <ele>1827.123047</ele>
                <time>2009-07-05T05:53:07.000+02:00</time>
            </trkpt>
            <trkpt lat="37.737293" lon="-3.531743">
                <ele>1829.045410</ele>
                <time>2009-07-05T05:53:23.000+02:00</time>
            </trkpt>
            <trkpt lat="37.737150" lon="-3.531858">
                <ele>1830.487549</ele>
                <time>2009-07-05T05:53:36.000+02:00</time>
            </trkpt>
            <trkpt lat="37.737021" lon="-3.531943">
                <ele>1831.929443</ele>
                <time>2009-07-05T05:53:48.000+02:00</time>
            </trkpt>
            <trkpt lat="37.736964" lon="-3.531975">
                <ele>1832.410156</ele>
                <time>2009-07-05T05:53:53.000+02:00</time>
            </trkpt>
            <trkpt lat="37.736870" lon="-3.532036">
                <ele>1833.371338</ele>
                <time>2009-07-05T05:54:02.000+02:00</time>
            </trkpt>
            <trkpt lat="37.736833" lon="-3.532068">
                <ele>1833.852051</ele>
                <time>2009-07-05T05:54:06.000+02:00</time>
            </trkpt>
            <trkpt lat="37.736793" lon="-3.532094">
                <ele>1834.332764</ele>
                <time>2009-07-05T05:54:10.000+02:00</time>
            </trkpt>
            <trkpt lat="37.736591" lon="-3.532157">
                <ele>1836.736084</ele>
                <time>2009-07-05T05:54:26.000+02:00</time>
            </trkpt>
            <trkpt lat="37.736402" lon="-3.532178">
                <ele>1838.178223</ele>
                <time>2009-07-05T05:54:41.000+02:00</time>
            </trkpt>
            <trkpt lat="37.736374" lon="-3.532167">
                <ele>1838.178223</ele>
                <time>2009-07-05T05:54:43.000+02:00</time>
            </trkpt>
            <trkpt lat="37.736171" lon="-3.532123">
                <ele>1840.100830</ele>
                <time>2009-07-05T05:54:59.000+02:00</time>
            </trkpt>
            <trkpt lat="37.736161" lon="-3.532117">
                <ele>1840.100830</ele>
                <time>2009-07-05T05:55:00.000+02:00</time>
            </trkpt>
            <trkpt lat="37.735966" lon="-3.532012">
                <ele>1842.504150</ele>
                <time>2009-07-05T05:55:17.000+02:00</time>
            </trkpt>
            <trkpt lat="37.735788" lon="-3.531870">
                <ele>1844.426514</ele>
                <time>2009-07-05T05:55:33.000+02:00</time>
            </trkpt>
            <trkpt lat="37.735697" lon="-3.531786">
                <ele>1845.387939</ele>
                <time>2009-07-05T05:55:42.000+02:00</time>
            </trkpt>
            <trkpt lat="37.735541" lon="-3.531611">
                <ele>1846.829834</ele>
                <time>2009-07-05T05:55:58.000+02:00</time>
            </trkpt>
            <trkpt lat="37.735365" lon="-3.531447">
                <ele>1848.752441</ele>
                <time>2009-07-05T05:56:15.000+02:00</time>
            </trkpt>
            <trkpt lat="37.735219" lon="-3.531297">
                <ele>1850.194580</ele>
                <time>2009-07-05T05:56:28.000+02:00</time>
            </trkpt>
            <trkpt lat="37.735156" lon="-3.531236">
                <ele>1851.155762</ele>
                <time>2009-07-05T05:56:35.000+02:00</time>
            </trkpt>
            <trkpt lat="37.735024" lon="-3.531071">
                <ele>1852.597900</ele>
                <time>2009-07-05T05:56:50.000+02:00</time>
            </trkpt>
            <trkpt lat="37.735051" lon="-3.530943">
                <ele>1853.559326</ele>
                <time>2009-07-05T05:57:01.000+02:00</time>
            </trkpt>
            <trkpt lat="37.735239" lon="-3.530854">
                <ele>1854.520508</ele>
                <time>2009-07-05T05:57:14.000+02:00</time>
            </trkpt>
            <trkpt lat="37.735458" lon="-3.530972">
                <ele>1855.481934</ele>
                <time>2009-07-05T05:57:28.000+02:00</time>
            </trkpt>
            <trkpt lat="37.735619" lon="-3.531105">
                <ele>1856.443115</ele>
                <time>2009-07-05T05:57:41.000+02:00</time>
            </trkpt>
            <trkpt lat="37.735819" lon="-3.531275">
                <ele>1857.885254</ele>
                <time>2009-07-05T05:57:57.000+02:00</time>
            </trkpt>
            <trkpt lat="37.736065" lon="-3.531374">
                <ele>1859.327148</ele>
                <time>2009-07-05T05:58:14.000+02:00</time>
            </trkpt>
            <trkpt lat="37.736299" lon="-3.531363">
                <ele>1861.249756</ele>
                <time>2009-07-05T05:58:30.000+02:00</time>
            </trkpt>
            <trkpt lat="37.736352" lon="-3.531350">
                <ele>1861.730469</ele>
                <time>2009-07-05T05:58:34.000+02:00</time>
            </trkpt>
            <trkpt lat="37.736559" lon="-3.531289">
                <ele>1863.652832</ele>
                <time>2009-07-05T05:58:49.000+02:00</time>
            </trkpt>
            <trkpt lat="37.736747" lon="-3.531185">
                <ele>1865.575684</ele>
                <time>2009-07-05T05:59:05.000+02:00</time>
            </trkpt>
            <trkpt lat="37.736893" lon="-3.531032">
                <ele>1867.498047</ele>
                <time>2009-07-05T05:59:19.000+02:00</time>
            </trkpt>
            <trkpt lat="37.737070" lon="-3.530837">
                <ele>1868.940430</ele>
                <time>2009-07-05T05:59:36.000+02:00</time>
            </trkpt>
            <trkpt lat="37.737220" lon="-3.530630">
                <ele>1870.863037</ele>
                <time>2009-07-05T05:59:51.000+02:00</time>
            </trkpt>
            <trkpt lat="37.737322" lon="-3.530470">
                <ele>1872.785644</ele>
                <time>2009-07-05T06:00:04.000+02:00</time>
            </trkpt>
            <trkpt lat="37.737468" lon="-3.530273">
                <ele>1874.708252</ele>
                <time>2009-07-05T06:00:21.000+02:00</time>
            </trkpt>
            <trkpt lat="37.737598" lon="-3.530080">
                <ele>1876.150146</ele>
                <time>2009-07-05T06:00:36.000+02:00</time>
            </trkpt>
            <trkpt lat="37.737710" lon="-3.529887">
                <ele>1878.072754</ele>
                <time>2009-07-05T06:00:50.000+02:00</time>
            </trkpt>
            <trkpt lat="37.737739" lon="-3.529842">
                <ele>1878.553467</ele>
                <time>2009-07-05T06:00:54.000+02:00</time>
            </trkpt>
            <trkpt lat="37.737848" lon="-3.529636">
                <ele>1880.476074</ele>
                <time>2009-07-05T06:01:10.000+02:00</time>
            </trkpt>
            <trkpt lat="37.737945" lon="-3.529434">
                <ele>1882.398682</ele>
                <time>2009-07-05T06:01:24.000+02:00</time>
            </trkpt>
            <trkpt lat="37.737981" lon="-3.529380">
                <ele>1882.879150</ele>
                <time>2009-07-05T06:01:29.000+02:00</time>
            </trkpt>
            <trkpt lat="37.738004" lon="-3.529322">
                <ele>1883.359863</ele>
                <time>2009-07-05T06:01:33.000+02:00</time>
            </trkpt>
            <trkpt lat="37.738123" lon="-3.529085">
                <ele>1885.282715</ele>
                <time>2009-07-05T06:01:50.000+02:00</time>
            </trkpt>
            <trkpt lat="37.738220" lon="-3.528855">
                <ele>1887.205322</ele>
                <time>2009-07-05T06:02:05.000+02:00</time>
            </trkpt>
            <trkpt lat="37.738298" lon="-3.528626">
                <ele>1889.608643</ele>
                <time>2009-07-05T06:02:20.000+02:00</time>
            </trkpt>
            <trkpt lat="37.738304" lon="-3.528559">
                <ele>1890.089356</ele>
                <time>2009-07-05T06:02:25.000+02:00</time>
            </trkpt>
            <trkpt lat="37.738319" lon="-3.528473">
                <ele>1890.569824</ele>
                <time>2009-07-05T06:02:30.000+02:00</time>
            </trkpt>
            <trkpt lat="37.738347" lon="-3.528297">
                <ele>1892.011963</ele>
                <time>2009-07-05T06:02:41.000+02:00</time>
            </trkpt>
            <trkpt lat="37.738357" lon="-3.528223">
                <ele>1892.492676</ele>
                <time>2009-07-05T06:02:46.000+02:00</time>
            </trkpt>
            <trkpt lat="37.738383" lon="-3.527921">
                <ele>1894.415039</ele>
                <time>2009-07-05T06:03:04.000+02:00</time>
            </trkpt>
            <trkpt lat="37.738386" lon="-3.527850">
                <ele>1894.895752</ele>
                <time>2009-07-05T06:03:08.000+02:00</time>
            </trkpt>
            <trkpt lat="37.738397" lon="-3.527789">
                <ele>1895.376465</ele>
                <time>2009-07-05T06:03:12.000+02:00</time>
            </trkpt>
            <trkpt lat="37.738368" lon="-3.527639">
                <ele>1896.818359</ele>
                <time>2009-07-05T06:03:21.000+02:00</time>
            </trkpt>
            <trkpt lat="37.738324" lon="-3.527479">
                <ele>1897.779785</ele>
                <time>2009-07-05T06:03:32.000+02:00</time>
            </trkpt>
            <trkpt lat="37.738312" lon="-3.527412">
                <ele>1898.260254</ele>
                <time>2009-07-05T06:03:36.000+02:00</time>
            </trkpt>
            <trkpt lat="37.738273" lon="-3.527307">
                <ele>1898.740967</ele>
                <time>2009-07-05T06:03:43.000+02:00</time>
            </trkpt>
            <trkpt lat="37.738239" lon="-3.527179">
                <ele>1899.702393</ele>
                <time>2009-07-05T06:03:51.000+02:00</time>
            </trkpt>
            <trkpt lat="37.738172" lon="-3.527039">
                <ele>1900.663818</ele>
                <time>2009-07-05T06:04:01.000+02:00</time>
            </trkpt>
            <trkpt lat="37.738112" lon="-3.526781">
                <ele>1902.586426</ele>
                <time>2009-07-05T06:04:17.000+02:00</time>
            </trkpt>
            <trkpt lat="37.738092" lon="-3.526732">
                <ele>1902.586426</ele>
                <time>2009-07-05T06:04:21.000+02:00</time>
            </trkpt>
            <trkpt lat="37.738045" lon="-3.526534">
                <ele>1904.028564</ele>
                <time>2009-07-05T06:04:33.000+02:00</time>
            </trkpt>
            <trkpt lat="37.737991" lon="-3.526300">
                <ele>1905.470459</ele>
                <time>2009-07-05T06:04:49.000+02:00</time>
            </trkpt>
            <trkpt lat="37.737972" lon="-3.526175">
                <ele>1906.912354</ele>
                <time>2009-07-05T06:04:59.000+02:00</time>
            </trkpt>
            <trkpt lat="37.737969" lon="-3.526147">
                <ele>1906.912354</ele>
                <time>2009-07-05T06:05:01.000+02:00</time>
            </trkpt>
            <trkpt lat="37.737939" lon="-3.526038">
                <ele>1907.873779</ele>
                <time>2009-07-05T06:05:07.000+02:00</time>
            </trkpt>
            <trkpt lat="37.737897" lon="-3.525826">
                <ele>1909.315674</ele>
                <time>2009-07-05T06:05:21.000+02:00</time>
            </trkpt>
            <trkpt lat="37.737884" lon="-3.525719">
                <ele>1910.276856</ele>
                <time>2009-07-05T06:05:29.000+02:00</time>
            </trkpt>
            <trkpt lat="37.737848" lon="-3.525572">
                <ele>1911.238281</ele>
                <time>2009-07-05T06:05:38.000+02:00</time>
            </trkpt>
            <trkpt lat="37.737827" lon="-3.525488">
                <ele>1911.718994</ele>
                <time>2009-07-05T06:05:44.000+02:00</time>
            </trkpt>
            <trkpt lat="37.737814" lon="-3.525349">
                <ele>1912.680176</ele>
                <time>2009-07-05T06:05:52.000+02:00</time>
            </trkpt>
            <trkpt lat="37.737806" lon="-3.525260">
                <ele>1913.160889</ele>
                <time>2009-07-05T06:05:57.000+02:00</time>
            </trkpt>
            <trkpt lat="37.737766" lon="-3.525102">
                <ele>1914.122070</ele>
                <time>2009-07-05T06:06:07.000+02:00</time>
            </trkpt>
            <trkpt lat="37.737751" lon="-3.525070">
                <ele>1914.602783</ele>
                <time>2009-07-05T06:06:09.000+02:00</time>
            </trkpt>
            <trkpt lat="37.737727" lon="-3.524974">
                <ele>1915.083496</ele>
                <time>2009-07-05T06:06:15.000+02:00</time>
            </trkpt>
            <trkpt lat="37.737706" lon="-3.524859">
                <ele>1916.044922</ele>
                <time>2009-07-05T06:06:22.000+02:00</time>
            </trkpt>
            <trkpt lat="37.737678" lon="-3.524793">
                <ele>1916.525635</ele>
                <time>2009-07-05T06:06:26.000+02:00</time>
            </trkpt>
            <trkpt lat="37.737609" lon="-3.524540">
                <ele>1917.967529</ele>
                <time>2009-07-05T06:06:43.000+02:00</time>
            </trkpt>
            <trkpt lat="37.737550" lon="-3.524322">
                <ele>1920.370850</ele>
                <time>2009-07-05T06:06:58.000+02:00</time>
            </trkpt>
            <trkpt lat="37.737528" lon="-3.524252">
                <ele>1920.851562</ele>
                <time>2009-07-05T06:07:02.000+02:00</time>
            </trkpt>
            <trkpt lat="37.737415" lon="-3.524038">
                <ele>1922.774170</ele>
                <time>2009-07-05T06:07:17.000+02:00</time>
            </trkpt>
            <trkpt lat="37.737323" lon="-3.523916">
                <ele>1923.254883</ele>
                <time>2009-07-05T06:07:28.000+02:00</time>
            </trkpt>
            <trkpt lat="37.737173" lon="-3.523695">
                <ele>1925.177246</ele>
                <time>2009-07-05T06:07:45.000+02:00</time>
            </trkpt>
            <trkpt lat="37.737107" lon="-3.523630">
                <ele>1925.177246</ele>
                <time>2009-07-05T06:07:51.000+02:00</time>
            </trkpt>
            <trkpt lat="37.737047" lon="-3.523572">
                <ele>1926.138672</ele>
                <time>2009-07-05T06:07:57.000+02:00</time>
            </trkpt>
            <trkpt lat="37.736991" lon="-3.523520">
                <ele>1926.138672</ele>
                <time>2009-07-05T06:08:02.000+02:00</time>
            </trkpt>
            <trkpt lat="37.736953" lon="-3.523484">
                <ele>1926.619385</ele>
                <time>2009-07-05T06:08:06.000+02:00</time>
            </trkpt>
            <trkpt lat="37.736857" lon="-3.523408">
                <ele>1927.580566</ele>
                <time>2009-07-05T06:08:20.000+02:00</time>
            </trkpt>
            <trkpt lat="37.736845" lon="-3.523398">
                <ele>1927.580566</ele>
                <time>2009-07-05T06:08:40.000+02:00</time>
            </trkpt>
            <trkpt lat="37.736765" lon="-3.523337">
                <ele>1928.541992</ele>
                <time>2009-07-05T06:09:25.000+02:00</time>
            </trkpt>
            <trkpt lat="37.736662" lon="-3.523293">
                <ele>1929.022461</ele>
                <time>2009-07-05T06:09:41.000+02:00</time>
            </trkpt>
            <trkpt lat="37.736611" lon="-3.523280">
                <ele>1930.464600</ele>
                <time>2009-07-05T06:10:00.000+02:00</time>
            </trkpt>
            <trkpt lat="37.736608" lon="-3.523286">
                <ele>1929.503174</ele>
                <time>2009-07-05T06:10:45.000+02:00</time>
            </trkpt>
            <trkpt lat="37.736387" lon="-3.523449">
                <ele>1930.945312</ele>
                <time>2009-07-05T06:11:00.000+02:00</time>
            </trkpt>
            <trkpt lat="37.736312" lon="-3.523729">
                <ele>1932.867920</ele>
                <time>2009-07-05T06:11:14.000+02:00</time>
            </trkpt>
            <trkpt lat="37.736337" lon="-3.524091">
                <ele>1934.790771</ele>
                <time>2009-07-05T06:11:31.000+02:00</time>
            </trkpt>
            <trkpt lat="37.736362" lon="-3.524435">
                <ele>1936.713135</ele>
                <time>2009-07-05T06:11:48.000+02:00</time>
            </trkpt>
            <trkpt lat="37.736440" lon="-3.524722">
                <ele>1938.155273</ele>
                <time>2009-07-05T06:12:04.000+02:00</time>
            </trkpt>
            <trkpt lat="37.736541" lon="-3.525003">
                <ele>1939.597168</ele>
                <time>2009-07-05T06:12:19.000+02:00</time>
            </trkpt>
            <trkpt lat="37.736521" lon="-3.525351">
                <ele>1941.519775</ele>
                <time>2009-07-05T06:12:35.000+02:00</time>
            </trkpt>
            <trkpt lat="37.736463" lon="-3.525536">
                <ele>1942.481201</ele>
                <time>2009-07-05T06:12:44.000+02:00</time>
            </trkpt>
            <trkpt lat="37.736418" lon="-3.525706">
                <ele>1943.923096</ele>
                <time>2009-07-05T06:12:53.000+02:00</time>
            </trkpt>
            <trkpt lat="37.736415" lon="-3.526037">
                <ele>1946.806885</ele>
                <time>2009-07-05T06:13:11.000+02:00</time>
            </trkpt>
            <trkpt lat="37.736366" lon="-3.526280">
                <ele>1947.768311</ele>
                <time>2009-07-05T06:13:23.000+02:00</time>
            </trkpt>
            <trkpt lat="37.736231" lon="-3.526502">
                <ele>1949.210449</ele>
                <time>2009-07-05T06:13:36.000+02:00</time>
            </trkpt>
            <trkpt lat="37.735987" lon="-3.526597">
                <ele>1950.652344</ele>
                <time>2009-07-05T06:13:51.000+02:00</time>
            </trkpt>
            <trkpt lat="37.735805" lon="-3.526584">
                <ele>1952.574951</ele>
                <time>2009-07-05T06:14:04.000+02:00</time>
            </trkpt>
            <trkpt lat="37.735600" lon="-3.526484">
                <ele>1954.017090</ele>
                <time>2009-07-05T06:14:20.000+02:00</time>
            </trkpt>
            <trkpt lat="37.735405" lon="-3.526332">
                <ele>1955.939453</ele>
                <time>2009-07-05T06:14:36.000+02:00</time>
            </trkpt>
            <trkpt lat="37.735271" lon="-3.526133">
                <ele>1957.381592</ele>
                <time>2009-07-05T06:14:51.000+02:00</time>
            </trkpt>
            <trkpt lat="37.735193" lon="-3.525910">
                <ele>1958.823486</ele>
                <time>2009-07-05T06:15:05.000+02:00</time>
            </trkpt>
            <trkpt lat="37.735155" lon="-3.525668">
                <ele>1960.746094</ele>
                <time>2009-07-05T06:15:20.000+02:00</time>
            </trkpt>
            <trkpt lat="37.735135" lon="-3.525614">
                <ele>1961.226807</ele>
                <time>2009-07-05T06:15:25.000+02:00</time>
            </trkpt>
            <trkpt lat="37.735114" lon="-3.525535">
                <ele>1961.707519</ele>
                <time>2009-07-05T06:15:30.000+02:00</time>
            </trkpt>
            <trkpt lat="37.735074" lon="-3.525261">
                <ele>1963.629883</ele>
                <time>2009-07-05T06:15:47.000+02:00</time>
            </trkpt>
            <trkpt lat="37.735074" lon="-3.524985">
                <ele>1966.033447</ele>
                <time>2009-07-05T06:16:04.000+02:00</time>
            </trkpt>
            <trkpt lat="37.735089" lon="-3.524686">
                <ele>1967.956055</ele>
                <time>2009-07-05T06:16:23.000+02:00</time>
            </trkpt>
            <trkpt lat="37.735082" lon="-3.524583">
                <ele>1968.917481</ele>
                <time>2009-07-05T06:16:30.000+02:00</time>
            </trkpt>
            <trkpt lat="37.735095" lon="-3.524299">
                <ele>1970.359375</ele>
                <time>2009-07-05T06:16:47.000+02:00</time>
            </trkpt>
            <trkpt lat="37.735075" lon="-3.524069">
                <ele>1971.801269</ele>
                <time>2009-07-05T06:17:01.000+02:00</time>
            </trkpt>
            <trkpt lat="37.735090" lon="-3.523847">
                <ele>1973.243408</ele>
                <time>2009-07-05T06:17:14.000+02:00</time>
            </trkpt>
            <trkpt lat="37.735103" lon="-3.523726">
                <ele>1973.723877</ele>
                <time>2009-07-05T06:17:22.000+02:00</time>
            </trkpt>
            <trkpt lat="37.735093" lon="-3.523455">
                <ele>1975.646484</ele>
                <time>2009-07-05T06:17:38.000+02:00</time>
            </trkpt>
            <trkpt lat="37.735031" lon="-3.523311">
                <ele>1976.607910</ele>
                <time>2009-07-05T06:17:47.000+02:00</time>
            </trkpt>
            <trkpt lat="37.734916" lon="-3.523288">
                <ele>1977.569092</ele>
                <time>2009-07-05T06:17:56.000+02:00</time>
            </trkpt>
            <trkpt lat="37.734807" lon="-3.523408">
                <ele>1978.049805</ele>
                <time>2009-07-05T06:18:06.000+02:00</time>
            </trkpt>
            <trkpt lat="37.734684" lon="-3.523646">
                <ele>1979.010986</ele>
                <time>2009-07-05T06:18:22.000+02:00</time>
            </trkpt>
            <trkpt lat="37.734520" lon="-3.523908">
                <ele>1980.453369</ele>
                <time>2009-07-05T06:18:40.000+02:00</time>
            </trkpt>
            <trkpt lat="37.734438" lon="-3.524070">
                <ele>1981.895264</ele>
                <time>2009-07-05T06:18:51.000+02:00</time>
            </trkpt>
            <trkpt lat="37.734314" lon="-3.524294">
                <ele>1983.337158</ele>
                <time>2009-07-05T06:19:07.000+02:00</time>
            </trkpt>
            <trkpt lat="37.734212" lon="-3.524499">
                <ele>1985.259766</ele>
                <time>2009-07-05T06:19:21.000+02:00</time>
            </trkpt>
            <trkpt lat="37.734113" lon="-3.524675">
                <ele>1986.701660</ele>
                <time>2009-07-05T06:19:33.000+02:00</time>
            </trkpt>
            <trkpt lat="37.734081" lon="-3.524753">
                <ele>1987.182373</ele>
                <time>2009-07-05T06:19:39.000+02:00</time>
            </trkpt>
            <trkpt lat="37.733952" lon="-3.524957">
                <ele>1989.585693</ele>
                <time>2009-07-05T06:19:54.000+02:00</time>
            </trkpt>
            <trkpt lat="37.733766" lon="-3.525171">
                <ele>1991.508301</ele>
                <time>2009-07-05T06:20:11.000+02:00</time>
            </trkpt>
            <trkpt lat="37.733568" lon="-3.525360">
                <ele>1993.911621</ele>
                <time>2009-07-05T06:20:29.000+02:00</time>
            </trkpt>
            <trkpt lat="37.733422" lon="-3.525542">
                <ele>1995.834229</ele>
                <time>2009-07-05T06:20:44.000+02:00</time>
            </trkpt>
            <trkpt lat="37.733379" lon="-3.525786">
                <ele>1997.276367</ele>
                <time>2009-07-05T06:20:57.000+02:00</time>
            </trkpt>
            <trkpt lat="37.733406" lon="-3.525996">
                <ele>1997.757080</ele>
                <time>2009-07-05T06:21:08.000+02:00</time>
            </trkpt>
            <trkpt lat="37.733421" lon="-3.526099">
                <ele>1998.237549</ele>
                <time>2009-07-05T06:21:13.000+02:00</time>
            </trkpt>
            <trkpt lat="37.733500" lon="-3.526427">
                <ele>2000.640869</ele>
                <time>2009-07-05T06:21:30.000+02:00</time>
            </trkpt>
            <trkpt lat="37.733572" lon="-3.526590">
                <ele>2002.563477</ele>
                <time>2009-07-05T06:21:38.000+02:00</time>
            </trkpt>
            <trkpt lat="37.733726" lon="-3.526740">
                <ele>2004.486084</ele>
                <time>2009-07-05T06:21:52.000+02:00</time>
            </trkpt>
            <trkpt lat="37.733771" lon="-3.526762">
                <ele>2004.966797</ele>
                <time>2009-07-05T06:21:55.000+02:00</time>
            </trkpt>
            <trkpt lat="37.733942" lon="-3.526782">
                <ele>2005.927979</ele>
                <time>2009-07-05T06:22:05.000+02:00</time>
            </trkpt>
            <trkpt lat="37.734010" lon="-3.526753">
                <ele>2005.927979</ele>
                <time>2009-07-05T06:22:10.000+02:00</time>
            </trkpt>
            <trkpt lat="37.734173" lon="-3.526546">
                <ele>2008.331299</ele>
                <time>2009-07-05T06:22:25.000+02:00</time>
            </trkpt>
            <trkpt lat="37.734235" lon="-3.526331">
                <ele>2010.253906</ele>
                <time>2009-07-05T06:22:39.000+02:00</time>
            </trkpt>
            <trkpt lat="37.734239" lon="-3.526121">
                <ele>2012.176758</ele>
                <time>2009-07-05T06:22:53.000+02:00</time>
            </trkpt>
            <trkpt lat="37.734247" lon="-3.526077">
                <ele>2013.138184</ele>
                <time>2009-07-05T06:22:56.000+02:00</time>
            </trkpt>
            <trkpt lat="37.734212" lon="-3.525810">
                <ele>2015.541504</ele>
                <time>2009-07-05T06:23:15.000+02:00</time>
            </trkpt>
            <trkpt lat="37.734219" lon="-3.525761">
                <ele>2016.021973</ele>
                <time>2009-07-05T06:23:22.000+02:00</time>
            </trkpt>
            <trkpt lat="37.734201" lon="-3.525720">
                <ele>2016.021973</ele>
                <time>2009-07-05T06:23:35.000+02:00</time>
            </trkpt>
            <trkpt lat="37.734183" lon="-3.525713">
                <ele>2016.502686</ele>
                <time>2009-07-05T06:24:05.000+02:00</time>
            </trkpt>
            <trkpt lat="37.734170" lon="-3.525663">
                <ele>2019.386719</ele>
                <time>2009-07-05T06:33:07.000+02:00</time>
            </trkpt>
            <trkpt lat="37.734159" lon="-3.525659">
                <ele>2022.751221</ele>
                <time>2009-07-05T06:38:59.000+02:00</time>
            </trkpt>
            <trkpt lat="37.734166" lon="-3.525650">
                <ele>2025.635010</ele>
                <time>2009-07-05T06:47:13.000+02:00</time>
            </trkpt>
            <trkpt lat="37.734177" lon="-3.525666">
                <ele>2028.999756</ele>
                <time>2009-07-05T06:58:16.000+02:00</time>
            </trkpt>
            <trkpt lat="37.734215" lon="-3.525747">
                <ele>2027.557617</ele>
                <time>2009-07-05T06:59:32.000+02:00</time>
            </trkpt>
            <trkpt lat="37.734281" lon="-3.525976">
                <ele>2024.673828</ele>
                <time>2009-07-05T06:59:40.000+02:00</time>
            </trkpt>
            <trkpt lat="37.734279" lon="-3.526085">
                <ele>2023.231934</ele>
                <time>2009-07-05T06:59:42.000+02:00</time>
            </trkpt>
            <trkpt lat="37.734262" lon="-3.526254">
                <ele>2021.789795</ele>
                <time>2009-07-05T06:59:45.000+02:00</time>
            </trkpt>
            <trkpt lat="37.734250" lon="-3.526321">
                <ele>2020.828613</ele>
                <time>2009-07-05T06:59:46.000+02:00</time>
            </trkpt>
            <trkpt lat="37.734212" lon="-3.526456">
                <ele>2020.347900</ele>
                <time>2009-07-05T06:59:48.000+02:00</time>
            </trkpt>
            <trkpt lat="37.734176" lon="-3.526569">
                <ele>2019.867188</ele>
                <time>2009-07-05T06:59:50.000+02:00</time>
            </trkpt>
            <trkpt lat="37.733972" lon="-3.526802">
                <ele>2018.425293</ele>
                <time>2009-07-05T06:59:56.000+02:00</time>
            </trkpt>
            <trkpt lat="37.733607" lon="-3.526608">
                <ele>2015.541504</ele>
                <time>2009-07-05T07:00:04.000+02:00</time>
            </trkpt>
            <trkpt lat="37.733426" lon="-3.526166">
                <ele>2012.657471</ele>
                <time>2009-07-05T07:00:16.000+02:00</time>
            </trkpt>
            <trkpt lat="37.733385" lon="-3.525735">
                <ele>2010.734619</ele>
                <time>2009-07-05T07:00:25.000+02:00</time>
            </trkpt>
            <trkpt lat="37.733452" lon="-3.525486">
                <ele>2009.292725</ele>
                <time>2009-07-05T07:00:30.000+02:00</time>
            </trkpt>
            <trkpt lat="37.733578" lon="-3.525331">
                <ele>2007.370117</ele>
                <time>2009-07-05T07:00:34.000+02:00</time>
            </trkpt>
            <trkpt lat="37.733748" lon="-3.525188">
                <ele>2004.966797</ele>
                <time>2009-07-05T07:00:38.000+02:00</time>
            </trkpt>
            <trkpt lat="37.733819" lon="-3.525109">
                <ele>2004.966797</ele>
                <time>2009-07-05T07:00:40.000+02:00</time>
            </trkpt>
            <trkpt lat="37.733969" lon="-3.524914">
                <ele>2003.524902</ele>
                <time>2009-07-05T07:00:46.000+02:00</time>
            </trkpt>
            <trkpt lat="37.734083" lon="-3.524740">
                <ele>2001.602295</ele>
                <time>2009-07-05T07:00:51.000+02:00</time>
            </trkpt>
            <trkpt lat="37.734199" lon="-3.524524">
                <ele>1999.679688</ele>
                <time>2009-07-05T07:00:56.000+02:00</time>
            </trkpt>
            <trkpt lat="37.734342" lon="-3.524259">
                <ele>1997.757080</ele>
                <time>2009-07-05T07:01:01.000+02:00</time>
            </trkpt>
            <trkpt lat="37.734510" lon="-3.523956">
                <ele>1994.872803</ele>
                <time>2009-07-05T07:01:06.000+02:00</time>
            </trkpt>
            <trkpt lat="37.734546" lon="-3.523893">
                <ele>1994.392090</ele>
                <time>2009-07-05T07:01:07.000+02:00</time>
            </trkpt>
            <trkpt lat="37.734670" lon="-3.523675">
                <ele>1992.469727</ele>
                <time>2009-07-05T07:01:10.000+02:00</time>
            </trkpt>
            <trkpt lat="37.734816" lon="-3.523412">
                <ele>1991.989014</ele>
                <time>2009-07-05T07:01:14.000+02:00</time>
            </trkpt>
            <trkpt lat="37.735106" lon="-3.523366">
                <ele>1989.585693</ele>
                <time>2009-07-05T07:01:22.000+02:00</time>
            </trkpt>
            <trkpt lat="37.735135" lon="-3.523512">
                <ele>1988.624512</ele>
                <time>2009-07-05T07:01:25.000+02:00</time>
            </trkpt>
            <trkpt lat="37.735149" lon="-3.523996">
                <ele>1984.779297</ele>
                <time>2009-07-05T07:01:33.000+02:00</time>
            </trkpt>
            <trkpt lat="37.735168" lon="-3.524313">
                <ele>1981.414551</ele>
                <time>2009-07-05T07:01:37.000+02:00</time>
            </trkpt>
            <trkpt lat="37.735171" lon="-3.524394">
                <ele>1981.414551</ele>
                <time>2009-07-05T07:01:38.000+02:00</time>
            </trkpt>
            <trkpt lat="37.735176" lon="-3.524636">
                <ele>1979.491699</ele>
                <time>2009-07-05T07:01:41.000+02:00</time>
            </trkpt>
            <trkpt lat="37.735159" lon="-3.524984">
                <ele>1976.607910</ele>
                <time>2009-07-05T07:01:45.000+02:00</time>
            </trkpt>
            <trkpt lat="37.735178" lon="-3.525568">
                <ele>1973.723877</ele>
                <time>2009-07-05T07:01:51.000+02:00</time>
            </trkpt>
            <trkpt lat="37.735255" lon="-3.525958">
                <ele>1970.359375</ele>
                <time>2009-07-05T07:01:55.000+02:00</time>
            </trkpt>
            <trkpt lat="37.735616" lon="-3.526471">
                <ele>1965.552979</ele>
                <time>2009-07-05T07:02:02.000+02:00</time>
            </trkpt>
            <trkpt lat="37.736078" lon="-3.526609">
                <ele>1964.591553</ele>
                <time>2009-07-05T07:02:09.000+02:00</time>
            </trkpt>
            <trkpt lat="37.736212" lon="-3.526576">
                <ele>1964.591553</ele>
                <time>2009-07-05T07:02:19.000+02:00</time>
            </trkpt>
            <trkpt lat="37.736235" lon="-3.526557">
                <ele>1965.072266</ele>
                <time>2009-07-05T07:02:43.000+02:00</time>
            </trkpt>
            <trkpt lat="37.736238" lon="-3.526546">
                <ele>1964.591553</ele>
                <time>2009-07-05T07:03:13.000+02:00</time>
            </trkpt>
            <trkpt lat="37.736364" lon="-3.526262">
                <ele>1962.668701</ele>
                <time>2009-07-05T07:03:22.000+02:00</time>
            </trkpt>
            <trkpt lat="37.736403" lon="-3.526067">
                <ele>1961.226807</ele>
                <time>2009-07-05T07:03:25.000+02:00</time>
            </trkpt>
            <trkpt lat="37.736403" lon="-3.525845">
                <ele>1959.784668</ele>
                <time>2009-07-05T07:03:28.000+02:00</time>
            </trkpt>
            <trkpt lat="37.736445" lon="-3.525537">
                <ele>1958.342773</ele>
                <time>2009-07-05T07:03:32.000+02:00</time>
            </trkpt>
            <trkpt lat="37.736515" lon="-3.525304">
                <ele>1955.939453</ele>
                <time>2009-07-05T07:03:35.000+02:00</time>
            </trkpt>
            <trkpt lat="37.736415" lon="-3.524630">
                <ele>1952.574951</ele>
                <time>2009-07-05T07:03:44.000+02:00</time>
            </trkpt>
            <trkpt lat="37.736363" lon="-3.524382">
                <ele>1952.094238</ele>
                <time>2009-07-05T07:03:47.000+02:00</time>
            </trkpt>
            <trkpt lat="37.736323" lon="-3.523819">
                <ele>1949.210449</ele>
                <time>2009-07-05T07:03:53.000+02:00</time>
            </trkpt>
            <trkpt lat="37.736345" lon="-3.523525">
                <ele>1948.249023</ele>
                <time>2009-07-05T07:03:57.000+02:00</time>
            </trkpt>
            <trkpt lat="37.736633" lon="-3.523261">
                <ele>1944.403564</ele>
                <time>2009-07-05T07:04:03.000+02:00</time>
            </trkpt>
            <trkpt lat="37.736864" lon="-3.523369">
                <ele>1942.000488</ele>
                <time>2009-07-05T07:04:07.000+02:00</time>
            </trkpt>
            <trkpt lat="37.737138" lon="-3.523583">
                <ele>1939.597168</ele>
                <time>2009-07-05T07:04:11.000+02:00</time>
            </trkpt>
            <trkpt lat="37.737428" lon="-3.523943">
                <ele>1937.193848</ele>
                <time>2009-07-05T07:04:16.000+02:00</time>
            </trkpt>
            <trkpt lat="37.737672" lon="-3.524456">
                <ele>1933.348633</ele>
                <time>2009-07-05T07:04:24.000+02:00</time>
            </trkpt>
            <trkpt lat="37.737759" lon="-3.524832">
                <ele>1930.945312</ele>
                <time>2009-07-05T07:04:29.000+02:00</time>
            </trkpt>
            <trkpt lat="37.737860" lon="-3.525250">
                <ele>1927.580566</ele>
                <time>2009-07-05T07:04:34.000+02:00</time>
            </trkpt>
            <trkpt lat="37.737921" lon="-3.525590">
                <ele>1924.696777</ele>
                <time>2009-07-05T07:04:38.000+02:00</time>
            </trkpt>
            <trkpt lat="37.738015" lon="-3.526128">
                <ele>1920.851562</ele>
                <time>2009-07-05T07:04:44.000+02:00</time>
            </trkpt>
            <trkpt lat="37.738108" lon="-3.526534">
                <ele>1917.967529</ele>
                <time>2009-07-05T07:04:48.000+02:00</time>
            </trkpt>
            <trkpt lat="37.738156" lon="-3.526748">
                <ele>1916.525635</ele>
                <time>2009-07-05T07:04:50.000+02:00</time>
            </trkpt>
            <trkpt lat="37.738233" lon="-3.527046">
                <ele>1914.602783</ele>
                <time>2009-07-05T07:04:53.000+02:00</time>
            </trkpt>
            <trkpt lat="37.738353" lon="-3.527511">
                <ele>1911.238281</ele>
                <time>2009-07-05T07:04:58.000+02:00</time>
            </trkpt>
            <trkpt lat="37.738370" lon="-3.527599">
                <ele>1910.757568</ele>
                <time>2009-07-05T07:04:59.000+02:00</time>
            </trkpt>
            <trkpt lat="37.738391" lon="-3.527873">
                <ele>1908.354248</ele>
                <time>2009-07-05T07:05:02.000+02:00</time>
            </trkpt>
            <trkpt lat="37.738330" lon="-3.528381">
                <ele>1904.028564</ele>
                <time>2009-07-05T07:05:07.000+02:00</time>
            </trkpt>
            <trkpt lat="37.738206" lon="-3.528912">
                <ele>1901.625244</ele>
                <time>2009-07-05T07:05:12.000+02:00</time>
            </trkpt>
            <trkpt lat="37.738047" lon="-3.529288">
                <ele>1897.779785</ele>
                <time>2009-07-05T07:05:16.000+02:00</time>
            </trkpt>
            <trkpt lat="37.738000" lon="-3.529376">
                <ele>1897.779785</ele>
                <time>2009-07-05T07:05:17.000+02:00</time>
            </trkpt>
            <trkpt lat="37.737808" lon="-3.529740">
                <ele>1894.895752</ele>
                <time>2009-07-05T07:05:22.000+02:00</time>
            </trkpt>
            <trkpt lat="37.737649" lon="-3.530033">
                <ele>1892.492676</ele>
                <time>2009-07-05T07:05:26.000+02:00</time>
            </trkpt>
            <trkpt lat="37.737428" lon="-3.530364">
                <ele>1889.127930</ele>
                <time>2009-07-05T07:05:31.000+02:00</time>
            </trkpt>
            <trkpt lat="37.737385" lon="-3.530424">
                <ele>1889.127930</ele>
                <time>2009-07-05T07:05:32.000+02:00</time>
            </trkpt>
            <trkpt lat="37.737153" lon="-3.530737">
                <ele>1885.763428</ele>
                <time>2009-07-05T07:05:37.000+02:00</time>
            </trkpt>
            <trkpt lat="37.736861" lon="-3.531079">
                <ele>1881.917969</ele>
                <time>2009-07-05T07:05:42.000+02:00</time>
            </trkpt>
            <trkpt lat="37.736731" lon="-3.531195">
                <ele>1880.956787</ele>
                <time>2009-07-05T07:05:44.000+02:00</time>
            </trkpt>
            <trkpt lat="37.736370" lon="-3.531374">
                <ele>1879.514648</ele>
                <time>2009-07-05T07:05:51.000+02:00</time>
            </trkpt>
            <trkpt lat="37.736166" lon="-3.531408">
                <ele>1877.592041</ele>
                <time>2009-07-05T07:05:54.000+02:00</time>
            </trkpt>
            <trkpt lat="37.735826" lon="-3.531287">
                <ele>1876.630859</ele>
                <time>2009-07-05T07:06:02.000+02:00</time>
            </trkpt>
            <trkpt lat="37.735605" lon="-3.531099">
                <ele>1875.188721</ele>
                <time>2009-07-05T07:06:09.000+02:00</time>
            </trkpt>
            <trkpt lat="37.735167" lon="-3.530844">
                <ele>1872.785644</ele>
                <time>2009-07-05T07:06:22.000+02:00</time>
            </trkpt>
            <trkpt lat="37.735043" lon="-3.530983">
                <ele>1872.304932</ele>
                <time>2009-07-05T07:06:27.000+02:00</time>
            </trkpt>
            <trkpt lat="37.735175" lon="-3.531195">
                <ele>1869.901611</ele>
                <time>2009-07-05T07:06:32.000+02:00</time>
            </trkpt>
            <trkpt lat="37.735386" lon="-3.531408">
                <ele>1866.056152</ele>
                <time>2009-07-05T07:06:36.000+02:00</time>
            </trkpt>
            <trkpt lat="37.735448" lon="-3.531471">
                <ele>1866.056152</ele>
                <time>2009-07-05T07:06:37.000+02:00</time>
            </trkpt>
            <trkpt lat="37.735783" lon="-3.531809">
                <ele>1861.730469</ele>
                <time>2009-07-05T07:06:42.000+02:00</time>
            </trkpt>
            <trkpt lat="37.735859" lon="-3.531880">
                <ele>1861.730469</ele>
                <time>2009-07-05T07:06:43.000+02:00</time>
            </trkpt>
            <trkpt lat="37.736163" lon="-3.532087">
                <ele>1858.365723</ele>
                <time>2009-07-05T07:06:47.000+02:00</time>
            </trkpt>
            <trkpt lat="37.736327" lon="-3.532133">
                <ele>1857.404541</ele>
                <time>2009-07-05T07:06:49.000+02:00</time>
            </trkpt>
            <trkpt lat="37.736584" lon="-3.532129">
                <ele>1856.443115</ele>
                <time>2009-07-05T07:06:53.000+02:00</time>
            </trkpt>
            <trkpt lat="37.736989" lon="-3.531928">
                <ele>1851.155762</ele>
                <time>2009-07-05T07:06:59.000+02:00</time>
            </trkpt>
            <trkpt lat="37.737312" lon="-3.531702">
                <ele>1848.271729</ele>
                <time>2009-07-05T07:07:03.000+02:00</time>
            </trkpt>
            <trkpt lat="37.737602" lon="-3.531472">
                <ele>1844.907227</ele>
                <time>2009-07-05T07:07:07.000+02:00</time>
            </trkpt>
            <trkpt lat="37.737677" lon="-3.531411">
                <ele>1844.907227</ele>
                <time>2009-07-05T07:07:08.000+02:00</time>
            </trkpt>
            <trkpt lat="37.738003" lon="-3.531151">
                <ele>1841.062012</ele>
                <time>2009-07-05T07:07:12.000+02:00</time>
            </trkpt>
            <trkpt lat="37.738085" lon="-3.531092">
                <ele>1841.062012</ele>
                <time>2009-07-05T07:07:13.000+02:00</time>
            </trkpt>
            <trkpt lat="37.738402" lon="-3.530823">
                <ele>1838.178223</ele>
                <time>2009-07-05T07:07:17.000+02:00</time>
            </trkpt>
            <trkpt lat="37.738853" lon="-3.530441">
                <ele>1835.293945</ele>
                <time>2009-07-05T07:07:25.000+02:00</time>
            </trkpt>
            <trkpt lat="37.739132" lon="-3.530171">
                <ele>1831.929443</ele>
                <time>2009-07-05T07:07:30.000+02:00</time>
            </trkpt>
            <trkpt lat="37.739390" lon="-3.529898">
                <ele>1830.006836</ele>
                <time>2009-07-05T07:07:35.000+02:00</time>
            </trkpt>
            <trkpt lat="37.739511" lon="-3.529757">
                <ele>1829.045410</ele>
                <time>2009-07-05T07:07:38.000+02:00</time>
            </trkpt>
            <trkpt lat="37.739683" lon="-3.529494">
                <ele>1825.680908</ele>
                <time>2009-07-05T07:07:42.000+02:00</time>
            </trkpt>
            <trkpt lat="37.739989" lon="-3.529022">
                <ele>1822.316406</ele>
                <time>2009-07-05T07:07:48.000+02:00</time>
            </trkpt>
            <trkpt lat="37.740141" lon="-3.528768">
                <ele>1820.874512</ele>
                <time>2009-07-05T07:07:51.000+02:00</time>
            </trkpt>
            <trkpt lat="37.740334" lon="-3.528438">
                <ele>1817.509521</ele>
                <time>2009-07-05T07:07:55.000+02:00</time>
            </trkpt>
            <trkpt lat="37.740382" lon="-3.528352">
                <ele>1817.509521</ele>
                <time>2009-07-05T07:07:56.000+02:00</time>
            </trkpt>
            <trkpt lat="37.740546" lon="-3.527978">
                <ele>1813.664307</ele>
                <time>2009-07-05T07:08:00.000+02:00</time>
            </trkpt>
            <trkpt lat="37.740580" lon="-3.527874">
                <ele>1813.183838</ele>
                <time>2009-07-05T07:08:01.000+02:00</time>
            </trkpt>
            <trkpt lat="37.740635" lon="-3.527671">
                <ele>1812.222412</ele>
                <time>2009-07-05T07:08:03.000+02:00</time>
            </trkpt>
            <trkpt lat="37.740612" lon="-3.527158">
                <ele>1807.416016</ele>
                <time>2009-07-05T07:08:09.000+02:00</time>
            </trkpt>
            <trkpt lat="37.740574" lon="-3.527090">
                <ele>1806.935303</ele>
                <time>2009-07-05T07:08:10.000+02:00</time>
            </trkpt>
            <trkpt lat="37.740357" lon="-3.526775">
                <ele>1804.531982</ele>
                <time>2009-07-05T07:08:15.000+02:00</time>
            </trkpt>
            <trkpt lat="37.740271" lon="-3.526555">
                <ele>1803.089844</ele>
                <time>2009-07-05T07:08:18.000+02:00</time>
            </trkpt>
            <trkpt lat="37.740255" lon="-3.526394">
                <ele>1802.609131</ele>
                <time>2009-07-05T07:08:20.000+02:00</time>
            </trkpt>
            <trkpt lat="37.740252" lon="-3.525629">
                <ele>1799.244629</ele>
                <time>2009-07-05T07:08:28.000+02:00</time>
            </trkpt>
            <trkpt lat="37.740250" lon="-3.525523">
                <ele>1798.763916</ele>
                <time>2009-07-05T07:08:29.000+02:00</time>
            </trkpt>
            <trkpt lat="37.740269" lon="-3.525099">
                <ele>1796.841309</ele>
                <time>2009-07-05T07:08:33.000+02:00</time>
            </trkpt>
            <trkpt lat="37.740293" lon="-3.524191">
                <ele>1793.476807</ele>
                <time>2009-07-05T07:08:42.000+02:00</time>
            </trkpt>
            <trkpt lat="37.740310" lon="-3.524059">
                <ele>1793.476807</ele>
                <time>2009-07-05T07:08:44.000+02:00</time>
            </trkpt>
            <trkpt lat="37.740493" lon="-3.523958">
                <ele>1789.631592</ele>
                <time>2009-07-05T07:08:49.000+02:00</time>
            </trkpt>
            <trkpt lat="37.740573" lon="-3.524126">
                <ele>1786.747314</ele>
                <time>2009-07-05T07:08:52.000+02:00</time>
            </trkpt>
            <trkpt lat="37.740569" lon="-3.524199">
                <ele>1786.747314</ele>
                <time>2009-07-05T07:08:53.000+02:00</time>
            </trkpt>
            <trkpt lat="37.740536" lon="-3.524434">
                <ele>1785.305420</ele>
                <time>2009-07-05T07:08:56.000+02:00</time>
            </trkpt>
            <trkpt lat="37.740537" lon="-3.525171">
                <ele>1781.940918</ele>
                <time>2009-07-05T07:09:07.000+02:00</time>
            </trkpt>
            <trkpt lat="37.740596" lon="-3.525549">
                <ele>1780.018311</ele>
                <time>2009-07-05T07:09:13.000+02:00</time>
            </trkpt>
            <trkpt lat="37.740630" lon="-3.525712">
                <ele>1778.576416</ele>
                <time>2009-07-05T07:09:16.000+02:00</time>
            </trkpt>
            <trkpt lat="37.740734" lon="-3.526139">
                <ele>1775.692383</ele>
                <time>2009-07-05T07:09:22.000+02:00</time>
            </trkpt>
            <trkpt lat="37.741047" lon="-3.526473">
                <ele>1772.327881</ele>
                <time>2009-07-05T07:09:30.000+02:00</time>
            </trkpt>
            <trkpt lat="37.741352" lon="-3.526629">
                <ele>1769.924316</ele>
                <time>2009-07-05T07:09:36.000+02:00</time>
            </trkpt>
            <trkpt lat="37.741459" lon="-3.526703">
                <ele>1768.963135</ele>
                <time>2009-07-05T07:09:38.000+02:00</time>
            </trkpt>
            <trkpt lat="37.741687" lon="-3.526951">
                <ele>1765.117920</ele>
                <time>2009-07-05T07:09:43.000+02:00</time>
            </trkpt>
            <trkpt lat="37.741807" lon="-3.527157">
                <ele>1762.714600</ele>
                <time>2009-07-05T07:09:46.000+02:00</time>
            </trkpt>
            <trkpt lat="37.741909" lon="-3.527478">
                <ele>1759.350098</ele>
                <time>2009-07-05T07:09:50.000+02:00</time>
            </trkpt>
            <trkpt lat="37.741917" lon="-3.527573">
                <ele>1758.869385</ele>
                <time>2009-07-05T07:09:51.000+02:00</time>
            </trkpt>
            <trkpt lat="37.741919" lon="-3.527977">
                <ele>1755.023926</ele>
                <time>2009-07-05T07:09:55.000+02:00</time>
            </trkpt>
            <trkpt lat="37.741830" lon="-3.528511">
                <ele>1751.178711</ele>
                <time>2009-07-05T07:10:00.000+02:00</time>
            </trkpt>
            <trkpt lat="37.741779" lon="-3.528738">
                <ele>1749.736816</ele>
                <time>2009-07-05T07:10:02.000+02:00</time>
            </trkpt>
            <trkpt lat="37.741662" lon="-3.529210">
                <ele>1746.852783</ele>
                <time>2009-07-05T07:10:06.000+02:00</time>
            </trkpt>
            <trkpt lat="37.741568" lon="-3.529542">
                <ele>1744.930176</ele>
                <time>2009-07-05T07:10:09.000+02:00</time>
            </trkpt>
            <trkpt lat="37.741425" lon="-3.529990">
                <ele>1741.084961</ele>
                <time>2009-07-05T07:10:13.000+02:00</time>
            </trkpt>
            <trkpt lat="37.741258" lon="-3.530449">
                <ele>1738.200928</ele>
                <time>2009-07-05T07:10:17.000+02:00</time>
            </trkpt>
            <trkpt lat="37.741124" lon="-3.530787">
                <ele>1734.836426</ele>
                <time>2009-07-05T07:10:20.000+02:00</time>
            </trkpt>
            <trkpt lat="37.740947" lon="-3.531227">
                <ele>1730.991211</ele>
                <time>2009-07-05T07:10:24.000+02:00</time>
            </trkpt>
            <trkpt lat="37.740759" lon="-3.531678">
                <ele>1728.107178</ele>
                <time>2009-07-05T07:10:28.000+02:00</time>
            </trkpt>
            <trkpt lat="37.740672" lon="-3.531914">
                <ele>1726.665283</ele>
                <time>2009-07-05T07:10:30.000+02:00</time>
            </trkpt>
            <trkpt lat="37.740530" lon="-3.532287">
                <ele>1723.300537</ele>
                <time>2009-07-05T07:10:33.000+02:00</time>
            </trkpt>
            <trkpt lat="37.740484" lon="-3.532402">
                <ele>1723.300537</ele>
                <time>2009-07-05T07:10:34.000+02:00</time>
            </trkpt>
            <trkpt lat="37.740350" lon="-3.532739">
                <ele>1719.935791</ele>
                <time>2009-07-05T07:10:37.000+02:00</time>
            </trkpt>
            <trkpt lat="37.740154" lon="-3.533181">
                <ele>1716.571289</ele>
                <time>2009-07-05T07:10:41.000+02:00</time>
            </trkpt>
            <trkpt lat="37.739810" lon="-3.533756">
                <ele>1712.726074</ele>
                <time>2009-07-05T07:10:47.000+02:00</time>
            </trkpt>
            <trkpt lat="37.739553" lon="-3.534123">
                <ele>1709.842041</ele>
                <time>2009-07-05T07:10:51.000+02:00</time>
            </trkpt>
            <trkpt lat="37.739321" lon="-3.534548">
                <ele>1705.996582</ele>
                <time>2009-07-05T07:10:55.000+02:00</time>
            </trkpt>
            <trkpt lat="37.739223" lon="-3.534781">
                <ele>1705.035400</ele>
                <time>2009-07-05T07:10:57.000+02:00</time>
            </trkpt>
            <trkpt lat="37.739105" lon="-3.535120">
                <ele>1703.112793</ele>
                <time>2009-07-05T07:11:00.000+02:00</time>
            </trkpt>
            <trkpt lat="37.738928" lon="-3.535551">
                <ele>1699.748291</ele>
                <time>2009-07-05T07:11:04.000+02:00</time>
            </trkpt>
            <trkpt lat="37.738704" lon="-3.535976">
                <ele>1696.864258</ele>
                <time>2009-07-05T07:11:08.000+02:00</time>
            </trkpt>
            <trkpt lat="37.738314" lon="-3.536536">
                <ele>1693.499756</ele>
                <time>2009-07-05T07:11:15.000+02:00</time>
            </trkpt>
            <trkpt lat="37.738235" lon="-3.536818">
                <ele>1692.538574</ele>
                <time>2009-07-05T07:11:20.000+02:00</time>
            </trkpt>
            <trkpt lat="37.738438" lon="-3.536966">
                <ele>1690.135010</ele>
                <time>2009-07-05T07:11:30.000+02:00</time>
            </trkpt>
            <trkpt lat="37.738675" lon="-3.536594">
                <ele>1687.731689</ele>
                <time>2009-07-05T07:11:43.000+02:00</time>
            </trkpt>
            <trkpt lat="37.738814" lon="-3.536164">
                <ele>1684.367188</ele>
                <time>2009-07-05T07:11:54.000+02:00</time>
            </trkpt>
            <trkpt lat="37.739018" lon="-3.535951">
                <ele>1681.963867</ele>
                <time>2009-07-05T07:12:00.000+02:00</time>
            </trkpt>
            <trkpt lat="37.739103" lon="-3.535869">
                <ele>1681.483154</ele>
                <time>2009-07-05T07:12:02.000+02:00</time>
            </trkpt>
            <trkpt lat="37.739362" lon="-3.535558">
                <ele>1678.118652</ele>
                <time>2009-07-05T07:12:08.000+02:00</time>
            </trkpt>
            <trkpt lat="37.739487" lon="-3.535359">
                <ele>1676.196045</ele>
                <time>2009-07-05T07:12:11.000+02:00</time>
            </trkpt>
            <trkpt lat="37.739527" lon="-3.535297">
                <ele>1675.715088</ele>
                <time>2009-07-05T07:12:12.000+02:00</time>
            </trkpt>
            <trkpt lat="37.739815" lon="-3.535035">
                <ele>1671.869873</ele>
                <time>2009-07-05T07:12:17.000+02:00</time>
            </trkpt>
            <trkpt lat="37.740184" lon="-3.534875">
                <ele>1668.024658</ele>
                <time>2009-07-05T07:12:22.000+02:00</time>
            </trkpt>
            <trkpt lat="37.740490" lon="-3.534733">
                <ele>1665.140869</ele>
                <time>2009-07-05T07:12:26.000+02:00</time>
            </trkpt>
            <trkpt lat="37.740712" lon="-3.534567">
                <ele>1661.295654</ele>
                <time>2009-07-05T07:12:29.000+02:00</time>
            </trkpt>
            <trkpt lat="37.740779" lon="-3.534513">
                <ele>1660.814941</ele>
                <time>2009-07-05T07:12:30.000+02:00</time>
            </trkpt>
            <trkpt lat="37.741155" lon="-3.534290">
                <ele>1657.930908</ele>
                <time>2009-07-05T07:12:36.000+02:00</time>
            </trkpt>
            <trkpt lat="37.741442" lon="-3.534167">
                <ele>1654.566162</ele>
                <time>2009-07-05T07:12:40.000+02:00</time>
            </trkpt>
            <trkpt lat="37.741729" lon="-3.534015">
                <ele>1651.201660</ele>
                <time>2009-07-05T07:12:44.000+02:00</time>
            </trkpt>
            <trkpt lat="37.741873" lon="-3.533913">
                <ele>1650.720947</ele>
                <time>2009-07-05T07:12:46.000+02:00</time>
            </trkpt>
            <trkpt lat="37.742280" lon="-3.533613">
                <ele>1645.914551</ele>
                <time>2009-07-05T07:12:52.000+02:00</time>
            </trkpt>
            <trkpt lat="37.742344" lon="-3.533568">
                <ele>1645.433838</ele>
                <time>2009-07-05T07:12:53.000+02:00</time>
            </trkpt>
            <trkpt lat="37.742616" lon="-3.533279">
                <ele>1643.030273</ele>
                <time>2009-07-05T07:12:59.000+02:00</time>
            </trkpt>
            <trkpt lat="37.742674" lon="-3.533147">
                <ele>1641.588379</ele>
                <time>2009-07-05T07:13:01.000+02:00</time>
            </trkpt>
            <trkpt lat="37.742717" lon="-3.532991">
                <ele>1640.626953</ele>
                <time>2009-07-05T07:13:03.000+02:00</time>
            </trkpt>
            <trkpt lat="37.742920" lon="-3.532642">
                <ele>1637.743164</ele>
                <time>2009-07-05T07:13:08.000+02:00</time>
            </trkpt>
            <trkpt lat="37.743099" lon="-3.532458">
                <ele>1635.339844</ele>
                <time>2009-07-05T07:13:11.000+02:00</time>
            </trkpt>
            <trkpt lat="37.743472" lon="-3.532266">
                <ele>1631.014160</ele>
                <time>2009-07-05T07:13:16.000+02:00</time>
            </trkpt>
            <trkpt lat="37.743947" lon="-3.532122">
                <ele>1627.168701</ele>
                <time>2009-07-05T07:13:21.000+02:00</time>
            </trkpt>
            <trkpt lat="37.744352" lon="-3.531853">
                <ele>1623.803955</ele>
                <time>2009-07-05T07:13:26.000+02:00</time>
            </trkpt>
            <trkpt lat="37.744599" lon="-3.531550">
                <ele>1620.920166</ele>
                <time>2009-07-05T07:13:30.000+02:00</time>
            </trkpt>
            <trkpt lat="37.744681" lon="-3.531387">
                <ele>1620.439453</ele>
                <time>2009-07-05T07:13:32.000+02:00</time>
            </trkpt>
            <trkpt lat="37.744825" lon="-3.530792">
                <ele>1616.113525</ele>
                <time>2009-07-05T07:13:39.000+02:00</time>
            </trkpt>
            <trkpt lat="37.744892" lon="-3.530525">
                <ele>1614.190918</ele>
                <time>2009-07-05T07:13:42.000+02:00</time>
            </trkpt>
            <trkpt lat="37.745007" lon="-3.530201">
                <ele>1611.787598</ele>
                <time>2009-07-05T07:13:46.000+02:00</time>
            </trkpt>
            <trkpt lat="37.745037" lon="-3.530117">
                <ele>1611.306885</ele>
                <time>2009-07-05T07:13:47.000+02:00</time>
            </trkpt>
            <trkpt lat="37.745041" lon="-3.529720">
                <ele>1608.422852</ele>
                <time>2009-07-05T07:13:51.000+02:00</time>
            </trkpt>
            <trkpt lat="37.745023" lon="-3.529539">
                <ele>1606.500244</ele>
                <time>2009-07-05T07:13:53.000+02:00</time>
            </trkpt>
            <trkpt lat="37.744998" lon="-3.529250">
                <ele>1604.097168</ele>
                <time>2009-07-05T07:13:56.000+02:00</time>
            </trkpt>
            <trkpt lat="37.744948" lon="-3.528881">
                <ele>1602.655029</ele>
                <time>2009-07-05T07:14:00.000+02:00</time>
            </trkpt>
            <trkpt lat="37.745025" lon="-3.528575">
                <ele>1600.732422</ele>
                <time>2009-07-05T07:14:04.000+02:00</time>
            </trkpt>
            <trkpt lat="37.745358" lon="-3.528167">
                <ele>1595.925781</ele>
                <time>2009-07-05T07:14:10.000+02:00</time>
            </trkpt>
            <trkpt lat="37.745579" lon="-3.527830">
                <ele>1593.522461</ele>
                <time>2009-07-05T07:14:14.000+02:00</time>
            </trkpt>
            <trkpt lat="37.745842" lon="-3.527318">
                <ele>1590.157959</ele>
                <time>2009-07-05T07:14:21.000+02:00</time>
            </trkpt>
            <trkpt lat="37.745872" lon="-3.527237">
                <ele>1589.196533</ele>
                <time>2009-07-05T07:14:22.000+02:00</time>
            </trkpt>
            <trkpt lat="37.745923" lon="-3.526967">
                <ele>1586.793213</ele>
                <time>2009-07-05T07:14:25.000+02:00</time>
            </trkpt>
            <trkpt lat="37.745963" lon="-3.526571">
                <ele>1583.909424</ele>
                <time>2009-07-05T07:14:29.000+02:00</time>
            </trkpt>
            <trkpt lat="37.745965" lon="-3.526458">
                <ele>1582.467529</ele>
                <time>2009-07-05T07:14:30.000+02:00</time>
            </trkpt>
            <trkpt lat="37.745936" lon="-3.525710">
                <ele>1578.141357</ele>
                <time>2009-07-05T07:14:37.000+02:00</time>
            </trkpt>
            <trkpt lat="37.745915" lon="-3.525493">
                <ele>1577.180176</ele>
                <time>2009-07-05T07:14:39.000+02:00</time>
            </trkpt>
            <trkpt lat="37.745888" lon="-3.525284">
                <ele>1575.257324</ele>
                <time>2009-07-05T07:14:41.000+02:00</time>
            </trkpt>
            <trkpt lat="37.745855" lon="-3.525006">
                <ele>1574.776856</ele>
                <time>2009-07-05T07:14:44.000+02:00</time>
            </trkpt>
            <trkpt lat="37.745929" lon="-3.524714">
                <ele>1572.854248</ele>
                <time>2009-07-05T07:14:48.000+02:00</time>
            </trkpt>
            <trkpt lat="37.746116" lon="-3.524610">
                <ele>1569.970215</ele>
                <time>2009-07-05T07:14:51.000+02:00</time>
            </trkpt>
            <trkpt lat="37.746493" lon="-3.524545">
                <ele>1568.528320</ele>
                <time>2009-07-05T07:14:58.000+02:00</time>
            </trkpt>
            <trkpt lat="37.746735" lon="-3.524590">
                <ele>1563.721436</ele>
                <time>2009-07-05T07:15:02.000+02:00</time>
            </trkpt>
            <trkpt lat="37.746875" lon="-3.524676">
                <ele>1561.799072</ele>
                <time>2009-07-05T07:15:04.000+02:00</time>
            </trkpt>
            <trkpt lat="37.747022" lon="-3.524785">
                <ele>1560.837646</ele>
                <time>2009-07-05T07:15:06.000+02:00</time>
            </trkpt>
            <trkpt lat="37.747168" lon="-3.524907">
                <ele>1559.876221</ele>
                <time>2009-07-05T07:15:08.000+02:00</time>
            </trkpt>
            <trkpt lat="37.747412" lon="-3.525155">
                <ele>1558.915039</ele>
                <time>2009-07-05T07:15:12.000+02:00</time>
            </trkpt>
            <trkpt lat="37.747694" lon="-3.525304">
                <ele>1555.550537</ele>
                <time>2009-07-05T07:15:16.000+02:00</time>
            </trkpt>
            <trkpt lat="37.748132" lon="-3.525312">
                <ele>1551.705322</ele>
                <time>2009-07-05T07:15:21.000+02:00</time>
            </trkpt>
            <trkpt lat="37.748497" lon="-3.525401">
                <ele>1547.859863</ele>
                <time>2009-07-05T07:15:25.000+02:00</time>
            </trkpt>
            <trkpt lat="37.748598" lon="-3.525418">
                <ele>1547.859863</ele>
                <time>2009-07-05T07:15:26.000+02:00</time>
            </trkpt>
            <trkpt lat="37.749043" lon="-3.525478">
                <ele>1544.495117</ele>
                <time>2009-07-05T07:15:31.000+02:00</time>
            </trkpt>
            <trkpt lat="37.749288" lon="-3.525547">
                <ele>1542.572754</ele>
                <time>2009-07-05T07:15:34.000+02:00</time>
            </trkpt>
            <trkpt lat="37.749643" lon="-3.525811">
                <ele>1538.727539</ele>
                <time>2009-07-05T07:15:39.000+02:00</time>
            </trkpt>
            <trkpt lat="37.749708" lon="-3.525856">
                <ele>1538.727539</ele>
                <time>2009-07-05T07:15:40.000+02:00</time>
            </trkpt>
            <trkpt lat="37.749765" lon="-3.525908">
                <ele>1538.246826</ele>
                <time>2009-07-05T07:15:41.000+02:00</time>
            </trkpt>
            <trkpt lat="37.749868" lon="-3.526207">
                <ele>1534.401611</ele>
                <time>2009-07-05T07:15:45.000+02:00</time>
            </trkpt>
            <trkpt lat="37.749855" lon="-3.526299">
                <ele>1534.401611</ele>
                <time>2009-07-05T07:15:46.000+02:00</time>
            </trkpt>
            <trkpt lat="37.749723" lon="-3.526559">
                <ele>1531.517334</ele>
                <time>2009-07-05T07:15:49.000+02:00</time>
            </trkpt>
            <trkpt lat="37.749602" lon="-3.526713">
                <ele>1530.556152</ele>
                <time>2009-07-05T07:15:51.000+02:00</time>
            </trkpt>
            <trkpt lat="37.749465" lon="-3.526845">
                <ele>1529.114014</ele>
                <time>2009-07-05T07:15:53.000+02:00</time>
            </trkpt>
            <trkpt lat="37.749335" lon="-3.526940">
                <ele>1529.114014</ele>
                <time>2009-07-05T07:15:55.000+02:00</time>
            </trkpt>
            <trkpt lat="37.749178" lon="-3.527357">
                <ele>1525.749512</ele>
                <time>2009-07-05T07:16:01.000+02:00</time>
            </trkpt>
            <trkpt lat="37.749311" lon="-3.527603">
                <ele>1523.826904</ele>
                <time>2009-07-05T07:16:04.000+02:00</time>
            </trkpt>
            <trkpt lat="37.749591" lon="-3.528004">
                <ele>1519.981689</ele>
                <time>2009-07-05T07:16:09.000+02:00</time>
            </trkpt>
            <trkpt lat="37.749839" lon="-3.528473">
                <ele>1516.617188</ele>
                <time>2009-07-05T07:16:14.000+02:00</time>
            </trkpt>
            <trkpt lat="37.750133" lon="-3.529037">
                <ele>1513.252441</ele>
                <time>2009-07-05T07:16:20.000+02:00</time>
            </trkpt>
            <trkpt lat="37.750359" lon="-3.529576">
                <ele>1509.407227</ele>
                <time>2009-07-05T07:16:26.000+02:00</time>
            </trkpt>
            <trkpt lat="37.750404" lon="-3.529752">
                <ele>1508.445801</ele>
                <time>2009-07-05T07:16:28.000+02:00</time>
            </trkpt>
            <trkpt lat="37.750380" lon="-3.530063">
                <ele>1505.562012</ele>
                <time>2009-07-05T07:16:32.000+02:00</time>
            </trkpt>
            <trkpt lat="37.750256" lon="-3.530145">
                <ele>1504.600586</ele>
                <time>2009-07-05T07:16:34.000+02:00</time>
            </trkpt>
            <trkpt lat="37.750027" lon="-3.530180">
                <ele>1501.716797</ele>
                <time>2009-07-05T07:16:37.000+02:00</time>
            </trkpt>
            <trkpt lat="37.749567" lon="-3.530150">
                <ele>1497.390625</ele>
                <time>2009-07-05T07:16:42.000+02:00</time>
            </trkpt>
            <trkpt lat="37.749387" lon="-3.530155">
                <ele>1496.429443</ele>
                <time>2009-07-05T07:16:44.000+02:00</time>
            </trkpt>
            <trkpt lat="37.749309" lon="-3.530158">
                <ele>1496.429443</ele>
                <time>2009-07-05T07:16:45.000+02:00</time>
            </trkpt>
            <trkpt lat="37.749061" lon="-3.530108">
                <ele>1494.026123</ele>
                <time>2009-07-05T07:16:48.000+02:00</time>
            </trkpt>
            <trkpt lat="37.748980" lon="-3.530065">
                <ele>1493.064697</ele>
                <time>2009-07-05T07:16:49.000+02:00</time>
            </trkpt>
            <trkpt lat="37.748671" lon="-3.529849">
                <ele>1490.180908</ele>
                <time>2009-07-05T07:16:53.000+02:00</time>
            </trkpt>
            <trkpt lat="37.748548" lon="-3.529723">
                <ele>1490.180908</ele>
                <time>2009-07-05T07:16:55.000+02:00</time>
            </trkpt>
            <trkpt lat="37.748260" lon="-3.529254">
                <ele>1486.335693</ele>
                <time>2009-07-05T07:17:01.000+02:00</time>
            </trkpt>
            <trkpt lat="37.747976" lon="-3.529031">
                <ele>1484.893799</ele>
                <time>2009-07-05T07:17:08.000+02:00</time>
            </trkpt>
            <trkpt lat="37.747906" lon="-3.529396">
                <ele>1483.451416</ele>
                <time>2009-07-05T07:17:13.000+02:00</time>
            </trkpt>
            <trkpt lat="37.747925" lon="-3.529966">
                <ele>1479.606201</ele>
                <time>2009-07-05T07:17:19.000+02:00</time>
            </trkpt>
            <trkpt lat="37.747994" lon="-3.530402">
                <ele>1475.760986</ele>
                <time>2009-07-05T07:17:23.000+02:00</time>
            </trkpt>
            <trkpt lat="37.748166" lon="-3.531055">
                <ele>1471.435059</ele>
                <time>2009-07-05T07:17:29.000+02:00</time>
            </trkpt>
            <trkpt lat="37.748249" lon="-3.531521">
                <ele>1467.589600</ele>
                <time>2009-07-05T07:17:33.000+02:00</time>
            </trkpt>
            <trkpt lat="37.748285" lon="-3.531736">
                <ele>1466.147705</ele>
                <time>2009-07-05T07:17:35.000+02:00</time>
            </trkpt>
            <trkpt lat="37.748266" lon="-3.532210">
                <ele>1461.822021</ele>
                <time>2009-07-05T07:17:39.000+02:00</time>
            </trkpt>
            <trkpt lat="37.748218" lon="-3.532443">
                <ele>1460.379883</ele>
                <time>2009-07-05T07:17:41.000+02:00</time>
            </trkpt>
            <trkpt lat="37.748223" lon="-3.532915">
                <ele>1457.496094</ele>
                <time>2009-07-05T07:17:45.000+02:00</time>
            </trkpt>
            <trkpt lat="37.748204" lon="-3.533588">
                <ele>1453.170166</ele>
                <time>2009-07-05T07:17:51.000+02:00</time>
            </trkpt>
            <trkpt lat="37.748028" lon="-3.533874">
                <ele>1450.286133</ele>
                <time>2009-07-05T07:17:54.000+02:00</time>
            </trkpt>
            <trkpt lat="37.747729" lon="-3.534253">
                <ele>1446.440918</ele>
                <time>2009-07-05T07:17:58.000+02:00</time>
            </trkpt>
            <trkpt lat="37.747662" lon="-3.534353">
                <ele>1445.479492</ele>
                <time>2009-07-05T07:17:59.000+02:00</time>
            </trkpt>
            <trkpt lat="37.747488" lon="-3.534687">
                <ele>1444.037598</ele>
                <time>2009-07-05T07:18:02.000+02:00</time>
            </trkpt>
            <trkpt lat="37.747435" lon="-3.534786">
                <ele>1443.556885</ele>
                <time>2009-07-05T07:18:03.000+02:00</time>
            </trkpt>
            <trkpt lat="37.747379" lon="-3.535280">
                <ele>1440.192383</ele>
                <time>2009-07-05T07:18:08.000+02:00</time>
            </trkpt>
            <trkpt lat="37.747479" lon="-3.535471">
                <ele>1439.230957</ele>
                <time>2009-07-05T07:18:10.000+02:00</time>
            </trkpt>
            <trkpt lat="37.747649" lon="-3.535878">
                <ele>1435.866211</ele>
                <time>2009-07-05T07:18:14.000+02:00</time>
            </trkpt>
            <trkpt lat="37.747633" lon="-3.536249">
                <ele>1432.020996</ele>
                <time>2009-07-05T07:18:17.000+02:00</time>
            </trkpt>
            <trkpt lat="37.747563" lon="-3.536636">
                <ele>1429.617676</ele>
                <time>2009-07-05T07:18:20.000+02:00</time>
            </trkpt>
            <trkpt lat="37.747386" lon="-3.537094">
                <ele>1426.733887</ele>
                <time>2009-07-05T07:18:24.000+02:00</time>
            </trkpt>
            <trkpt lat="37.747395" lon="-3.537597">
                <ele>1422.888672</ele>
                <time>2009-07-05T07:18:28.000+02:00</time>
            </trkpt>
            <trkpt lat="37.747438" lon="-3.537714">
                <ele>1422.888672</ele>
                <time>2009-07-05T07:18:29.000+02:00</time>
            </trkpt>
            <trkpt lat="37.747486" lon="-3.537827">
                <ele>1422.407959</ele>
                <time>2009-07-05T07:18:30.000+02:00</time>
            </trkpt>
            <trkpt lat="37.747648" lon="-3.538145">
                <ele>1420.966064</ele>
                <time>2009-07-05T07:18:33.000+02:00</time>
            </trkpt>
            <trkpt lat="37.747697" lon="-3.538242">
                <ele>1420.966064</ele>
                <time>2009-07-05T07:18:34.000+02:00</time>
            </trkpt>
            <trkpt lat="37.747787" lon="-3.538637">
                <ele>1419.523926</ele>
                <time>2009-07-05T07:18:38.000+02:00</time>
            </trkpt>
            <trkpt lat="37.747748" lon="-3.538953">
                <ele>1416.159180</ele>
                <time>2009-07-05T07:18:41.000+02:00</time>
            </trkpt>
            <trkpt lat="37.747717" lon="-3.539053">
                <ele>1416.159180</ele>
                <time>2009-07-05T07:18:42.000+02:00</time>
            </trkpt>
            <trkpt lat="37.747537" lon="-3.539525">
                <ele>1413.755859</ele>
                <time>2009-07-05T07:18:47.000+02:00</time>
            </trkpt>
            <trkpt lat="37.747325" lon="-3.539909">
                <ele>1410.872070</ele>
                <time>2009-07-05T07:18:52.000+02:00</time>
            </trkpt>
            <trkpt lat="37.747229" lon="-3.540067">
                <ele>1410.391357</ele>
                <time>2009-07-05T07:18:54.000+02:00</time>
            </trkpt>
            <trkpt lat="37.747056" lon="-3.540409">
                <ele>1407.507568</ele>
                <time>2009-07-05T07:18:58.000+02:00</time>
            </trkpt>
            <trkpt lat="37.746920" lon="-3.540662">
                <ele>1405.584961</ele>
                <time>2009-07-05T07:19:01.000+02:00</time>
            </trkpt>
            <trkpt lat="37.746525" lon="-3.540959">
                <ele>1402.700684</ele>
                <time>2009-07-05T07:19:07.000+02:00</time>
            </trkpt>
            <trkpt lat="37.746236" lon="-3.541132">
                <ele>1398.855469</ele>
                <time>2009-07-05T07:19:11.000+02:00</time>
            </trkpt>
            <trkpt lat="37.746097" lon="-3.541419">
                <ele>1396.452393</ele>
                <time>2009-07-05T07:19:14.000+02:00</time>
            </trkpt>
            <trkpt lat="37.745944" lon="-3.541996">
                <ele>1392.126465</ele>
                <time>2009-07-05T07:19:19.000+02:00</time>
            </trkpt>
            <trkpt lat="37.745901" lon="-3.542234">
                <ele>1391.645752</ele>
                <time>2009-07-05T07:19:21.000+02:00</time>
            </trkpt>
            <trkpt lat="37.745866" lon="-3.542551">
                <ele>1390.684326</ele>
                <time>2009-07-05T07:19:24.000+02:00</time>
            </trkpt>
            <trkpt lat="37.745798" lon="-3.542848">
                <ele>1388.761963</ele>
                <time>2009-07-05T07:19:27.000+02:00</time>
            </trkpt>
            <trkpt lat="37.745544" lon="-3.543259">
                <ele>1386.358398</ele>
                <time>2009-07-05T07:19:37.000+02:00</time>
            </trkpt>
            <trkpt lat="37.745451" lon="-3.543394">
                <ele>1385.396973</ele>
                <time>2009-07-05T07:19:49.000+02:00</time>
            </trkpt>
            <trkpt lat="37.745451" lon="-3.543380">
                <ele>1382.032471</ele>
                <time>2009-07-05T07:23:39.000+02:00</time>
            </trkpt>
            <trkpt lat="37.745295" lon="-3.543610">
                <ele>1379.148438</ele>
                <time>2009-07-05T07:24:23.000+02:00</time>
            </trkpt>
            <trkpt lat="37.745224" lon="-3.543719">
                <ele>1378.187256</ele>
                <time>2009-07-05T07:24:26.000+02:00</time>
            </trkpt>
            <trkpt lat="37.745073" lon="-3.543995">
                <ele>1375.783936</ele>
                <time>2009-07-05T07:24:32.000+02:00</time>
            </trkpt>
            <trkpt lat="37.744948" lon="-3.544259">
                <ele>1373.380859</ele>
                <time>2009-07-05T07:24:37.000+02:00</time>
            </trkpt>
            <trkpt lat="37.744842" lon="-3.544686">
                <ele>1370.496582</ele>
                <time>2009-07-05T07:24:44.000+02:00</time>
            </trkpt>
            <trkpt lat="37.744816" lon="-3.544871">
                <ele>1369.535400</ele>
                <time>2009-07-05T07:24:47.000+02:00</time>
            </trkpt>
            <trkpt lat="37.744737" lon="-3.545121">
                <ele>1368.093262</ele>
                <time>2009-07-05T07:24:51.000+02:00</time>
            </trkpt>
            <trkpt lat="37.744560" lon="-3.545523">
                <ele>1364.248047</ele>
                <time>2009-07-05T07:24:57.000+02:00</time>
            </trkpt>
            <trkpt lat="37.744346" lon="-3.545859">
                <ele>1361.364258</ele>
                <time>2009-07-05T07:25:02.000+02:00</time>
            </trkpt>
            <trkpt lat="37.744140" lon="-3.546108">
                <ele>1358.960938</ele>
                <time>2009-07-05T07:25:06.000+02:00</time>
            </trkpt>
            <trkpt lat="37.743897" lon="-3.546456">
                <ele>1355.596191</ele>
                <time>2009-07-05T07:25:11.000+02:00</time>
            </trkpt>
            <trkpt lat="37.743838" lon="-3.547125">
                <ele>1351.750977</ele>
                <time>2009-07-05T07:25:20.000+02:00</time>
            </trkpt>
            <trkpt lat="37.743864" lon="-3.547202">
                <ele>1351.750977</ele>
                <time>2009-07-05T07:25:21.000+02:00</time>
            </trkpt>
            <trkpt lat="37.744032" lon="-3.547594">
                <ele>1347.905762</ele>
                <time>2009-07-05T07:25:26.000+02:00</time>
            </trkpt>
            <trkpt lat="37.744175" lon="-3.547921">
                <ele>1345.502441</ele>
                <time>2009-07-05T07:25:30.000+02:00</time>
            </trkpt>
            <trkpt lat="37.744265" lon="-3.548069">
                <ele>1344.541016</ele>
                <time>2009-07-05T07:25:32.000+02:00</time>
            </trkpt>
            <trkpt lat="37.744348" lon="-3.548404">
                <ele>1342.618652</ele>
                <time>2009-07-05T07:25:36.000+02:00</time>
            </trkpt>
            <trkpt lat="37.744248" lon="-3.548964">
                <ele>1339.253662</ele>
                <time>2009-07-05T07:25:43.000+02:00</time>
            </trkpt>
            <trkpt lat="37.744043" lon="-3.549496">
                <ele>1334.927979</ele>
                <time>2009-07-05T07:25:50.000+02:00</time>
            </trkpt>
            <trkpt lat="37.743967" lon="-3.549740">
                <ele>1333.485840</ele>
                <time>2009-07-05T07:25:53.000+02:00</time>
            </trkpt>
            <trkpt lat="37.743917" lon="-3.550002">
                <ele>1331.563232</ele>
                <time>2009-07-05T07:25:56.000+02:00</time>
            </trkpt>
            <trkpt lat="37.743901" lon="-3.550089">
                <ele>1331.082764</ele>
                <time>2009-07-05T07:25:57.000+02:00</time>
            </trkpt>
            <trkpt lat="37.743786" lon="-3.550532">
                <ele>1328.198731</ele>
                <time>2009-07-05T07:26:02.000+02:00</time>
            </trkpt>
            <trkpt lat="37.743733" lon="-3.550700">
                <ele>1326.756836</ele>
                <time>2009-07-05T07:26:04.000+02:00</time>
            </trkpt>
            <trkpt lat="37.743442" lon="-3.551213">
                <ele>1322.911377</ele>
                <time>2009-07-05T07:26:11.000+02:00</time>
            </trkpt>
            <trkpt lat="37.743155" lon="-3.551718">
                <ele>1319.066162</ele>
                <time>2009-07-05T07:26:19.000+02:00</time>
            </trkpt>
            <trkpt lat="37.743092" lon="-3.551857">
                <ele>1318.585449</ele>
                <time>2009-07-05T07:26:21.000+02:00</time>
            </trkpt>
            <trkpt lat="37.742914" lon="-3.552197">
                <ele>1315.701660</ele>
                <time>2009-07-05T07:26:26.000+02:00</time>
            </trkpt>
            <trkpt lat="37.742853" lon="-3.552343">
                <ele>1314.740234</ele>
                <time>2009-07-05T07:26:28.000+02:00</time>
            </trkpt>
            <trkpt lat="37.742871" lon="-3.553115">
                <ele>1311.375732</ele>
                <time>2009-07-05T07:26:38.000+02:00</time>
            </trkpt>
            <trkpt lat="37.743246" lon="-3.553526">
                <ele>1309.453125</ele>
                <time>2009-07-05T07:26:46.000+02:00</time>
            </trkpt>
            <trkpt lat="37.743491" lon="-3.553501">
                <ele>1307.530273</ele>
                <time>2009-07-05T07:26:50.000+02:00</time>
            </trkpt>
            <trkpt lat="37.743911" lon="-3.553369">
                <ele>1304.165771</ele>
                <time>2009-07-05T07:26:56.000+02:00</time>
            </trkpt>
            <trkpt lat="37.744355" lon="-3.553311">
                <ele>1304.165771</ele>
                <time>2009-07-05T07:27:03.000+02:00</time>
            </trkpt>
            <trkpt lat="37.744911" lon="-3.553296">
                <ele>1305.607666</ele>
                <time>2009-07-05T07:27:15.000+02:00</time>
            </trkpt>
            <trkpt lat="37.745122" lon="-3.553346">
                <ele>1306.088135</ele>
                <time>2009-07-05T07:27:20.000+02:00</time>
            </trkpt>
            <trkpt lat="37.745714" lon="-3.553665">
                <ele>1308.491699</ele>
                <time>2009-07-05T07:27:37.000+02:00</time>
            </trkpt>
            <trkpt lat="37.746067" lon="-3.553939">
                <ele>1309.453125</ele>
                <time>2009-07-05T07:27:50.000+02:00</time>
            </trkpt>
            <trkpt lat="37.746369" lon="-3.554084">
                <ele>1310.895019</ele>
                <time>2009-07-05T07:28:02.000+02:00</time>
            </trkpt>
            <trkpt lat="37.746626" lon="-3.553898">
                <ele>1311.375732</ele>
                <time>2009-07-05T07:28:13.000+02:00</time>
            </trkpt>
            <trkpt lat="37.746878" lon="-3.553691">
                <ele>1312.817627</ele>
                <time>2009-07-05T07:28:26.000+02:00</time>
            </trkpt>
            <trkpt lat="37.747284" lon="-3.553453">
                <ele>1313.778809</ele>
                <time>2009-07-05T07:28:43.000+02:00</time>
            </trkpt>
            <trkpt lat="37.747708" lon="-3.553338">
                <ele>1313.778809</ele>
                <time>2009-07-05T07:28:58.000+02:00</time>
            </trkpt>
            <trkpt lat="37.748182" lon="-3.553352">
                <ele>1315.701660</ele>
                <time>2009-07-05T07:29:15.000+02:00</time>
            </trkpt>
            <trkpt lat="37.748534" lon="-3.553604">
                <ele>1316.662842</ele>
                <time>2009-07-05T07:29:31.000+02:00</time>
            </trkpt>
            <trkpt lat="37.748839" lon="-3.553929">
                <ele>1319.066162</ele>
                <time>2009-07-05T07:29:50.000+02:00</time>
            </trkpt>
            <trkpt lat="37.749052" lon="-3.554289">
                <ele>1320.988769</ele>
                <time>2009-07-05T07:30:07.000+02:00</time>
            </trkpt>
            <trkpt lat="37.749060" lon="-3.554635">
                <ele>1322.430664</ele>
                <time>2009-07-05T07:30:20.000+02:00</time>
            </trkpt>
            <trkpt lat="37.748910" lon="-3.555016">
                <ele>1323.872559</ele>
                <time>2009-07-05T07:30:36.000+02:00</time>
            </trkpt>
            <trkpt lat="37.748690" lon="-3.555325">
                <ele>1325.795410</ele>
                <time>2009-07-05T07:30:51.000+02:00</time>
            </trkpt>
            <trkpt lat="37.748473" lon="-3.555698">
                <ele>1327.237549</ele>
                <time>2009-07-05T07:31:08.000+02:00</time>
            </trkpt>
            <trkpt lat="37.748408" lon="-3.556098">
                <ele>1328.198731</ele>
                <time>2009-07-05T07:31:24.000+02:00</time>
            </trkpt>
            <trkpt lat="37.748341" lon="-3.556525">
                <ele>1329.159912</ele>
                <time>2009-07-05T07:31:39.000+02:00</time>
            </trkpt>
            <trkpt lat="37.748356" lon="-3.556990">
                <ele>1329.640625</ele>
                <time>2009-07-05T07:31:53.000+02:00</time>
            </trkpt>
            <trkpt lat="37.748548" lon="-3.557616">
                <ele>1331.082764</ele>
                <time>2009-07-05T07:32:12.000+02:00</time>
            </trkpt>
            <trkpt lat="37.748831" lon="-3.558178">
                <ele>1333.485840</ele>
                <time>2009-07-05T07:32:31.000+02:00</time>
            </trkpt>
            <trkpt lat="37.749164" lon="-3.558383">
                <ele>1335.408447</ele>
                <time>2009-07-05T07:32:46.000+02:00</time>
            </trkpt>
            <trkpt lat="37.749551" lon="-3.558376">
                <ele>1337.331055</ele>
                <time>2009-07-05T07:33:02.000+02:00</time>
            </trkpt>
            <trkpt lat="37.749978" lon="-3.558575">
                <ele>1339.253662</ele>
                <time>2009-07-05T07:33:19.000+02:00</time>
            </trkpt>
            <trkpt lat="37.750269" lon="-3.558884">
                <ele>1341.176514</ele>
                <time>2009-07-05T07:33:35.000+02:00</time>
            </trkpt>
            <trkpt lat="37.750511" lon="-3.559229">
                <ele>1343.099121</ele>
                <time>2009-07-05T07:33:51.000+02:00</time>
            </trkpt>
            <trkpt lat="37.750760" lon="-3.559561">
                <ele>1345.021729</ele>
                <time>2009-07-05T07:34:06.000+02:00</time>
            </trkpt>
            <trkpt lat="37.751058" lon="-3.559732">
                <ele>1345.983154</ele>
                <time>2009-07-05T07:34:20.000+02:00</time>
            </trkpt>
            <trkpt lat="37.751340" lon="-3.559550">
                <ele>1347.425049</ele>
                <time>2009-07-05T07:34:33.000+02:00</time>
            </trkpt>
            <trkpt lat="37.751623" lon="-3.559244">
                <ele>1348.866943</ele>
                <time>2009-07-05T07:34:48.000+02:00</time>
            </trkpt>
            <trkpt lat="37.751905" lon="-3.558911">
                <ele>1350.789551</ele>
                <time>2009-07-05T07:35:04.000+02:00</time>
            </trkpt>
            <trkpt lat="37.752212" lon="-3.558685">
                <ele>1352.231445</ele>
                <time>2009-07-05T07:35:18.000+02:00</time>
            </trkpt>
            <trkpt lat="37.752612" lon="-3.558589">
                <ele>1353.673584</ele>
                <time>2009-07-05T07:35:35.000+02:00</time>
            </trkpt>
            <trkpt lat="37.752961" lon="-3.558702">
                <ele>1355.115479</ele>
                <time>2009-07-05T07:35:49.000+02:00</time>
            </trkpt>
            <trkpt lat="37.753313" lon="-3.558766">
                <ele>1357.038330</ele>
                <time>2009-07-05T07:36:04.000+02:00</time>
            </trkpt>
            <trkpt lat="37.753616" lon="-3.558612">
                <ele>1358.480225</ele>
                <time>2009-07-05T07:36:18.000+02:00</time>
            </trkpt>
            <trkpt lat="37.753958" lon="-3.558410">
                <ele>1359.441650</ele>
                <time>2009-07-05T07:36:34.000+02:00</time>
            </trkpt>
            <trkpt lat="37.754246" lon="-3.558215">
                <ele>1360.883545</ele>
                <time>2009-07-05T07:36:48.000+02:00</time>
            </trkpt>
            <trkpt lat="37.754590" lon="-3.558012">
                <ele>1362.325439</ele>
                <time>2009-07-05T07:37:04.000+02:00</time>
            </trkpt>
            <trkpt lat="37.755007" lon="-3.557816">
                <ele>1363.767334</ele>
                <time>2009-07-05T07:37:22.000+02:00</time>
            </trkpt>
            <trkpt lat="37.755353" lon="-3.557752">
                <ele>1364.728760</ele>
                <time>2009-07-05T07:37:37.000+02:00</time>
            </trkpt>
            <trkpt lat="37.755384" lon="-3.557737">
                <ele>1365.209473</ele>
                <time>2009-07-05T07:37:39.000+02:00</time>
            </trkpt>
            <trkpt lat="37.755426" lon="-3.557740">
                <ele>1365.690186</ele>
                <time>2009-07-05T07:37:47.000+02:00</time>
            </trkpt>
            <trkpt lat="37.755404" lon="-3.557723">
                <ele>1365.209473</ele>
                <time>2009-07-05T07:37:59.000+02:00</time>
            </trkpt>
            <trkpt lat="37.755404" lon="-3.557735">
                <ele>1364.728760</ele>
                <time>2009-07-05T07:40:38.000+02:00</time>
            </trkpt>
            <trkpt lat="37.755703" lon="-3.557820">
                <ele>1364.728760</ele>
                <time>2009-07-05T07:40:51.000+02:00</time>
            </trkpt>
            <trkpt lat="37.756055" lon="-3.557875">
                <ele>1365.690186</ele>
                <time>2009-07-05T07:41:04.000+02:00</time>
            </trkpt>
            <trkpt lat="37.756387" lon="-3.557909">
                <ele>1366.651367</ele>
                <time>2009-07-05T07:41:17.000+02:00</time>
            </trkpt>
            <trkpt lat="37.756760" lon="-3.558005">
                <ele>1368.573975</ele>
                <time>2009-07-05T07:41:32.000+02:00</time>
            </trkpt>
            <trkpt lat="37.757083" lon="-3.558007">
                <ele>1370.015869</ele>
                <time>2009-07-05T07:41:47.000+02:00</time>
            </trkpt>
            <trkpt lat="37.757402" lon="-3.558025">
                <ele>1371.938477</ele>
                <time>2009-07-05T07:42:02.000+02:00</time>
            </trkpt>
            <trkpt lat="37.757753" lon="-3.558136">
                <ele>1373.861328</ele>
                <time>2009-07-05T07:42:18.000+02:00</time>
            </trkpt>
            <trkpt lat="37.758059" lon="-3.558285">
                <ele>1375.783936</ele>
                <time>2009-07-05T07:42:32.000+02:00</time>
            </trkpt>
            <trkpt lat="37.758323" lon="-3.558407">
                <ele>1376.745361</ele>
                <time>2009-07-05T07:42:45.000+02:00</time>
            </trkpt>
            <trkpt lat="37.758670" lon="-3.558565">
                <ele>1378.187256</ele>
                <time>2009-07-05T07:43:01.000+02:00</time>
            </trkpt>
            <trkpt lat="37.758925" lon="-3.558762">
                <ele>1379.629150</ele>
                <time>2009-07-05T07:43:15.000+02:00</time>
            </trkpt>
            <trkpt lat="37.758994" lon="-3.559121">
                <ele>1380.109863</ele>
                <time>2009-07-05T07:43:28.000+02:00</time>
            </trkpt>
            <trkpt lat="37.759084" lon="-3.559509">
                <ele>1381.071289</ele>
                <time>2009-07-05T07:43:42.000+02:00</time>
            </trkpt>
            <trkpt lat="37.759194" lon="-3.559999">
                <ele>1382.513184</ele>
                <time>2009-07-05T07:43:59.000+02:00</time>
            </trkpt>
            <trkpt lat="37.759277" lon="-3.560449">
                <ele>1383.955078</ele>
                <time>2009-07-05T07:44:15.000+02:00</time>
            </trkpt>
            <trkpt lat="37.759340" lon="-3.560889">
                <ele>1385.396973</ele>
                <time>2009-07-05T07:44:31.000+02:00</time>
            </trkpt>
            <trkpt lat="37.759448" lon="-3.561314">
                <ele>1386.358398</ele>
                <time>2009-07-05T07:44:47.000+02:00</time>
            </trkpt>
            <trkpt lat="37.759503" lon="-3.561723">
                <ele>1387.319580</ele>
                <time>2009-07-05T07:45:02.000+02:00</time>
            </trkpt>
            <trkpt lat="37.759496" lon="-3.562192">
                <ele>1388.281250</ele>
                <time>2009-07-05T07:45:18.000+02:00</time>
            </trkpt>
            <trkpt lat="37.759485" lon="-3.562547">
                <ele>1388.761963</ele>
                <time>2009-07-05T07:45:31.000+02:00</time>
            </trkpt>
            <trkpt lat="37.759485" lon="-3.562816">
                <ele>1388.761963</ele>
                <time>2009-07-05T07:45:41.000+02:00</time>
            </trkpt>
            <trkpt lat="37.759522" lon="-3.563229">
                <ele>1389.242432</ele>
                <time>2009-07-05T07:45:56.000+02:00</time>
            </trkpt>
            <trkpt lat="37.759437" lon="-3.563679">
                <ele>1390.203857</ele>
                <time>2009-07-05T07:46:11.000+02:00</time>
            </trkpt>
            <trkpt lat="37.759304" lon="-3.564052">
                <ele>1391.645752</ele>
                <time>2009-07-05T07:46:26.000+02:00</time>
            </trkpt>
            <trkpt lat="37.759173" lon="-3.564467">
                <ele>1393.087646</ele>
                <time>2009-07-05T07:46:41.000+02:00</time>
            </trkpt>
            <trkpt lat="37.759111" lon="-3.564847">
                <ele>1394.529541</ele>
                <time>2009-07-05T07:46:54.000+02:00</time>
            </trkpt>
            <trkpt lat="37.759022" lon="-3.565252">
                <ele>1395.490967</ele>
                <time>2009-07-05T07:47:09.000+02:00</time>
            </trkpt>
            <trkpt lat="37.758915" lon="-3.565749">
                <ele>1397.413574</ele>
                <time>2009-07-05T07:47:27.000+02:00</time>
            </trkpt>
            <trkpt lat="37.758934" lon="-3.566120">
                <ele>1398.374756</ele>
                <time>2009-07-05T07:47:40.000+02:00</time>
            </trkpt>
            <trkpt lat="37.758977" lon="-3.566512">
                <ele>1399.816894</ele>
                <time>2009-07-05T07:47:54.000+02:00</time>
            </trkpt>
            <trkpt lat="37.759014" lon="-3.566873">
                <ele>1401.739502</ele>
                <time>2009-07-05T07:48:08.000+02:00</time>
            </trkpt>
            <trkpt lat="37.758977" lon="-3.567305">
                <ele>1403.662109</ele>
                <time>2009-07-05T07:48:24.000+02:00</time>
            </trkpt>
            <trkpt lat="37.758862" lon="-3.567863">
                <ele>1406.065430</ele>
                <time>2009-07-05T07:48:45.000+02:00</time>
            </trkpt>
            <trkpt lat="37.758752" lon="-3.568246">
                <ele>1407.507568</ele>
                <time>2009-07-05T07:49:00.000+02:00</time>
            </trkpt>
            <trkpt lat="37.758612" lon="-3.568603">
                <ele>1409.430176</ele>
                <time>2009-07-05T07:49:15.000+02:00</time>
            </trkpt>
            <trkpt lat="37.758457" lon="-3.569017">
                <ele>1410.391357</ele>
                <time>2009-07-05T07:49:32.000+02:00</time>
            </trkpt>
            <trkpt lat="37.758259" lon="-3.569479">
                <ele>1412.313965</ele>
                <time>2009-07-05T07:49:51.000+02:00</time>
            </trkpt>
            <trkpt lat="37.758046" lon="-3.569852">
                <ele>1413.755859</ele>
                <time>2009-07-05T07:50:07.000+02:00</time>
            </trkpt>
            <trkpt lat="37.757852" lon="-3.570204">
                <ele>1414.717285</ele>
                <time>2009-07-05T07:50:23.000+02:00</time>
            </trkpt>
            <trkpt lat="37.757755" lon="-3.570354">
                <ele>1415.678711</ele>
                <time>2009-07-05T07:50:39.000+02:00</time>
            </trkpt>
            <trkpt lat="37.757722" lon="-3.570438">
                <ele>1415.197998</ele>
                <time>2009-07-05T07:51:07.000+02:00</time>
            </trkpt>
            <trkpt lat="37.757716" lon="-3.570435">
                <ele>1414.236572</ele>
                <time>2009-07-05T07:52:00.000+02:00</time>
            </trkpt>
            <trkpt lat="37.757708" lon="-3.570444">
                <ele>1410.872070</ele>
                <time>2009-07-05T08:06:36.000+02:00</time>
            </trkpt>
            <trkpt lat="37.757708" lon="-3.570444">
                <ele>1410.872070</ele>
                <time>2009-07-05T08:06:37.000+02:00</time>
            </trkpt>
            <trkpt lat="37.757706" lon="-3.570449">
                <ele>1407.507568</ele>
                <time>2009-07-05T08:06:42.000+02:00</time>
            </trkpt>
            <trkpt lat="37.757706" lon="-3.570449">
                <ele>1411.833496</ele>
                <time>2009-07-05T08:06:43.000+02:00</time>
            </trkpt>
            <trkpt lat="37.757705" lon="-3.570449">
                <ele>1416.159180</ele>
                <time>2009-07-05T08:06:44.000+02:00</time>
            </trkpt>
            <trkpt lat="37.757703" lon="-3.570447">
                <ele>1413.275391</ele>
                <time>2009-07-05T08:06:45.000+02:00</time>
            </trkpt>
            <trkpt lat="37.757693" lon="-3.570450">
                <ele>1413.275391</ele>
                <time>2009-07-05T08:07:35.000+02:00</time>
            </trkpt>
            <trkpt lat="37.757671" lon="-3.570529">
                <ele>1413.275391</ele>
                <time>2009-07-05T08:07:40.000+02:00</time>
            </trkpt>
            <trkpt lat="37.757350" lon="-3.570820">
                <ele>1411.833496</ele>
                <time>2009-07-05T08:07:54.000+02:00</time>
            </trkpt>
            <trkpt lat="37.756998" lon="-3.570987">
                <ele>1409.430176</ele>
                <time>2009-07-05T08:08:02.000+02:00</time>
            </trkpt>
            <trkpt lat="37.756847" lon="-3.571147">
                <ele>1407.988281</ele>
                <time>2009-07-05T08:08:06.000+02:00</time>
            </trkpt>
            <trkpt lat="37.756734" lon="-3.571434">
                <ele>1406.546143</ele>
                <time>2009-07-05T08:08:11.000+02:00</time>
            </trkpt>
            <trkpt lat="37.756658" lon="-3.572106">
                <ele>1403.662109</ele>
                <time>2009-07-05T08:08:21.000+02:00</time>
            </trkpt>
            <trkpt lat="37.756643" lon="-3.572802">
                <ele>1400.778076</ele>
                <time>2009-07-05T08:08:30.000+02:00</time>
            </trkpt>
            <trkpt lat="37.756667" lon="-3.573405">
                <ele>1396.932861</ele>
                <time>2009-07-05T08:08:37.000+02:00</time>
            </trkpt>
            <trkpt lat="37.756698" lon="-3.574085">
                <ele>1394.529541</ele>
                <time>2009-07-05T08:08:44.000+02:00</time>
            </trkpt>
            <trkpt lat="37.756712" lon="-3.574367">
                <ele>1393.087646</ele>
                <time>2009-07-05T08:08:47.000+02:00</time>
            </trkpt>
            <trkpt lat="37.756746" lon="-3.575373">
                <ele>1389.242432</ele>
                <time>2009-07-05T08:08:58.000+02:00</time>
            </trkpt>
            <trkpt lat="37.756825" lon="-3.576068">
                <ele>1386.838867</ele>
                <time>2009-07-05T08:09:05.000+02:00</time>
            </trkpt>
            <trkpt lat="37.756940" lon="-3.576715">
                <ele>1383.955078</ele>
                <time>2009-07-05T08:09:11.000+02:00</time>
            </trkpt>
            <trkpt lat="37.757209" lon="-3.577205">
                <ele>1381.551758</ele>
                <time>2009-07-05T08:09:16.000+02:00</time>
            </trkpt>
            <trkpt lat="37.757362" lon="-3.577383">
                <ele>1380.109863</ele>
                <time>2009-07-05T08:09:18.000+02:00</time>
            </trkpt>
            <trkpt lat="37.757568" lon="-3.577710">
                <ele>1378.187256</ele>
                <time>2009-07-05T08:09:21.000+02:00</time>
            </trkpt>
            <trkpt lat="37.757756" lon="-3.578077">
                <ele>1375.783936</ele>
                <time>2009-07-05T08:09:24.000+02:00</time>
            </trkpt>
            <trkpt lat="37.757859" lon="-3.578812">
                <ele>1371.457764</ele>
                <time>2009-07-05T08:09:29.000+02:00</time>
            </trkpt>
            <trkpt lat="37.757799" lon="-3.579397">
                <ele>1366.651367</ele>
                <time>2009-07-05T08:09:33.000+02:00</time>
            </trkpt>
            <trkpt lat="37.757726" lon="-3.579775">
                <ele>1362.325439</ele>
                <time>2009-07-05T08:09:36.000+02:00</time>
            </trkpt>
            <trkpt lat="37.757702" lon="-3.579886">
                <ele>1362.325439</ele>
                <time>2009-07-05T08:09:37.000+02:00</time>
            </trkpt>
            <trkpt lat="37.757679" lon="-3.580000">
                <ele>1361.844971</ele>
                <time>2009-07-05T08:09:38.000+02:00</time>
            </trkpt>
            <trkpt lat="37.757638" lon="-3.580599">
                <ele>1357.519043</ele>
                <time>2009-07-05T08:09:43.000+02:00</time>
            </trkpt>
            <trkpt lat="37.757626" lon="-3.580699">
                <ele>1356.557617</ele>
                <time>2009-07-05T08:09:44.000+02:00</time>
            </trkpt>
            <trkpt lat="37.757639" lon="-3.580904">
                <ele>1355.596191</ele>
                <time>2009-07-05T08:09:46.000+02:00</time>
            </trkpt>
            <trkpt lat="37.757654" lon="-3.581012">
                <ele>1355.596191</ele>
                <time>2009-07-05T08:09:47.000+02:00</time>
            </trkpt>
            <trkpt lat="37.757565" lon="-3.581708">
                <ele>1351.270264</ele>
                <time>2009-07-05T08:09:53.000+02:00</time>
            </trkpt>
            <trkpt lat="37.757513" lon="-3.581821">
                <ele>1350.789551</ele>
                <time>2009-07-05T08:09:54.000+02:00</time>
            </trkpt>
            <trkpt lat="37.756920" lon="-3.582439">
                <ele>1345.983154</ele>
                <time>2009-07-05T08:10:01.000+02:00</time>
            </trkpt>
            <trkpt lat="37.756806" lon="-3.582486">
                <ele>1345.502441</ele>
                <time>2009-07-05T08:10:02.000+02:00</time>
            </trkpt>
            <trkpt lat="37.756467" lon="-3.582605">
                <ele>1341.176514</ele>
                <time>2009-07-05T08:10:05.000+02:00</time>
            </trkpt>
            <trkpt lat="37.755957" lon="-3.583008">
                <ele>1337.331055</ele>
                <time>2009-07-05T08:10:10.000+02:00</time>
            </trkpt>
            <trkpt lat="37.755774" lon="-3.583226">
                <ele>1332.524658</ele>
                <time>2009-07-05T08:10:12.000+02:00</time>
            </trkpt>
            <trkpt lat="37.755689" lon="-3.583343">
                <ele>1334.447266</ele>
                <time>2009-07-05T08:10:13.000+02:00</time>
            </trkpt>
            <trkpt lat="37.755438" lon="-3.583704">
                <ele>1332.524658</ele>
                <time>2009-07-05T08:10:16.000+02:00</time>
            </trkpt>
            <trkpt lat="37.755205" lon="-3.584238">
                <ele>1325.795410</ele>
                <time>2009-07-05T08:10:20.000+02:00</time>
            </trkpt>
            <trkpt lat="37.755161" lon="-3.584372">
                <ele>1325.795410</ele>
                <time>2009-07-05T08:10:21.000+02:00</time>
            </trkpt>
            <trkpt lat="37.755051" lon="-3.584624">
                <ele>1324.834229</ele>
                <time>2009-07-05T08:10:23.000+02:00</time>
            </trkpt>
            <trkpt lat="37.754888" lon="-3.584985">
                <ele>1321.469238</ele>
                <time>2009-07-05T08:10:26.000+02:00</time>
            </trkpt>
            <trkpt lat="37.754751" lon="-3.585402">
                <ele>1317.624023</ele>
                <time>2009-07-05T08:10:30.000+02:00</time>
            </trkpt>
            <trkpt lat="37.754712" lon="-3.585526">
                <ele>1315.220947</ele>
                <time>2009-07-05T08:10:33.000+02:00</time>
            </trkpt>
            <trkpt lat="37.754718" lon="-3.585562">
                <ele>1314.259521</ele>
                <time>2009-07-05T08:11:33.000+02:00</time>
            </trkpt>
            <trkpt lat="37.754687" lon="-3.585540">
                <ele>1311.856445</ele>
                <time>2009-07-05T08:18:57.000+02:00</time>
            </trkpt>
            <trkpt lat="37.754709" lon="-3.585538">
                <ele>1311.856445</ele>
                <time>2009-07-05T08:22:49.000+02:00</time>
            </trkpt>
            <trkpt lat="37.754848" lon="-3.585526">
                <ele>1309.933594</ele>
                <time>2009-07-05T08:22:53.000+02:00</time>
            </trkpt>
            <trkpt lat="37.755165" lon="-3.585478">
                <ele>1307.530273</ele>
                <time>2009-07-05T08:22:58.000+02:00</time>
            </trkpt>
            <trkpt lat="37.755472" lon="-3.585456">
                <ele>1304.646240</ele>
                <time>2009-07-05T08:23:02.000+02:00</time>
            </trkpt>
            <trkpt lat="37.755677" lon="-3.585444">
                <ele>1301.762451</ele>
                <time>2009-07-05T08:23:05.000+02:00</time>
            </trkpt>
            <trkpt lat="37.755946" lon="-3.585523">
                <ele>1298.397705</ele>
                <time>2009-07-05T08:23:10.000+02:00</time>
            </trkpt>
            <trkpt lat="37.756014" lon="-3.585533">
                <ele>1297.436523</ele>
                <time>2009-07-05T08:23:12.000+02:00</time>
            </trkpt>
            <trkpt lat="37.756110" lon="-3.585496">
                <ele>1295.994629</ele>
                <time>2009-07-05T08:23:15.000+02:00</time>
            </trkpt>
            <trkpt lat="37.756319" lon="-3.585519">
                <ele>1292.149414</ele>
                <time>2009-07-05T08:23:19.000+02:00</time>
            </trkpt>
            <trkpt lat="37.756581" lon="-3.585439">
                <ele>1288.303955</ele>
                <time>2009-07-05T08:23:23.000+02:00</time>
            </trkpt>
            <trkpt lat="37.756651" lon="-3.585434">
                <ele>1286.861816</ele>
                <time>2009-07-05T08:23:24.000+02:00</time>
            </trkpt>
            <trkpt lat="37.756909" lon="-3.585288">
                <ele>1280.613525</ele>
                <time>2009-07-05T08:23:31.000+02:00</time>
            </trkpt>
            <trkpt lat="37.757027" lon="-3.585208">
                <ele>1279.652100</ele>
                <time>2009-07-05T08:23:34.000+02:00</time>
            </trkpt>
            <trkpt lat="37.757156" lon="-3.585120">
                <ele>1282.055420</ele>
                <time>2009-07-05T08:23:39.000+02:00</time>
            </trkpt>
            <trkpt lat="37.757262" lon="-3.585063">
                <ele>1283.497314</ele>
                <time>2009-07-05T08:23:43.000+02:00</time>
            </trkpt>
            <trkpt lat="37.757392" lon="-3.585002">
                <ele>1286.861816</ele>
                <time>2009-07-05T08:23:49.000+02:00</time>
            </trkpt>
            <trkpt lat="37.757707" lon="-3.584987">
                <ele>1286.381348</ele>
                <time>2009-07-05T08:24:01.000+02:00</time>
            </trkpt>
            <trkpt lat="37.757883" lon="-3.584956">
                <ele>1286.861816</ele>
                <time>2009-07-05T08:24:09.000+02:00</time>
            </trkpt>
            <trkpt lat="37.758327" lon="-3.584881">
                <ele>1285.900635</ele>
                <time>2009-07-05T08:24:23.000+02:00</time>
            </trkpt>
            <trkpt lat="37.758502" lon="-3.584826">
                <ele>1283.497314</ele>
                <time>2009-07-05T08:24:27.000+02:00</time>
            </trkpt>
            <trkpt lat="37.758606" lon="-3.584711">
                <ele>1283.978027</ele>
                <time>2009-07-05T08:24:32.000+02:00</time>
            </trkpt>
            <trkpt lat="37.758739" lon="-3.584683">
                <ele>1282.055420</ele>
                <time>2009-07-05T08:24:37.000+02:00</time>
            </trkpt>
            <trkpt lat="37.758808" lon="-3.584671">
                <ele>1281.094238</ele>
                <time>2009-07-05T08:24:39.000+02:00</time>
            </trkpt>
            <trkpt lat="37.759077" lon="-3.584627">
                <ele>1277.249023</ele>
                <time>2009-07-05T08:24:45.000+02:00</time>
            </trkpt>
            <trkpt lat="37.759274" lon="-3.584634">
                <ele>1272.922852</ele>
                <time>2009-07-05T08:24:51.000+02:00</time>
            </trkpt>
            <trkpt lat="37.759340" lon="-3.584723">
                <ele>1270.519531</ele>
                <time>2009-07-05T08:24:53.000+02:00</time>
            </trkpt>
            <trkpt lat="37.759410" lon="-3.584863">
                <ele>1266.674316</ele>
                <time>2009-07-05T08:24:59.000+02:00</time>
            </trkpt>
            <trkpt lat="37.759430" lon="-3.585084">
                <ele>1262.829102</ele>
                <time>2009-07-05T08:25:06.000+02:00</time>
            </trkpt>
            <trkpt lat="37.759459" lon="-3.585186">
                <ele>1261.387207</ele>
                <time>2009-07-05T08:25:08.000+02:00</time>
            </trkpt>
            <trkpt lat="37.759543" lon="-3.585288">
                <ele>1258.502930</ele>
                <time>2009-07-05T08:25:10.000+02:00</time>
            </trkpt>
            <trkpt lat="37.759634" lon="-3.585516">
                <ele>1253.215820</ele>
                <time>2009-07-05T08:25:14.000+02:00</time>
            </trkpt>
            <trkpt lat="37.759659" lon="-3.585557">
                <ele>1251.773926</ele>
                <time>2009-07-05T08:25:15.000+02:00</time>
            </trkpt>
            <trkpt lat="37.759821" lon="-3.585562">
                <ele>1247.928711</ele>
                <time>2009-07-05T08:25:20.000+02:00</time>
            </trkpt>
            <trkpt lat="37.759858" lon="-3.585581">
                <ele>1246.967285</ele>
                <time>2009-07-05T08:25:21.000+02:00</time>
            </trkpt>
            <trkpt lat="37.760032" lon="-3.585668">
                <ele>1242.641357</ele>
                <time>2009-07-05T08:25:25.000+02:00</time>
            </trkpt>
            <trkpt lat="37.760256" lon="-3.585702">
                <ele>1239.757324</ele>
                <time>2009-07-05T08:25:30.000+02:00</time>
            </trkpt>
            <trkpt lat="37.760348" lon="-3.585691">
                <ele>1238.796143</ele>
                <time>2009-07-05T08:25:32.000+02:00</time>
            </trkpt>
            <trkpt lat="37.760498" lon="-3.585641">
                <ele>1235.912109</ele>
                <time>2009-07-05T08:25:35.000+02:00</time>
            </trkpt>
            <trkpt lat="37.760585" lon="-3.585665">
                <ele>1234.950928</ele>
                <time>2009-07-05T08:25:37.000+02:00</time>
            </trkpt>
            <trkpt lat="37.760765" lon="-3.585620">
                <ele>1232.066894</ele>
                <time>2009-07-05T08:25:41.000+02:00</time>
            </trkpt>
            <trkpt lat="37.760914" lon="-3.585692">
                <ele>1229.182861</ele>
                <time>2009-07-05T08:25:45.000+02:00</time>
            </trkpt>
            <trkpt lat="37.761114" lon="-3.585742">
                <ele>1224.856934</ele>
                <time>2009-07-05T08:25:50.000+02:00</time>
            </trkpt>
            <trkpt lat="37.761198" lon="-3.585704">
                <ele>1221.492188</ele>
                <time>2009-07-05T08:25:55.000+02:00</time>
            </trkpt>
            <trkpt lat="37.761290" lon="-3.585762">
                <ele>1219.569824</ele>
                <time>2009-07-05T08:25:58.000+02:00</time>
            </trkpt>
            <trkpt lat="37.761569" lon="-3.585882">
                <ele>1216.205078</ele>
                <time>2009-07-05T08:26:04.000+02:00</time>
            </trkpt>
            <trkpt lat="37.761941" lon="-3.585810">
                <ele>1210.917725</ele>
                <time>2009-07-05T08:26:09.000+02:00</time>
            </trkpt>
            <trkpt lat="37.762121" lon="-3.585615">
                <ele>1206.591797</ele>
                <time>2009-07-05T08:26:13.000+02:00</time>
            </trkpt>
            <trkpt lat="37.762196" lon="-3.585334">
                <ele>1202.746582</ele>
                <time>2009-07-05T08:26:16.000+02:00</time>
            </trkpt>
            <trkpt lat="37.762368" lon="-3.585189">
                <ele>1196.978760</ele>
                <time>2009-07-05T08:26:20.000+02:00</time>
            </trkpt>
            <trkpt lat="37.762437" lon="-3.585094">
                <ele>1195.536621</ele>
                <time>2009-07-05T08:26:23.000+02:00</time>
            </trkpt>
            <trkpt lat="37.762472" lon="-3.585017">
                <ele>1196.017578</ele>
                <time>2009-07-05T08:26:25.000+02:00</time>
            </trkpt>
            <trkpt lat="37.762608" lon="-3.584996">
                <ele>1191.691406</ele>
                <time>2009-07-05T08:26:31.000+02:00</time>
            </trkpt>
            <trkpt lat="37.762618" lon="-3.584991">
                <ele>1191.210693</ele>
                <time>2009-07-05T08:26:32.000+02:00</time>
            </trkpt>
            <trkpt lat="37.762647" lon="-3.584836">
                <ele>1192.172119</ele>
                <time>2009-07-05T08:26:36.000+02:00</time>
            </trkpt>
            <trkpt lat="37.762781" lon="-3.584570">
                <ele>1191.691406</ele>
                <time>2009-07-05T08:26:42.000+02:00</time>
            </trkpt>
            <trkpt lat="37.763025" lon="-3.584302">
                <ele>1187.846191</ele>
                <time>2009-07-05T08:26:48.000+02:00</time>
            </trkpt>
            <trkpt lat="37.763245" lon="-3.584081">
                <ele>1184.481689</ele>
                <time>2009-07-05T08:26:52.000+02:00</time>
            </trkpt>
            <trkpt lat="37.763357" lon="-3.584002">
                <ele>1182.078369</ele>
                <time>2009-07-05T08:26:54.000+02:00</time>
            </trkpt>
            <trkpt lat="37.763479" lon="-3.583896">
                <ele>1179.194092</ele>
                <time>2009-07-05T08:26:56.000+02:00</time>
            </trkpt>
            <trkpt lat="37.763634" lon="-3.583799">
                <ele>1174.868408</ele>
                <time>2009-07-05T08:27:00.000+02:00</time>
            </trkpt>
            <trkpt lat="37.763688" lon="-3.583773">
                <ele>1173.906982</ele>
                <time>2009-07-05T08:27:02.000+02:00</time>
            </trkpt>
            <trkpt lat="37.763707" lon="-3.583732">
                <ele>1172.945801</ele>
                <time>2009-07-05T08:27:04.000+02:00</time>
            </trkpt>
            <trkpt lat="37.763931" lon="-3.583509">
                <ele>1168.619873</ele>
                <time>2009-07-05T08:27:09.000+02:00</time>
            </trkpt>
            <trkpt lat="37.764042" lon="-3.583387">
                <ele>1166.697266</ele>
                <time>2009-07-05T08:27:11.000+02:00</time>
            </trkpt>
            <trkpt lat="37.764194" lon="-3.583092">
                <ele>1161.409912</ele>
                <time>2009-07-05T08:27:15.000+02:00</time>
            </trkpt>
            <trkpt lat="37.764220" lon="-3.583033">
                <ele>1160.448486</ele>
                <time>2009-07-05T08:27:16.000+02:00</time>
            </trkpt>
            <trkpt lat="37.764255" lon="-3.582914">
                <ele>1159.487305</ele>
                <time>2009-07-05T08:27:18.000+02:00</time>
            </trkpt>
            <trkpt lat="37.764274" lon="-3.582550">
                <ele>1156.603271</ele>
                <time>2009-07-05T08:27:22.000+02:00</time>
            </trkpt>
            <trkpt lat="37.764271" lon="-3.582391">
                <ele>1153.238769</ele>
                <time>2009-07-05T08:27:24.000+02:00</time>
            </trkpt>
            <trkpt lat="37.764280" lon="-3.582008">
                <ele>1149.874268</ele>
                <time>2009-07-05T08:27:29.000+02:00</time>
            </trkpt>
            <trkpt lat="37.764296" lon="-3.581802">
                <ele>1146.989990</ele>
                <time>2009-07-05T08:27:34.000+02:00</time>
            </trkpt>
            <trkpt lat="37.764304" lon="-3.581771">
                <ele>1146.028809</ele>
                <time>2009-07-05T08:27:36.000+02:00</time>
            </trkpt>
            <trkpt lat="37.764426" lon="-3.582026">
                <ele>1141.222168</ele>
                <time>2009-07-05T08:27:43.000+02:00</time>
            </trkpt>
            <trkpt lat="37.764479" lon="-3.582200">
                <ele>1138.338379</ele>
                <time>2009-07-05T08:27:46.000+02:00</time>
            </trkpt>
            <trkpt lat="37.764524" lon="-3.582207">
                <ele>1137.376953</ele>
                <time>2009-07-05T08:27:48.000+02:00</time>
            </trkpt>
            <trkpt lat="37.764550" lon="-3.582109">
                <ele>1135.935059</ele>
                <time>2009-07-05T08:27:51.000+02:00</time>
            </trkpt>
            <trkpt lat="37.764566" lon="-3.581935">
                <ele>1133.531738</ele>
                <time>2009-07-05T08:27:54.000+02:00</time>
            </trkpt>
            <trkpt lat="37.764598" lon="-3.581635">
                <ele>1129.686279</ele>
                <time>2009-07-05T08:28:00.000+02:00</time>
            </trkpt>
            <trkpt lat="37.764592" lon="-3.581641">
                <ele>1128.725098</ele>
                <time>2009-07-05T08:29:07.000+02:00</time>
            </trkpt>
            <trkpt lat="37.764595" lon="-3.581634">
                <ele>1128.725098</ele>
                <time>2009-07-05T08:29:43.000+02:00</time>
            </trkpt>
            <trkpt lat="37.764601" lon="-3.581636">
                <ele>1125.360352</ele>
                <time>2009-07-05T08:34:14.000+02:00</time>
            </trkpt>
            <trkpt lat="37.764638" lon="-3.581376">
                <ele>1122.957275</ele>
                <time>2009-07-05T08:35:48.000+02:00</time>
            </trkpt>
            <trkpt lat="37.764706" lon="-3.581547">
                <ele>1119.112061</ele>
                <time>2009-07-05T08:35:56.000+02:00</time>
            </trkpt>
            <trkpt lat="37.764736" lon="-3.581633">
                <ele>1117.669922</ele>
                <time>2009-07-05T08:35:58.000+02:00</time>
            </trkpt>
            <trkpt lat="37.764753" lon="-3.581668">
                <ele>1115.266602</ele>
                <time>2009-07-05T08:36:02.000+02:00</time>
            </trkpt>
            <trkpt lat="37.764769" lon="-3.581625">
                <ele>1115.266602</ele>
                <time>2009-07-05T08:36:04.000+02:00</time>
            </trkpt>
            <trkpt lat="37.764812" lon="-3.581158">
                <ele>1112.382568</ele>
                <time>2009-07-05T08:36:14.000+02:00</time>
            </trkpt>
            <trkpt lat="37.764798" lon="-3.581005">
                <ele>1111.421387</ele>
                <time>2009-07-05T08:36:16.000+02:00</time>
            </trkpt>
            <trkpt lat="37.764726" lon="-3.580725">
                <ele>1107.576172</ele>
                <time>2009-07-05T08:36:20.000+02:00</time>
            </trkpt>
            <trkpt lat="37.764591" lon="-3.580423">
                <ele>1103.250244</ele>
                <time>2009-07-05T08:36:25.000+02:00</time>
            </trkpt>
            <trkpt lat="37.764583" lon="-3.580383">
                <ele>1102.769531</ele>
                <time>2009-07-05T08:36:26.000+02:00</time>
            </trkpt>
            <trkpt lat="37.764693" lon="-3.580283">
                <ele>1098.443359</ele>
                <time>2009-07-05T08:36:30.000+02:00</time>
            </trkpt>
            <trkpt lat="37.764728" lon="-3.580269">
                <ele>1097.962891</ele>
                <time>2009-07-05T08:36:31.000+02:00</time>
            </trkpt>
            <trkpt lat="37.764761" lon="-3.580202">
                <ele>1097.962891</ele>
                <time>2009-07-05T08:36:33.000+02:00</time>
            </trkpt>
            <trkpt lat="37.765070" lon="-3.580158">
                <ele>1095.078857</ele>
                <time>2009-07-05T08:36:40.000+02:00</time>
            </trkpt>
            <trkpt lat="37.765184" lon="-3.580338">
                <ele>1091.714356</ele>
                <time>2009-07-05T08:36:45.000+02:00</time>
            </trkpt>
            <trkpt lat="37.765212" lon="-3.580368">
                <ele>1091.714356</ele>
                <time>2009-07-05T08:36:46.000+02:00</time>
            </trkpt>
            <trkpt lat="37.765236" lon="-3.580417">
                <ele>1091.233643</ele>
                <time>2009-07-05T08:36:47.000+02:00</time>
            </trkpt>
            <trkpt lat="37.765337" lon="-3.580720">
                <ele>1087.388428</ele>
                <time>2009-07-05T08:36:51.000+02:00</time>
            </trkpt>
            <trkpt lat="37.765354" lon="-3.580928">
                <ele>1084.023926</ele>
                <time>2009-07-05T08:36:53.000+02:00</time>
            </trkpt>
            <trkpt lat="37.765411" lon="-3.581252">
                <ele>1079.217041</ele>
                <time>2009-07-05T08:36:57.000+02:00</time>
            </trkpt>
            <trkpt lat="37.765390" lon="-3.581355">
                <ele>1078.736572</ele>
                <time>2009-07-05T08:36:59.000+02:00</time>
            </trkpt>
            <trkpt lat="37.765472" lon="-3.581717">
                <ele>1076.333252</ele>
                <time>2009-07-05T08:37:05.000+02:00</time>
            </trkpt>
            <trkpt lat="37.765574" lon="-3.582145">
                <ele>1072.968750</ele>
                <time>2009-07-05T08:37:09.000+02:00</time>
            </trkpt>
            <trkpt lat="37.765668" lon="-3.582458">
                <ele>1068.642822</ele>
                <time>2009-07-05T08:37:12.000+02:00</time>
            </trkpt>
            <trkpt lat="37.765703" lon="-3.582558">
                <ele>1067.200684</ele>
                <time>2009-07-05T08:37:13.000+02:00</time>
            </trkpt>
            <trkpt lat="37.765874" lon="-3.582846">
                <ele>1063.355469</ele>
                <time>2009-07-05T08:37:16.000+02:00</time>
            </trkpt>
            <trkpt lat="37.765996" lon="-3.583009">
                <ele>1061.432861</ele>
                <time>2009-07-05T08:37:18.000+02:00</time>
            </trkpt>
            <trkpt lat="37.766137" lon="-3.583217">
                <ele>1057.587646</ele>
                <time>2009-07-05T08:37:21.000+02:00</time>
            </trkpt>
            <trkpt lat="37.766390" lon="-3.583420">
                <ele>1053.742432</ele>
                <time>2009-07-05T08:37:26.000+02:00</time>
            </trkpt>
            <trkpt lat="37.766524" lon="-3.583713">
                <ele>1049.896973</ele>
                <time>2009-07-05T08:37:30.000+02:00</time>
            </trkpt>
            <trkpt lat="37.766608" lon="-3.583975">
                <ele>1046.051758</ele>
                <time>2009-07-05T08:37:33.000+02:00</time>
            </trkpt>
            <trkpt lat="37.766863" lon="-3.584227">
                <ele>1041.245117</ele>
                <time>2009-07-05T08:37:38.000+02:00</time>
            </trkpt>
            <trkpt lat="37.766976" lon="-3.584263">
                <ele>1039.322510</ele>
                <time>2009-07-05T08:37:40.000+02:00</time>
            </trkpt>
            <trkpt lat="37.767123" lon="-3.584487">
                <ele>1034.515869</ele>
                <time>2009-07-05T08:37:45.000+02:00</time>
            </trkpt>
            <trkpt lat="37.767127" lon="-3.584885">
                <ele>1030.189941</ele>
                <time>2009-07-05T08:37:51.000+02:00</time>
            </trkpt>
            <trkpt lat="37.767142" lon="-3.585244">
                <ele>1026.825439</ele>
                <time>2009-07-05T08:37:55.000+02:00</time>
            </trkpt>
            <trkpt lat="37.767144" lon="-3.585526">
                <ele>1023.460938</ele>
                <time>2009-07-05T08:37:58.000+02:00</time>
            </trkpt>
            <trkpt lat="37.767143" lon="-3.585624">
                <ele>1022.499512</ele>
                <time>2009-07-05T08:37:59.000+02:00</time>
            </trkpt>
            <trkpt lat="37.767018" lon="-3.585991">
                <ele>1018.173340</ele>
                <time>2009-07-05T08:38:04.000+02:00</time>
            </trkpt>
            <trkpt lat="37.766966" lon="-3.586177">
                <ele>1015.770264</ele>
                <time>2009-07-05T08:38:06.000+02:00</time>
            </trkpt>
            <trkpt lat="37.766955" lon="-3.586381">
                <ele>1012.886231</ele>
                <time>2009-07-05T08:38:08.000+02:00</time>
            </trkpt>
            <trkpt lat="37.767080" lon="-3.586735">
                <ele>1008.560303</ele>
                <time>2009-07-05T08:38:12.000+02:00</time>
            </trkpt>
            <trkpt lat="37.767247" lon="-3.587053">
                <ele>1004.715088</ele>
                <time>2009-07-05T08:38:16.000+02:00</time>
            </trkpt>
            <trkpt lat="37.767345" lon="-3.587430">
                <ele>1001.350342</ele>
                <time>2009-07-05T08:38:20.000+02:00</time>
            </trkpt>
            <trkpt lat="37.767469" lon="-3.587707">
                <ele>997.505127</ele>
                <time>2009-07-05T08:38:23.000+02:00</time>
            </trkpt>
            <trkpt lat="37.767626" lon="-3.588064">
                <ele>993.179199</ele>
                <time>2009-07-05T08:38:27.000+02:00</time>
            </trkpt>
            <trkpt lat="37.767649" lon="-3.588147">
                <ele>991.256592</ele>
                <time>2009-07-05T08:38:28.000+02:00</time>
            </trkpt>
            <trkpt lat="37.767807" lon="-3.588324">
                <ele>987.411133</ele>
                <time>2009-07-05T08:38:32.000+02:00</time>
            </trkpt>
            <trkpt lat="37.768033" lon="-3.588503">
                <ele>984.046631</ele>
                <time>2009-07-05T08:38:38.000+02:00</time>
            </trkpt>
            <trkpt lat="37.768097" lon="-3.588572">
                <ele>983.085205</ele>
                <time>2009-07-05T08:38:43.000+02:00</time>
            </trkpt>
            <trkpt lat="37.768111" lon="-3.588638">
                <ele>980.201416</ele>
                <time>2009-07-05T08:38:45.000+02:00</time>
            </trkpt>
            <trkpt lat="37.768125" lon="-3.588677">
                <ele>977.798096</ele>
                <time>2009-07-05T08:38:46.000+02:00</time>
            </trkpt>
            <trkpt lat="37.768327" lon="-3.588763">
                <ele>976.836914</ele>
                <time>2009-07-05T08:38:56.000+02:00</time>
            </trkpt>
            <trkpt lat="37.768296" lon="-3.588690">
                <ele>973.952881</ele>
                <time>2009-07-05T08:44:01.000+02:00</time>
            </trkpt>
            <trkpt lat="37.768356" lon="-3.588726">
                <ele>972.991699</ele>
                <time>2009-07-05T08:44:59.000+02:00</time>
            </trkpt>
            <trkpt lat="37.768522" lon="-3.588801">
                <ele>972.510986</ele>
                <time>2009-07-05T08:45:12.000+02:00</time>
            </trkpt>
            <trkpt lat="37.769112" lon="-3.588809">
                <ele>969.146240</ele>
                <time>2009-07-05T08:45:20.000+02:00</time>
            </trkpt>
            <trkpt lat="37.769161" lon="-3.588808">
                <ele>968.665527</ele>
                <time>2009-07-05T08:45:21.000+02:00</time>
            </trkpt>
            <trkpt lat="37.769283" lon="-3.588818">
                <ele>968.184815</ele>
                <time>2009-07-05T08:45:23.000+02:00</time>
            </trkpt>
            <trkpt lat="37.769685" lon="-3.589007">
                <ele>967.223633</ele>
                <time>2009-07-05T08:45:34.000+02:00</time>
            </trkpt>
            <trkpt lat="37.769993" lon="-3.589216">
                <ele>965.301025</ele>
                <time>2009-07-05T08:45:43.000+02:00</time>
            </trkpt>
            <trkpt lat="37.770159" lon="-3.589422">
                <ele>964.339600</ele>
                <time>2009-07-05T08:45:48.000+02:00</time>
            </trkpt>
            <trkpt lat="37.770302" lon="-3.589609">
                <ele>962.416992</ele>
                <time>2009-07-05T08:45:53.000+02:00</time>
            </trkpt>
            <trkpt lat="37.770487" lon="-3.589883">
                <ele>960.494385</ele>
                <time>2009-07-05T08:46:00.000+02:00</time>
            </trkpt>
            <trkpt lat="37.770636" lon="-3.589991">
                <ele>959.052490</ele>
                <time>2009-07-05T08:46:04.000+02:00</time>
            </trkpt>
            <trkpt lat="37.770843" lon="-3.590059">
                <ele>957.129883</ele>
                <time>2009-07-05T08:46:09.000+02:00</time>
            </trkpt>
            <trkpt lat="37.770939" lon="-3.590127">
                <ele>956.168457</ele>
                <time>2009-07-05T08:46:16.000+02:00</time>
            </trkpt>
            <trkpt lat="37.771120" lon="-3.590398">
                <ele>952.803711</ele>
                <time>2009-07-05T08:46:26.000+02:00</time>
            </trkpt>
            <trkpt lat="37.771188" lon="-3.590476">
                <ele>951.361816</ele>
                <time>2009-07-05T08:46:29.000+02:00</time>
            </trkpt>
            <trkpt lat="37.771234" lon="-3.590545">
                <ele>949.919922</ele>
                <time>2009-07-05T08:46:31.000+02:00</time>
            </trkpt>
            <trkpt lat="37.771381" lon="-3.590769">
                <ele>946.074707</ele>
                <time>2009-07-05T08:46:36.000+02:00</time>
            </trkpt>
            <trkpt lat="37.771455" lon="-3.590871">
                <ele>944.152100</ele>
                <time>2009-07-05T08:46:38.000+02:00</time>
            </trkpt>
            <trkpt lat="37.771510" lon="-3.590922">
                <ele>942.710205</ele>
                <time>2009-07-05T08:46:39.000+02:00</time>
            </trkpt>
            <trkpt lat="37.771639" lon="-3.591120">
                <ele>941.268066</ele>
                <time>2009-07-05T08:46:42.000+02:00</time>
            </trkpt>
            <trkpt lat="37.771977" lon="-3.591590">
                <ele>939.345215</ele>
                <time>2009-07-05T08:46:49.000+02:00</time>
            </trkpt>
            <trkpt lat="37.772129" lon="-3.591703">
                <ele>937.903320</ele>
                <time>2009-07-05T08:46:51.000+02:00</time>
            </trkpt>
            <trkpt lat="37.772334" lon="-3.591913">
                <ele>935.019531</ele>
                <time>2009-07-05T08:46:54.000+02:00</time>
            </trkpt>
            <trkpt lat="37.772459" lon="-3.592065">
                <ele>932.616211</ele>
                <time>2009-07-05T08:46:57.000+02:00</time>
            </trkpt>
            <trkpt lat="37.772563" lon="-3.592168">
                <ele>931.174316</ele>
                <time>2009-07-05T08:47:00.000+02:00</time>
            </trkpt>
            <trkpt lat="37.772714" lon="-3.592293">
                <ele>929.732178</ele>
                <time>2009-07-05T08:47:03.000+02:00</time>
            </trkpt>
            <trkpt lat="37.772933" lon="-3.592436">
                <ele>927.809570</ele>
                <time>2009-07-05T08:47:06.000+02:00</time>
            </trkpt>
            <trkpt lat="37.773021" lon="-3.592480">
                <ele>926.848389</ele>
                <time>2009-07-05T08:47:07.000+02:00</time>
            </trkpt>
            <trkpt lat="37.773369" lon="-3.592734">
                <ele>923.483643</ele>
                <time>2009-07-05T08:47:11.000+02:00</time>
            </trkpt>
            <trkpt lat="37.773663" lon="-3.592970">
                <ele>920.118897</ele>
                <time>2009-07-05T08:47:14.000+02:00</time>
            </trkpt>
            <trkpt lat="37.773840" lon="-3.593238">
                <ele>914.351074</ele>
                <time>2009-07-05T08:47:17.000+02:00</time>
            </trkpt>
            <trkpt lat="37.773905" lon="-3.593279">
                <ele>912.428467</ele>
                <time>2009-07-05T08:47:20.000+02:00</time>
            </trkpt>
            <trkpt lat="37.773944" lon="-3.593363">
                <ele>912.428467</ele>
                <time>2009-07-05T08:47:28.000+02:00</time>
            </trkpt>
            <trkpt lat="37.774028" lon="-3.593560">
                <ele>910.025147</ele>
                <time>2009-07-05T08:47:31.000+02:00</time>
            </trkpt>
            <trkpt lat="37.774180" lon="-3.593802">
                <ele>908.583252</ele>
                <time>2009-07-05T08:47:34.000+02:00</time>
            </trkpt>
            <trkpt lat="37.774291" lon="-3.594006">
                <ele>906.660400</ele>
                <time>2009-07-05T08:47:36.000+02:00</time>
            </trkpt>
            <trkpt lat="37.774449" lon="-3.594363">
                <ele>904.737793</ele>
                <time>2009-07-05T08:47:39.000+02:00</time>
            </trkpt>
            <trkpt lat="37.774643" lon="-3.594749">
                <ele>901.854004</ele>
                <time>2009-07-05T08:47:42.000+02:00</time>
            </trkpt>
            <trkpt lat="37.774847" lon="-3.595165">
                <ele>897.528076</ele>
                <time>2009-07-05T08:47:45.000+02:00</time>
            </trkpt>
            <trkpt lat="37.774976" lon="-3.595468">
                <ele>894.163574</ele>
                <time>2009-07-05T08:47:47.000+02:00</time>
            </trkpt>
            <trkpt lat="37.775183" lon="-3.595948">
                <ele>890.318115</ele>
                <time>2009-07-05T08:47:50.000+02:00</time>
            </trkpt>
            <trkpt lat="37.775304" lon="-3.596302">
                <ele>884.550293</ele>
                <time>2009-07-05T08:47:52.000+02:00</time>
            </trkpt>
            <trkpt lat="37.775346" lon="-3.596476">
                <ele>884.550293</ele>
                <time>2009-07-05T08:47:53.000+02:00</time>
            </trkpt>
            <trkpt lat="37.775446" lon="-3.597013">
                <ele>881.666260</ele>
                <time>2009-07-05T08:47:56.000+02:00</time>
            </trkpt>
            <trkpt lat="37.775515" lon="-3.597354">
                <ele>880.224365</ele>
                <time>2009-07-05T08:47:58.000+02:00</time>
            </trkpt>
            <trkpt lat="37.775591" lon="-3.597692">
                <ele>876.859863</ele>
                <time>2009-07-05T08:48:00.000+02:00</time>
            </trkpt>
            <trkpt lat="37.775706" lon="-3.598401">
                <ele>873.975586</ele>
                <time>2009-07-05T08:48:04.000+02:00</time>
            </trkpt>
            <trkpt lat="37.775734" lon="-3.598761">
                <ele>870.611084</ele>
                <time>2009-07-05T08:48:06.000+02:00</time>
            </trkpt>
            <trkpt lat="37.775807" lon="-3.599450">
                <ele>866.285156</ele>
                <time>2009-07-05T08:48:10.000+02:00</time>
            </trkpt>
            <trkpt lat="37.775932" lon="-3.599938">
                <ele>862.439941</ele>
                <time>2009-07-05T08:48:13.000+02:00</time>
            </trkpt>
            <trkpt lat="37.776159" lon="-3.600589">
                <ele>858.114014</ele>
                <time>2009-07-05T08:48:17.000+02:00</time>
            </trkpt>
            <trkpt lat="37.776305" lon="-3.601117">
                <ele>854.268799</ele>
                <time>2009-07-05T08:48:20.000+02:00</time>
            </trkpt>
            <trkpt lat="37.776448" lon="-3.601641">
                <ele>850.423584</ele>
                <time>2009-07-05T08:48:23.000+02:00</time>
            </trkpt>
            <trkpt lat="37.776586" lon="-3.602152">
                <ele>844.655518</ele>
                <time>2009-07-05T08:48:26.000+02:00</time>
            </trkpt>
            <trkpt lat="37.776630" lon="-3.602325">
                <ele>845.616943</ele>
                <time>2009-07-05T08:48:27.000+02:00</time>
            </trkpt>
            <trkpt lat="37.776753" lon="-3.602857">
                <ele>841.771484</ele>
                <time>2009-07-05T08:48:30.000+02:00</time>
            </trkpt>
            <trkpt lat="37.776857" lon="-3.603379">
                <ele>838.406982</ele>
                <time>2009-07-05T08:48:33.000+02:00</time>
            </trkpt>
            <trkpt lat="37.776925" lon="-3.603711">
                <ele>835.522949</ele>
                <time>2009-07-05T08:48:35.000+02:00</time>
            </trkpt>
            <trkpt lat="37.776995" lon="-3.604038">
                <ele>833.600342</ele>
                <time>2009-07-05T08:48:37.000+02:00</time>
            </trkpt>
            <trkpt lat="37.777179" lon="-3.604469">
                <ele>830.716553</ele>
                <time>2009-07-05T08:48:40.000+02:00</time>
            </trkpt>
            <trkpt lat="37.777624" lon="-3.605045">
                <ele>827.832275</ele>
                <time>2009-07-05T08:48:45.000+02:00</time>
            </trkpt>
            <trkpt lat="37.777893" lon="-3.605740">
                <ele>824.467773</ele>
                <time>2009-07-05T08:48:50.000+02:00</time>
            </trkpt>
            <trkpt lat="37.778132" lon="-3.606313">
                <ele>821.103272</ele>
                <time>2009-07-05T08:48:54.000+02:00</time>
            </trkpt>
            <trkpt lat="37.778206" lon="-3.606443">
                <ele>821.103272</ele>
                <time>2009-07-05T08:48:55.000+02:00</time>
            </trkpt>
            <trkpt lat="37.778512" lon="-3.606966">
                <ele>817.258057</ele>
                <time>2009-07-05T08:48:59.000+02:00</time>
            </trkpt>
            <trkpt lat="37.778597" lon="-3.607096">
                <ele>817.258057</ele>
                <time>2009-07-05T08:49:00.000+02:00</time>
            </trkpt>
            <trkpt lat="37.778776" lon="-3.607338">
                <ele>814.854736</ele>
                <time>2009-07-05T08:49:02.000+02:00</time>
            </trkpt>
            <trkpt lat="37.779075" lon="-3.607639">
                <ele>812.451416</ele>
                <time>2009-07-05T08:49:05.000+02:00</time>
            </trkpt>
            <trkpt lat="37.779347" lon="-3.607877">
                <ele>808.125488</ele>
                <time>2009-07-05T08:49:08.000+02:00</time>
            </trkpt>
            <trkpt lat="37.779602" lon="-3.608030">
                <ele>804.760742</ele>
                <time>2009-07-05T08:49:12.000+02:00</time>
            </trkpt>
            <trkpt lat="37.779779" lon="-3.608275">
                <ele>802.357422</ele>
                <time>2009-07-05T08:49:18.000+02:00</time>
            </trkpt>
            <trkpt lat="37.779897" lon="-3.608313">
                <ele>801.876953</ele>
                <time>2009-07-05T08:49:20.000+02:00</time>
            </trkpt>
            <trkpt lat="37.780210" lon="-3.608435">
                <ele>799.473633</ele>
                <time>2009-07-05T08:49:28.000+02:00</time>
            </trkpt>
            <trkpt lat="37.780243" lon="-3.608398">
                <ele>798.031738</ele>
                <time>2009-07-05T08:52:59.000+02:00</time>
            </trkpt>
        </trkseg>
    </trk>
</gpx>